[[{"header":{"parameterUnit":"m.s-1","parameterCategory":1,"la1":30.6,"la2":29.2853,"lo1":-89.7004,"lo2":-87.6739,"dy":0.0162,"dx":0.0183,"nx":112,"ny":82,"refTime":"2026-04-20T00:00:00:Z","depth":0,"parameterNumber":2,"parameterNumberName":"U-component_of_WINDS"},"data":[0.0,0.0,0.0,0.0,0.0,0.0,0.0,0.0,0.0,0.0,0.0,0.0,0.0,0.0,0.0,0.0,0.0,0.0,0.0,0.0,0.0,0.0,0.0,0.0,0.0,0.0,0.0,0.0,0.0,0.0,0.0,0.0,0.0,0.0,0.0,0.0,0.0,0.0,0.0,0.0,0.0,0.0,0.0,0.0,0.0,0.0,0.0,0.0,0.0,0.0,0.0,0.0,0.0,0.0,0.0,0.0,0.0,0.0,0.0,0.0,0.0,0.0,0.0,0.0,0.0,0.0,0.0,0.0,0.0,0.0,0.0,0.0,0.0,0.0,0.0,0.0,0.0,0.0,0.0,0.0,0.0,0.0,0.0,0.0,0.0,0.0,0.0,0.0,0.0,0.0,-5.6939,-5.8765,-6.112,-6.25,-6.2433,-6.1624,-6.0151,-5.7729,0.0,0.0,0.0,0.0,0.0,0.0,0.0,0.0,0.0,0.0,0.0,0.0,0.0,0.0,0.0,0.0,0.0,0.0,0.0,0.0,0.0,0.0,0.0,0.0,0.0,0.0,0.0,0.0,0.0,0.0,0.0,0.0,0.0,0.0,0.0,0.0,0.0,0.0,0.0,0.0,0.0,0.0,0.0,0.0,0.0,0.0,0.0,0.0,0.0,0.0,0.0,0.0,0.0,0.0,0.0,0.0,0.0,0.0,0.0,0.0,0.0,0.0,0.0,0.0,0.0,0.0,0.0,0.0,0.0,0.0,0.0,0.0,0.0,0.0,0.0,0.0,0.0,0.0,0.0,0.0,0.0,0.0,0.0,0.0,0.0,0.0,0.0,0.0,0.0,0.0,0.0,0.0,0.0,0.0,0.0,0.0,0.0,0.0,0.0,0.0,0.0,0.0,0.0,0.0,-5.7235,-6.0306,-6.162,-6.2291,-6.237,-6.097,-5.9331,-5.7692,0.0,0.0,0.0,0.0,0.0,0.0,0.0,0.0,0.0,0.0,0.0,0.0,0.0,0.0,0.0,0.0,0.0,0.0,0.0,0.0,0.0,0.0,0.0,0.0,0.0,0.0,0.0,0.0,0.0,0.0,0.0,0.0,0.0,0.0,0.0,0.0,0.0,0.0,0.0,0.0,0.0,0.0,0.0,0.0,0.0,0.0,0.0,0.0,0.0,0.0,0.0,0.0,0.0,0.0,0.0,0.0,0.0,0.0,0.0,0.0,0.0,0.0,0.0,0.0,0.0,0.0,0.0,0.0,0.0,0.0,0.0,0.0,0.0,0.0,0.0,0.0,0.0,0.0,0.0,0.0,0.0,0.0,0.0,0.0,0.0,0.0,0.0,0.0,0.0,0.0,0.0,0.0,0.0,0.0,0.0,0.0,0.0,0.0,0.0,0.0,0.0,0.0,0.0,-5.5669,-5.7763,-6.0699,-6.1716,-6.2222,-6.2195,-6.0431,-5.875,-5.7472,-5.4737,0.0,0.0,0.0,0.0,0.0,0.0,0.0,0.0,0.0,0.0,0.0,0.0,0.0,0.0,0.0,0.0,0.0,0.0,0.0,0.0,0.0,0.0,0.0,0.0,0.0,0.0,0.0,0.0,0.0,0.0,0.0,0.0,0.0,0.0,0.0,0.0,0.0,0.0,0.0,0.0,0.0,0.0,0.0,0.0,0.0,0.0,0.0,0.0,0.0,0.0,0.0,0.0,0.0,0.0,0.0,0.0,0.0,0.0,0.0,0.0,0.0,0.0,0.0,0.0,0.0,0.0,0.0,0.0,0.0,0.0,0.0,0.0,0.0,0.0,0.0,0.0,0.0,0.0,0.0,0.0,0.0,0.0,0.0,0.0,0.0,0.0,0.0,0.0,0.0,0.0,0.0,0.0,0.0,0.0,0.0,0.0,0.0,0.0,0.0,0.0,0.0,0.0,-5.6226,-5.7985,-6.0238,-6.12,-6.1584,-6.1263,-5.9294,-5.7683,-5.6742,-5.3114,0.0,0.0,0.0,0.0,0.0,0.0,0.0,0.0,0.0,0.0,0.0,0.0,0.0,0.0,0.0,0.0,0.0,0.0,0.0,0.0,0.0,0.0,0.0,0.0,0.0,0.0,0.0,0.0,0.0,0.0,0.0,0.0,0.0,0.0,0.0,0.0,0.0,0.0,0.0,0.0,0.0,0.0,0.0,0.0,0.0,0.0,0.0,0.0,0.0,0.0,0.0,0.0,0.0,0.0,0.0,0.0,0.0,0.0,0.0,0.0,0.0,0.0,0.0,0.0,0.0,0.0,0.0,0.0,0.0,0.0,0.0,0.0,0.0,0.0,0.0,0.0,0.0,0.0,0.0,0.0,0.0,0.0,0.0,0.0,0.0,0.0,0.0,0.0,0.0,0.0,0.0,0.0,0.0,0.0,0.0,0.0,0.0,0.0,0.0,0.0,0.0,0.0,-5.5301,-5.7295,-5.8804,-5.9667,-5.9875,-5.91,-5.6951,-5.5532,-5.5241,-5.1615,0.0,0.0,0.0,0.0,0.0,0.0,0.0,0.0,0.0,0.0,0.0,0.0,0.0,0.0,0.0,0.0,0.0,0.0,0.0,0.0,0.0,0.0,0.0,0.0,0.0,0.0,0.0,0.0,0.0,0.0,0.0,0.0,0.0,0.0,0.0,0.0,0.0,0.0,0.0,0.0,0.0,0.0,0.0,0.0,0.0,0.0,0.0,0.0,0.0,0.0,0.0,0.0,0.0,0.0,0.0,0.0,0.0,0.0,0.0,0.0,0.0,0.0,0.0,0.0,0.0,0.0,0.0,0.0,0.0,0.0,0.0,0.0,0.0,0.0,0.0,0.0,0.0,0.0,0.0,0.0,0.0,0.0,0.0,0.0,0.0,0.0,0.0,0.0,0.0,0.0,0.0,0.0,0.0,0.0,0.0,0.0,0.0,0.0,0.0,0.0,0.0,0.0,-5.3775,-5.5719,-5.7297,-5.8132,-5.8417,-5.8136,-5.6536,-5.5064,-5.3914,0.0,0.0,0.0,0.0,0.0,0.0,0.0,0.0,0.0,0.0,0.0,0.0,0.0,0.0,0.0,0.0,0.0,0.0,0.0,0.0,0.0,0.0,0.0,0.0,0.0,0.0,0.0,0.0,0.0,0.0,0.0,0.0,0.0,0.0,0.0,0.0,0.0,0.0,0.0,0.0,0.0,0.0,0.0,0.0,0.0,0.0,0.0,0.0,0.0,0.0,0.0,0.0,0.0,0.0,0.0,0.0,0.0,0.0,0.0,0.0,0.0,0.0,0.0,0.0,0.0,0.0,0.0,0.0,0.0,0.0,0.0,0.0,0.0,0.0,0.0,0.0,0.0,0.0,0.0,0.0,0.0,0.0,0.0,0.0,0.0,0.0,0.0,0.0,0.0,0.0,0.0,0.0,0.0,0.0,0.0,0.0,0.0,0.0,0.0,0.0,0.0,0.0,-5.0268,-5.2726,-5.4859,-5.6265,-5.7006,-5.7436,-5.7436,-5.5908,-5.4322,-5.2869,0.0,0.0,0.0,0.0,0.0,0.0,0.0,0.0,0.0,0.0,0.0,0.0,0.0,0.0,0.0,0.0,0.0,0.0,0.0,0.0,0.0,0.0,0.0,0.0,0.0,0.0,0.0,0.0,0.0,0.0,0.0,0.0,0.0,0.0,0.0,0.0,0.0,0.0,0.0,0.0,0.0,0.0,0.0,0.0,0.0,0.0,0.0,0.0,0.0,0.0,0.0,0.0,0.0,0.0,0.0,0.0,0.0,0.0,0.0,0.0,0.0,0.0,0.0,0.0,0.0,0.0,0.0,0.0,0.0,0.0,0.0,0.0,0.0,0.0,0.0,0.0,0.0,0.0,0.0,0.0,0.0,0.0,0.0,0.0,0.0,0.0,0.0,0.0,0.0,0.0,0.0,0.0,0.0,0.0,0.0,0.0,0.0,0.0,0.0,0.0,0.0,0.0,-4.9018,-5.23,-5.4905,-5.5614,-5.6359,-5.6799,-5.6765,-5.4769,-5.3105,0.0,0.0,0.0,0.0,0.0,0.0,0.0,0.0,0.0,0.0,0.0,0.0,0.0,0.0,0.0,0.0,0.0,0.0,0.0,0.0,0.0,0.0,0.0,0.0,0.0,0.0,0.0,0.0,0.0,0.0,0.0,0.0,0.0,0.0,0.0,0.0,0.0,0.0,0.0,0.0,0.0,0.0,0.0,0.0,0.0,0.0,0.0,0.0,0.0,0.0,0.0,0.0,0.0,0.0,0.0,0.0,0.0,0.0,0.0,0.0,0.0,0.0,0.0,0.0,0.0,0.0,0.0,0.0,0.0,0.0,0.0,0.0,0.0,0.0,0.0,0.0,0.0,0.0,0.0,0.0,0.0,0.0,0.0,0.0,0.0,0.0,0.0,0.0,0.0,0.0,0.0,0.0,0.0,0.0,0.0,0.0,0.0,0.0,0.0,0.0,0.0,0.0,0.0,-4.9448,-5.2775,-5.5269,-5.5471,-5.5813,-5.5747,-5.5102,-5.4565,-5.2976,-4.9924,0.0,0.0,0.0,0.0,0.0,0.0,0.0,0.0,0.0,0.0,0.0,0.0,0.0,0.0,0.0,0.0,0.0,0.0,0.0,0.0,0.0,0.0,0.0,0.0,0.0,0.0,0.0,0.0,0.0,0.0,0.0,0.0,0.0,0.0,0.0,0.0,0.0,0.0,0.0,0.0,0.0,0.0,0.0,0.0,0.0,0.0,0.0,0.0,0.0,0.0,0.0,0.0,0.0,0.0,0.0,0.0,0.0,0.0,0.0,0.0,0.0,0.0,0.0,0.0,0.0,0.0,0.0,0.0,0.0,0.0,0.0,0.0,0.0,0.0,0.0,0.0,0.0,0.0,0.0,0.0,0.0,0.0,0.0,0.0,0.0,0.0,0.0,0.0,0.0,0.0,0.0,0.0,0.0,0.0,0.0,0.0,0.0,0.0,0.0,0.0,0.0,0.0,-4.9153,-5.2235,-5.4518,-5.4823,-5.4962,-5.4895,-5.4655,-5.4458,-5.2977,-4.9718,0.0,0.0,0.0,0.0,0.0,0.0,0.0,0.0,0.0,0.0,0.0,0.0,0.0,0.0,0.0,0.0,0.0,0.0,0.0,0.0,0.0,0.0,0.0,0.0,0.0,0.0,0.0,0.0,0.0,0.0,0.0,0.0,0.0,0.0,0.0,0.0,0.0,0.0,0.0,0.0,0.0,0.0,0.0,0.0,0.0,0.0,0.0,0.0,0.0,0.0,0.0,0.0,0.0,0.0,0.0,0.0,0.0,0.0,0.0,0.0,0.0,0.0,0.0,0.0,0.0,0.0,0.0,0.0,0.0,0.0,0.0,0.0,0.0,0.0,0.0,0.0,0.0,0.0,0.0,0.0,0.0,0.0,0.0,0.0,0.0,0.0,0.0,0.0,0.0,0.0,0.0,0.0,0.0,0.0,0.0,0.0,0.0,0.0,0.0,0.0,0.0,0.0,-4.8552,-5.1128,-5.3233,-5.4008,-5.4075,-5.4343,-5.491,-5.4376,-5.3004,-5.0727,0.0,0.0,0.0,0.0,0.0,0.0,0.0,0.0,0.0,0.0,0.0,0.0,0.0,0.0,0.0,0.0,0.0,0.0,0.0,0.0,0.0,0.0,0.0,0.0,0.0,0.0,0.0,0.0,0.0,0.0,0.0,0.0,0.0,0.0,0.0,0.0,0.0,0.0,0.0,0.0,0.0,0.0,0.0,0.0,0.0,0.0,0.0,0.0,0.0,0.0,0.0,0.0,0.0,0.0,0.0,0.0,0.0,0.0,0.0,0.0,-5.1265,-5.0925,0.0,0.0,0.0,0.0,0.0,0.0,0.0,0.0,0.0,0.0,0.0,0.0,0.0,0.0,0.0,0.0,0.0,0.0,0.0,0.0,0.0,0.0,0.0,0.0,0.0,0.0,0.0,0.0,0.0,0.0,0.0,0.0,0.0,0.0,0.0,0.0,0.0,0.0,0.0,0.0,-4.8895,-5.1595,-5.3733,-5.4556,-5.4773,-5.4606,-5.4028,-5.4004,-5.2733,-4.9793,-4.8365,0.0,0.0,0.0,0.0,0.0,0.0,0.0,0.0,0.0,0.0,0.0,0.0,0.0,0.0,0.0,0.0,0.0,0.0,0.0,0.0,0.0,0.0,0.0,0.0,0.0,0.0,0.0,0.0,0.0,0.0,0.0,0.0,0.0,0.0,0.0,0.0,0.0,0.0,0.0,0.0,0.0,0.0,0.0,0.0,0.0,0.0,0.0,0.0,0.0,0.0,0.0,0.0,0.0,0.0,0.0,0.0,0.0,0.0,0.0,-5.2322,-5.1607,0.0,0.0,0.0,0.0,0.0,0.0,0.0,0.0,0.0,0.0,0.0,0.0,0.0,0.0,0.0,0.0,0.0,0.0,0.0,0.0,0.0,0.0,0.0,0.0,0.0,0.0,0.0,0.0,0.0,0.0,0.0,0.0,0.0,0.0,0.0,0.0,0.0,0.0,0.0,0.0,-4.7378,-4.972,-5.1591,-5.233,-5.2514,-5.2351,-5.188,-5.189,-5.1108,-4.9141,-4.779,0.0,0.0,0.0,0.0,0.0,0.0,0.0,0.0,0.0,0.0,0.0,0.0,0.0,0.0,0.0,0.0,0.0,0.0,0.0,0.0,0.0,0.0,0.0,0.0,0.0,0.0,0.0,0.0,0.0,0.0,0.0,0.0,0.0,0.0,0.0,0.0,0.0,0.0,0.0,0.0,0.0,0.0,0.0,0.0,0.0,0.0,0.0,0.0,0.0,0.0,0.0,0.0,0.0,-5.4251,-5.464,-5.4251,-5.5239,-5.5388,-5.482,-5.3713,-5.2606,-5.1498,-5.0794,0.0,0.0,0.0,0.0,0.0,0.0,0.0,0.0,0.0,0.0,0.0,0.0,0.0,0.0,0.0,0.0,0.0,0.0,0.0,0.0,0.0,0.0,-4.7418,-4.697,-4.7627,-4.7886,-4.6368,0.0,0.0,0.0,0.0,0.0,0.0,0.0,0.0,0.0,0.0,0.0,-4.5724,-4.7448,-4.8891,-4.9702,-4.9805,-4.9805,-4.9805,-4.9931,-4.9608,-4.8755,-4.7529,-4.617,0.0,0.0,0.0,0.0,0.0,0.0,0.0,0.0,0.0,0.0,0.0,0.0,0.0,0.0,0.0,0.0,0.0,0.0,0.0,0.0,0.0,0.0,0.0,0.0,0.0,0.0,0.0,0.0,0.0,0.0,0.0,0.0,-5.3384,-5.2217,0.0,0.0,0.0,0.0,0.0,0.0,0.0,0.0,0.0,0.0,0.0,0.0,0.0,-5.2217,-5.2785,-5.4132,-5.5089,-5.5658,-5.6974,-5.7872,-5.8321,-5.7902,-5.7693,-5.7603,-5.7423,0.0,-5.2875,-5.2217,0.0,0.0,0.0,0.0,0.0,0.0,0.0,0.0,0.0,0.0,0.0,0.0,0.0,0.0,0.0,0.0,0.0,0.0,0.0,0.0,0.0,0.0,-4.847,-4.8972,-4.8765,-4.8427,-4.8134,-4.6202,-4.4406,-4.4311,-4.3838,-4.3373,0.0,0.0,0.0,0.0,0.0,0.0,-4.6313,-4.7263,-4.8289,-4.9663,-4.9805,-4.9805,-4.9805,-5.0334,-5.0113,-4.8787,-4.7901,-4.685,-4.5447,-4.3335,0.0,0.0,0.0,0.0,0.0,0.0,0.0,0.0,0.0,0.0,0.0,0.0,0.0,0.0,0.0,0.0,0.0,0.0,0.0,0.0,0.0,0.0,0.0,0.0,0.0,0.0,0.0,0.0,0.0,-5.3354,-5.3713,-5.2366,-5.3114,-5.3054,0.0,0.0,0.0,0.0,0.0,0.0,0.0,0.0,0.0,-5.3832,-5.4102,-5.4708,-5.5957,-5.6958,-5.7654,-5.8113,-5.8872,-5.9355,-5.9678,-5.9025,-5.8703,-5.8728,-5.8342,-5.7155,-5.5375,-5.4311,-5.3084,-5.1798,0.0,0.0,0.0,0.0,-4.9353,-4.9482,-4.966,-4.9567,-4.9385,-4.9297,0.0,0.0,0.0,0.0,0.0,0.0,0.0,-4.6107,-4.767,-4.8273,-4.8791,-4.9823,-4.9852,-4.9528,-4.9144,-4.7776,-4.6351,-4.5451,-4.4717,-4.3888,-4.2548,-4.2227,0.0,0.0,0.0,-4.3836,-4.517,-4.6245,-4.7289,-4.8304,-4.8407,-4.8407,-4.8407,-4.9021,-4.9101,-4.8519,-4.7817,-4.7156,-4.6559,-4.417,-4.2584,0.0,0.0,0.0,0.0,0.0,0.0,0.0,0.0,0.0,0.0,0.0,0.0,0.0,0.0,0.0,0.0,0.0,0.0,0.0,0.0,0.0,0.0,0.0,0.0,0.0,0.0,0.0,0.0,-5.3683,-5.4401,-5.2905,-5.4042,-5.4102,0.0,0.0,0.0,0.0,0.0,0.0,-5.4231,-5.446,-5.5087,-5.6199,-5.6443,-5.7244,-5.8589,-5.9185,-5.9608,-5.9981,-6.0227,-6.0465,-6.0612,-5.9993,-5.961,-5.9433,-5.8755,-5.8107,-5.734,-5.602,-5.4708,-5.3367,-5.2185,-5.1553,-5.1184,-5.1035,-5.0921,-5.1012,-5.1837,-5.1876,-5.1503,-5.115,-5.0415,-4.921,-4.6917,0.0,0.0,0.0,0.0,-4.6417,-4.8135,-4.8529,-4.8869,-5.0015,-5.0309,-5.0162,-4.9662,-4.8946,-4.7979,-4.6578,-4.5836,-4.4721,-4.2594,-4.2357,0.0,-4.1343,-4.2326,-4.3558,-4.4583,-4.5639,-4.6506,-4.7219,-4.7309,-4.7309,-4.7309,-4.7908,-4.8297,-4.8297,-4.7967,-4.7728,-4.7549,-4.54,-4.3986,-4.3479,0.0,0.0,0.0,0.0,0.0,0.0,0.0,0.0,0.0,0.0,0.0,0.0,0.0,0.0,0.0,0.0,0.0,0.0,0.0,0.0,0.0,0.0,0.0,0.0,0.0,0.0,0.0,0.0,0.0,-5.4341,-5.5777,0.0,0.0,0.0,0.0,-5.5375,-5.6169,-5.6634,-5.6962,-5.7848,-5.8555,-5.9017,-5.9021,-5.9345,-5.9964,-6.0052,-6.0406,-6.1055,-6.1026,-6.135,-6.1998,-6.1291,-6.0701,-6.0111,-5.9463,-5.8785,-5.8048,-5.675,-5.5453,-5.4186,-5.3457,-5.2859,-5.224,-5.1572,-5.1749,-5.219,-5.166,-5.1689,-5.2046,-5.2602,-5.1499,-4.9746,-4.8372,-4.7222,0.0,0.0,-4.7131,-4.7378,-4.8428,-4.8682,-4.8856,-4.9572,-4.9717,-4.9717,-4.9688,-4.8862,-4.7968,-4.7492,-4.6933,-4.6093,-4.4663,0.0,-4.3573,-4.3484,-4.3042,-4.3507,-4.5654,-4.5951,-4.6334,-4.7206,-4.7309,-4.7309,-4.7309,-4.7908,-4.8297,-4.8297,-4.888,-4.894,-4.8267,-4.7271,-4.5862,-4.3991,-4.1834,0.0,0.0,0.0,0.0,0.0,0.0,0.0,0.0,0.0,0.0,0.0,0.0,0.0,0.0,0.0,0.0,0.0,0.0,0.0,0.0,0.0,0.0,0.0,0.0,0.0,0.0,0.0,0.0,-5.5034,-5.6989,0.0,-5.6337,-5.6054,-5.6126,-5.6627,-5.7685,-5.8339,-5.8464,-5.9165,-5.9814,-6.0378,-6.0235,-6.0151,-6.0054,-5.9664,-5.9205,-5.8761,-5.8541,-5.8591,-5.8787,-5.7841,-5.7253,-5.7001,-5.5992,-5.5432,-5.5122,-5.4702,-5.5166,-5.6078,-5.546,-5.4707,-5.3964,-5.373,-5.3421,-5.3062,-5.2829,-5.2341,-5.1583,-5.0247,-4.8809,-4.742,-4.6612,-4.5797,-4.5267,-4.586,-4.6027,-4.6222,-4.6929,-4.7151,-4.741,-4.8368,-4.8603,-4.8802,-4.9522,-4.8777,-4.7835,-4.7724,-4.6956,-4.5991,-4.4798,-4.4611,-4.4422,-4.3696,-4.415,-4.484,-4.5634,-4.615,-4.6519,-4.6844,-4.6873,-4.6873,-4.6873,-4.7466,-4.7822,-4.7822,-4.8104,-4.8104,-4.7852,-4.7111,-4.6209,-4.5043,-4.3808,-4.1941,0.0,0.0,0.0,0.0,0.0,0.0,0.0,0.0,0.0,0.0,0.0,0.0,0.0,0.0,0.0,0.0,0.0,0.0,0.0,0.0,0.0,0.0,0.0,0.0,0.0,-5.4773,-5.6318,-5.6284,-5.8225,-5.8965,-5.7639,-5.7618,-5.7886,-5.8326,-5.9205,-5.9736,-5.9856,-6.0353,-6.056,-6.0408,-6.0258,-5.9801,-5.9036,-5.8564,-5.806,-5.7332,-5.7102,-5.6973,-5.6946,-5.6224,-5.5654,-5.5282,-5.4433,-5.3863,-5.351,-5.351,-5.4488,-5.5877,-5.5246,-5.439,-5.3483,-5.3483,-5.2975,-5.2272,-5.2272,-5.1757,-5.0795,-4.9009,-4.7677,-4.6702,-4.6186,-4.5538,-4.5132,-4.559,-4.5698,-4.5779,-4.6186,-4.6267,-4.6476,-4.7229,-4.7434,-4.7582,-4.8141,-4.7438,-4.667,-4.6443,-4.6241,-4.5872,-4.517,-4.5069,-4.4938,-4.4453,-4.4936,-4.5478,-4.5727,-4.6182,-4.6491,-4.6609,-4.6609,-4.6609,-4.6609,-4.6786,-4.7125,-4.7568,-4.7214,-4.7066,-4.7273,-4.6565,-4.583,-4.5183,-4.3776,-4.1957,-3.961,0.0,0.0,0.0,0.0,0.0,0.0,0.0,0.0,0.0,0.0,0.0,0.0,0.0,0.0,0.0,0.0,0.0,0.0,0.0,0.0,0.0,0.0,0.0,-5.2247,-5.4654,-5.6708,-5.7951,-5.9264,-6.0028,-6.0028,-5.9214,-5.9246,-6.0589,-6.0618,-6.0763,-6.1104,-6.1315,-6.0716,-5.9121,-5.9058,-5.834,-5.6973,-5.6909,-5.6909,-5.6844,-5.6844,-5.6844,-5.6844,-5.6817,-5.6259,-5.5149,-5.5184,-5.4445,-5.3389,-5.3389,-5.3389,-5.3308,-5.2772,-5.1824,-5.0709,-5.0709,-5.0387,-4.9901,-4.9845,-4.9845,-4.9764,-4.9112,-4.8489,-4.7893,-4.7271,-4.6649,-4.6215,-4.6215,-4.6215,-4.6215,-4.6215,-4.6215,-4.6215,-4.6215,-4.6267,-4.6105,-4.5611,-4.5041,-4.4443,-4.3845,-4.4856,-4.5821,-4.5821,-4.5343,-4.514,-4.5779,-4.5343,0.0,-4.6092,-4.6225,-4.6314,-4.6535,-4.658,-4.658,-4.658,-4.599,-4.6137,-4.7405,-4.6388,-4.5945,-4.6521,-4.5713,-4.4894,-4.4208,-4.1465,-3.9789,-3.917,0.0,0.0,0.0,0.0,0.0,0.0,0.0,0.0,0.0,0.0,0.0,0.0,0.0,0.0,0.0,0.0,0.0,0.0,0.0,0.0,0.0,-4.9429,-5.075,-5.1864,-5.3571,-5.5062,-5.5839,-5.7425,-5.8515,-5.8479,-5.8277,-5.8711,-6.0013,-5.8843,-5.846,-5.9617,-5.878,-5.806,-5.7615,-5.7551,-5.6909,-5.5591,-5.5591,-5.5061,-5.4013,-5.4013,-5.4013,-5.4013,-5.3602,-5.3079,-5.2385,-5.1948,-5.1357,-5.0689,-5.0689,-5.0689,-5.0853,-5.2593,-5.2506,-5.1448,-5.1448,-5.0797,-4.9788,-4.8904,-4.8589,-4.8337,-4.6947,-4.6033,-4.5443,-4.4878,-4.4369,-4.3932,-4.3932,-4.3932,-4.3932,-4.3932,-4.3932,-4.4126,-4.494,-4.5154,-4.5183,-4.5457,-4.5041,-4.4443,-4.3845,-4.3684,-4.389,-4.4591,-4.524,-4.5663,-4.5866,-4.5721,-4.5707,-4.5956,-4.5956,-4.6001,-4.6075,-4.612,-4.612,-4.612,-4.5945,-4.577,-4.5653,-4.5303,-4.5011,-4.4749,-4.3788,-4.2879,-4.198,-4.0576,-3.9367,0.0,0.0,0.0,0.0,0.0,0.0,0.0,0.0,0.0,0.0,0.0,0.0,0.0,0.0,0.0,0.0,0.0,0.0,0.0,0.0,0.0,0.0,-4.9754,-5.106,-5.1783,-5.3217,-5.4574,-5.5799,-5.7082,-5.7895,-5.7895,-5.8112,-5.8467,-5.8999,-5.8215,-5.7878,-5.8179,-5.7669,-5.6985,-5.6156,-5.6156,-5.5499,-5.4148,-5.4106,-5.37,-5.2929,-5.2929,-5.2929,-5.2929,-5.2603,-5.2026,-5.1272,-5.0921,-5.0318,-4.959,-4.959,-4.959,-4.9783,0.0,0.0,0.0,0.0,-4.8963,-4.8268,-4.7593,-4.7357,-4.7213,-4.6162,-4.5296,-4.4568,-4.4242,-4.3589,-4.2986,-4.2986,-4.2986,-4.2986,-4.2986,-4.2986,-4.3184,-4.3823,-4.3987,-4.3997,-4.4071,-4.3861,-4.3361,-4.2494,-4.2425,0.0,-4.2964,-4.389,-4.4573,-4.4573,-4.4573,-4.4573,-4.4573,-4.4573,-4.4573,-4.4573,-4.4573,-4.4573,-4.4573,-4.4319,0.0,0.0,0.0,-4.2568,-4.2018,-4.1435,0.0,0.0,0.0,0.0,0.0,-3.7292,0.0,0.0,-3.7059,-3.6393,0.0,0.0,0.0,0.0,0.0,0.0,0.0,0.0,0.0,0.0,0.0,0.0,0.0,0.0,0.0,0.0,-5.0318,-5.1574,-5.2126,-5.3253,-5.4669,-5.6417,-5.7166,-5.7569,-5.7623,-5.8013,-5.82,-5.7806,-5.7985,-5.777,-5.6834,-5.7097,0.0,0.0,0.0,-5.4174,-5.2929,-5.2929,-5.2929,-5.2929,-5.2929,-5.2929,-5.2929,-5.2929,-5.2327,-5.1272,-5.1272,-5.0645,-4.959,-4.959,-4.959,-4.959,-4.9464,-4.8786,-4.7782,-4.6702,-4.6301,-4.6301,-4.6301,0.0,0.0,-4.6301,-4.5547,-4.4618,-4.4618,-4.384,-4.2986,-4.2986,-4.2986,-4.2986,-4.2986,-4.2986,-4.2986,-4.2986,-4.2986,-4.2836,-4.2338,-4.2213,-4.1886,-4.0727,-4.1259,-4.1722,-4.1123,-4.2012,-4.2792,-4.2792,-4.2792,-4.2792,-4.2792,-4.2792,-4.2792,-4.2792,-4.2792,0.0,-4.2792,-4.2229,-4.212,-4.2656,-4.1063,-3.978,-3.9141,-3.9203,-3.9176,-3.8899,-3.8475,-3.8475,-3.8899,-3.8397,-3.8128,-3.8048,-3.6366,-3.5828,0.0,0.0,0.0,0.0,0.0,0.0,0.0,0.0,0.0,0.0,0.0,0.0,0.0,0.0,0.0,-4.9916,-5.1147,-5.2126,-5.2678,-5.3312,-5.396,-5.4312,-5.4847,-5.5382,-5.5841,-5.5969,-5.6257,-5.681,-5.5512,-5.4911,-5.5353,-5.4386,-5.3691,-5.3316,-5.3316,-5.3179,-5.2929,-5.2929,-5.2929,-5.2929,-5.2929,0.0,-5.2929,-5.2929,-5.2327,-5.1272,-5.1272,-5.0645,-4.959,-4.959,-4.959,-4.9515,-4.8586,-4.8109,-4.7782,-4.6702,-4.6301,-4.6301,-4.6301,-4.6301,-4.6301,-4.6301,-4.5547,-4.4618,-4.4618,-4.384,0.0,-4.2986,-4.2986,-4.2986,-4.2986,-4.2986,-4.2986,-4.2986,-4.2986,-4.2836,-4.2338,-4.2213,-4.1886,-4.0727,-4.0658,-4.0638,-4.0082,-4.1518,-4.2792,-4.2792,-4.2792,-4.2792,-4.2792,-4.2792,-4.2792,-4.2792,-4.2792,-4.2792,-4.2792,-4.2683,-4.2439,-4.2012,-4.1206,-4.0106,-3.878,-3.9417,-3.8929,-3.6989,-3.7554,-3.7599,-3.6943,-3.7228,-3.7177,-3.6764,-3.6694,-3.6472,0.0,0.0,0.0,0.0,0.0,0.0,0.0,0.0,0.0,0.0,0.0,-4.738,-4.8209,0.0,-4.9967,-5.1071,-5.2176,-5.3005,-5.3281,-5.3783,-5.4034,-5.3733,-5.4461,-5.5089,-5.5365,-5.5641,-5.5728,-5.5618,-5.4961,-5.441,-5.3954,-5.3569,-5.3206,-5.2929,-5.2929,-5.2929,-5.2929,-5.2929,-5.2929,-5.2929,-5.2929,-5.2929,-5.2929,-5.2628,-5.2076,-5.1272,-5.0971,-5.0368,-4.959,-4.959,-4.959,-4.9515,-4.8661,-4.8159,-4.7807,-4.7029,-4.6552,-4.6301,-4.6301,-4.6301,-4.6301,-4.6301,-4.5748,-4.4995,-4.4719,-4.4041,-4.3338,-4.3062,-4.2986,-4.2986,-4.2986,-4.2986,-4.2986,-4.2986,-4.2986,-4.2911,-4.269,-4.2615,-4.2363,-4.1505,-4.1128,-4.0752,-4.0199,-4.0747,-4.1246,-4.1246,-4.1246,-4.1246,-4.1246,-4.1246,-4.1246,-4.1246,-4.1246,-4.1246,-4.1246,-4.1246,-4.0984,-4.0409,-4.0073,-3.9414,-3.8316,-3.8744,-3.8424,-3.7235,-3.7642,-3.7642,-3.7186,-3.7462,-3.7462,-3.7235,-3.741,-3.7211,0.0,0.0,0.0,0.0,0.0,0.0,0.0,-4.8259,-4.8485,-4.8159,-4.851,-4.9188,-5.0218,-5.0745,-5.1398,-5.2427,-5.3306,-5.3858,-5.3858,-5.4361,-5.4561,-5.4084,-5.4838,-5.544,-5.5541,-5.5942,-5.5742,-5.4637,-5.4988,-5.4561,-5.3005,-5.3331,-5.3356,-5.2929,-5.2929,-5.2929,-5.2929,-5.2929,-5.2929,-5.2929,-5.2929,-5.2929,-5.2904,-5.2352,-5.18,-5.1247,-5.0544,-5.0017,-4.959,-4.959,-4.959,-4.9565,-4.9113,-4.851,-4.7857,-4.733,-4.6853,-4.6451,-4.6351,-4.6301,-4.6301,-4.6301,-4.5949,-4.5372,-4.4794,-4.4242,-4.3689,-4.3137,-4.2986,-4.2986,-4.2986,-4.2986,-4.2986,-4.2986,-4.2986,-4.2986,-4.2986,-4.2986,-4.2811,-4.2313,-4.1806,-4.1329,-4.0777,-4.0224,-3.9823,-3.9722,-3.9697,-3.9697,-3.9697,-3.9697,-3.9697,-3.9697,-3.9697,-3.9697,-3.9697,-3.9697,-3.9496,-3.9069,-3.907,-3.8768,-3.8191,-3.8165,-3.8115,-3.8015,-3.8015,-3.8015,-3.8015,-3.8115,-3.8115,-3.8015,-3.8191,-3.7866,-4.5824,-4.5799,-4.6577,-4.8109,-4.8535,-4.8987,0.0,-5.087,-5.1021,-5.1448,-5.1975,-5.2553,-5.313,-5.3281,-5.3557,-5.4185,-5.4386,-5.4461,-5.4461,-5.4938,-5.5265,-5.5214,-5.5315,-5.5591,-5.6068,-5.6168,-5.5742,-5.4637,-5.4637,-5.416,-5.298,-5.298,-5.298,-5.2929,-5.2929,-5.2929,-5.2929,-5.2929,-5.2929,-5.2929,-5.2929,-5.2929,-5.2904,-5.2352,-5.18,-5.1222,-5.0142,-4.9665,-4.959,-4.959,-4.959,-4.959,-4.9515,-4.8837,-4.7857,-4.733,-4.7043,-4.6979,-4.6476,-4.6301,-4.6301,-4.6301,-4.5949,-4.5372,-4.4794,-4.4242,-4.3689,-4.3137,-4.2986,-4.2986,-4.2986,-4.2986,-4.2986,-4.2986,-4.2986,-4.2986,-4.2986,-4.2986,-4.2811,-4.2313,-4.2162,-4.1882,-4.1275,-4.0802,-4.0249,-3.9772,-3.9697,-3.9697,-3.9697,-3.9697,-3.9697,-3.9697,-3.9697,-3.9697,-3.9697,-3.9697,-3.9672,-3.9597,-3.9597,-3.9346,-3.8793,-3.8768,-3.8542,-3.8015,-3.8015,-3.8015,-3.8015,-3.8517,-3.8517,-3.804,-3.8765,-3.8588,-4.7179,-4.7305,-4.8058,-4.9389,-5.0218,-5.0971,-5.2,-5.2477,-5.2754,-5.298,-5.3482,-5.3959,-5.416,-5.421,-5.4285,-5.4607,-5.4838,-5.5039,-5.5039,-5.5516,-5.5742,-5.544,-5.5666,-5.5968,-5.6194,-5.6219,-5.5892,-5.5089,-5.4737,-5.421,-5.3406,-5.308,-5.2929,-5.2929,-5.2929,-5.2929,-5.2929,-5.2929,-5.2929,-5.2929,-5.2603,-5.2452,-5.2427,-5.1523,-5.082,-5.0268,-4.9791,-4.959,-4.959,-4.959,-4.959,-4.959,-4.959,-4.9113,-4.8335,-4.7782,-4.7179,-4.6627,-4.6401,-4.6301,-4.6301,-4.6301,-4.615,-4.5799,-4.4895,-4.4468,-4.4091,-4.3212,-4.2986,-4.2986,-4.2986,-4.2986,-4.2986,-4.2986,-4.2986,-4.2986,-4.2986,-4.2986,-4.2911,-4.274,-4.2439,-4.2137,-4.1856,-4.1103,-4.0425,-4.0199,-3.9898,-3.9697,-3.9697,-3.9697,-3.9697,-3.9697,-3.9697,-3.9697,-3.9697,-3.9697,-3.9697,-3.9697,-3.9697,-3.9597,-3.9346,-3.9243,-3.9067,-3.8994,-3.8613,-3.8562,-3.8766,-3.8811,-3.8708,-3.8485,-3.8827,-3.8647,-4.8058,-4.8661,-4.969,-5.0645,-5.1724,-5.2729,-5.3432,-5.4009,-5.4386,-5.4386,-5.4838,-5.5189,-5.5039,-5.5013,-5.5013,-5.5013,-5.5365,-5.5616,-5.5616,-5.5968,-5.6018,-5.544,-5.5742,-5.5993,-5.5993,-5.6118,-5.5993,-5.544,-5.4888,-5.431,-5.3733,-5.3206,-5.2929,-5.2929,-5.2929,-5.2929,-5.2929,-5.2929,-5.2854,-5.2703,-5.2302,-5.2026,-5.185,-5.087,-5.0117,-4.959,-4.959,-4.959,-4.959,-4.959,-4.959,-4.959,-4.9439,-4.9012,-4.846,-4.7908,-4.7205,-4.6527,-4.6351,-4.6301,-4.6301,-4.6301,-4.6301,-4.6125,-4.5146,-4.4744,-4.4418,-4.3463,-4.3087,-4.2986,-4.2986,-4.2986,-4.2986,-4.2986,-4.2986,-4.2986,-4.2986,-4.2986,-4.2986,-4.2986,-4.2715,-4.2439,-4.2439,-4.1605,-4.0927,-4.0777,-4.0275,-3.9873,-3.9722,-3.9697,-3.9697,-3.9697,-3.9697,-3.9697,-3.9697,-3.9697,-3.9697,-3.9697,-3.9697,-3.9697,-3.9594,-3.9413,-3.9362,-3.9413,-3.8998,-3.8945,-3.9154,-3.8893,-3.8788,-3.8788,-3.8736,-3.8579,-4.8058,-4.9515,-5.1348,-5.1925,-5.2854,-5.3959,-5.5064,-5.5742,-5.6143,-5.6143,-5.657,-5.6796,-5.6269,-5.6168,-5.6168,-5.6168,-5.6168,-5.6194,-5.6194,-5.6194,-5.6018,-5.544,-5.539,-5.5415,-5.5415,-5.5892,-5.5993,-5.544,-5.4888,-5.431,-5.3733,-5.3206,-5.2929,-5.2929,-5.2929,-5.2929,-5.2929,-5.2929,-5.2653,-5.2126,-5.2126,-5.1825,-5.1297,-5.0695,-5.0117,-4.959,-4.959,-4.959,-4.959,-4.959,-4.959,-4.954,-4.9012,-4.8435,-4.7883,-4.7355,-4.7068,-4.6968,-4.6502,-4.6301,-4.6301,-4.6301,-4.6301,-4.62,-4.5623,-4.507,-4.4493,-4.394,-4.3388,-4.2986,-4.2986,-4.2986,-4.2986,-4.2986,-4.2986,-4.2986,-4.2986,-4.2986,-4.2986,-4.2986,-4.2961,-4.2961,-4.2961,-4.2539,-4.1932,-4.1351,-4.0852,-4.03,-3.9772,-3.9697,-3.9697,-3.9697,-3.9697,-3.9697,-3.9697,-3.9697,-3.9697,-3.9697,-3.9697,-3.9594,-3.931,-3.931,-3.9154,-3.8841,-3.8788,-3.8788,-3.8841,-3.8788,-3.8788,-3.8788,-3.8526,-3.8421,-4.9314,-5.067,-5.2051,-5.2929,-5.4009,-5.5013,-5.5767,-5.6068,-5.6219,-5.6219,-5.6068,-5.5892,-5.5691,-5.5666,-5.5666,-5.5666,-5.5968,-5.6219,-5.6219,-5.6219,-5.5867,-5.4963,-5.5164,-5.5239,-5.4888,-5.534,-5.5591,-5.539,-5.4888,-5.431,-5.3733,-5.3206,-5.2929,-5.2929,-5.2929,-5.2929,-5.2929,-5.2578,-5.2277,-5.2101,-5.1348,-5.0695,-5.0167,-4.9967,-4.9766,-4.959,-4.959,-4.959,-4.9565,-4.9213,-4.9063,-4.8987,-4.841,-4.7857,-4.738,-4.7205,-4.6842,-4.6552,-4.6376,-4.6301,-4.6301,-4.6301,-4.6301,-4.62,-4.5648,-4.507,-4.4518,-4.3966,-4.3413,-4.2986,-4.2986,-4.2986,-4.2986,-4.2986,-4.2986,-4.2986,-4.2986,-4.2986,-4.2986,-4.2986,-4.2986,-4.2986,-4.2986,-4.2564,-4.1902,-4.1135,-4.0445,-3.9898,-3.9722,-3.9697,-3.9697,-3.9697,-3.9697,-3.9697,-3.9697,-3.9697,-3.9697,-3.9697,-3.9542,-3.9362,-3.931,-3.8945,-3.8736,-3.8788,-3.8473,-3.8368,-3.8526,-3.8368,-3.8262,-3.8262,-3.821,-3.8133,-5.067,-5.1975,-5.3206,-5.4084,-5.4988,-5.5767,-5.6118,-5.6369,-5.6394,-5.5993,-5.5641,-5.5265,-5.4863,-5.4637,-5.4637,-5.5039,-5.5566,-5.5993,-5.6194,-5.6394,-5.6093,-5.4988,-5.5164,-5.5239,-5.4888,-5.4988,-5.5164,-5.5365,-5.4888,-5.431,-5.3733,-5.3206,-5.2929,-5.2929,-5.2929,-5.2929,-5.2929,-5.2377,-5.19,-5.1498,-5.0569,-4.9941,-4.959,-4.959,-4.959,-4.959,-4.959,-4.949,-4.9264,-4.8912,-4.8661,-4.841,-4.7857,-4.7431,-4.7043,-4.6903,-4.6627,-4.6301,-4.6301,-4.6301,-4.6301,-4.6301,-4.6301,-4.625,-4.5899,-4.5246,-4.4543,-4.4192,-4.3564,-4.2986,-4.2986,-4.2986,-4.2986,-4.2986,-4.2986,-4.2986,-4.2986,-4.2866,-4.2791,-4.2936,-4.2866,-4.2816,-4.2936,-4.2454,-4.1813,-4.1136,-4.0426,-3.9937,-3.9842,-3.9771,-3.9697,-3.9697,-3.9645,-3.9542,-3.9542,-3.9438,-3.9387,-3.9387,-3.9206,-3.905,-3.8998,-3.8631,-3.8473,-3.8526,-3.821,-3.808,-3.8262,-3.808,-3.7974,-3.7974,-3.7974,-3.7974,-5.2026,-5.3381,-5.4737,-5.5265,-5.5792,-5.6194,-5.6168,-5.657,-5.6646,-5.5566,-5.529,-5.4913,-5.3884,-5.3281,-5.3281,-5.4386,-5.5089,-5.5641,-5.6143,-5.6696,-5.662,-5.5516,-5.539,-5.539,-5.539,-5.4888,-5.4787,-5.5315,-5.4838,-5.426,-5.3683,-5.3206,-5.2929,-5.2929,-5.2929,-5.2929,-5.2929,-5.2352,-5.1498,-5.0368,-4.9841,-4.959,-4.959,-4.959,-4.959,-4.959,-4.9565,-4.9264,-4.8825,-4.8711,-4.836,-4.7807,-4.7305,-4.7043,-4.7029,-4.6502,-4.6301,-4.6301,-4.6301,-4.6301,-4.6301,-4.6301,-4.6301,-4.6301,-4.6301,-4.5522,-4.4618,-4.4618,-4.384,-4.2986,-4.2986,-4.2986,-4.2986,-4.2986,-4.2986,-4.2986,-4.2986,-4.259,-4.2363,-4.2836,-4.2484,-4.2283,-4.2836,-4.2207,-4.1607,-4.1324,-4.0802,-4.0345,-4.0099,-3.984,-3.9671,-3.9645,-3.9438,-3.9258,-3.9258,-3.8998,-3.8788,-3.8788,-3.8788,-3.8684,-3.8421,-3.8421,-3.8262,-3.7974,-3.7974,-3.7974,-3.7974,-3.7974,-3.7974,-3.7974,-3.7974,-3.7974,-5.303,-5.421,-5.5214,-5.5365,-5.5792,-5.6118,-5.5691,-5.5717,-5.5616,-5.4913,-5.3808,-5.3105,-5.3607,-5.3281,-5.3281,-5.4386,-5.5717,-5.652,-5.6244,-5.6696,-5.662,-5.5516,-5.539,-5.539,-5.539,-5.4888,-5.4637,-5.4762,-5.4235,-5.3683,-5.3155,-5.3005,-5.2929,-5.2929,-5.2929,-5.2929,-5.2929,-5.1975,-5.0921,-4.9791,-4.9665,-4.959,-4.959,-4.959,-4.959,-4.9565,-4.9163,-4.8912,-4.8711,-4.7883,-4.7456,-4.728,-4.6728,-4.6527,-4.6502,-4.6351,-4.6301,-4.6301,-4.6301,-4.6301,-4.6301,-4.6301,-4.6301,-4.6301,-4.6301,-4.5522,-4.4618,-4.4618,-4.384,-4.2986,-4.2986,-4.2986,-4.2986,-4.2986,-4.2986,-4.2986,-4.2986,-4.259,-4.2263,-4.2389,-4.1743,-4.138,-4.1928,-4.1706,-4.1422,-4.1533,-4.1254,-4.0734,-3.9828,-3.9689,-3.9442,-3.9099,-3.8945,-3.8945,-3.8945,-3.8841,-3.8788,-3.8788,-3.8631,-3.8473,-3.8421,-3.8185,-3.808,-3.7974,-3.7974,-3.7974,-3.7974,-3.7974,-3.7974,-3.7974,-3.7974,-3.7974,-5.421,-5.4913,-5.544,-5.5691,-5.5792,-5.5641,-5.4838,-5.4461,-5.4009,-5.2955,-5.1825,-5.1272,-5.2101,-5.1825,-5.2076,-5.3884,-5.5189,-5.6018,-5.6194,-5.6696,-5.6721,-5.5842,-5.5742,-5.5742,-5.5742,-5.5039,-5.4561,-5.4561,-5.4034,-5.3482,-5.2955,-5.2929,-5.2929,-5.2929,-5.2929,-5.2703,-5.2201,-5.1348,-5.0469,-4.959,-4.959,-4.959,-4.959,-4.959,-4.959,-4.9565,-4.9264,-4.8862,-4.836,-4.7732,-4.7205,-4.6753,-4.6426,-4.6301,-4.6301,-4.6301,-4.6301,-4.6301,-4.6301,-4.6301,-4.6301,-4.6301,-4.6301,-4.6301,-4.6301,-4.5698,-4.4945,-4.4694,-4.4016,-4.3288,-4.3037,-4.2986,-4.2986,-4.2986,-4.2986,-4.2986,-4.2793,-4.2479,-4.2082,-4.1722,-4.1404,-4.1235,-4.1312,-4.0967,-4.0898,-4.1338,-4.1112,-4.0689,-4.0001,-3.9731,-3.9378,-3.8838,-3.8684,-3.8631,-3.8631,-3.8526,-3.8473,-3.8473,-3.8315,-3.8185,-3.8185,-3.808,-3.7974,-3.7974,-3.7974,-3.7974,-3.7974,-3.7974,-3.7974,-3.7974,-3.7974,-3.7974,-5.5265,-5.544,-5.5616,-5.6093,-5.5792,-5.5064,-5.3858,-5.3206,-5.2352,-5.0645,-4.9816,-4.9615,-5.0393,-5.0067,-5.0619,-5.3356,-5.4361,-5.5114,-5.6068,-5.6696,-5.6821,-5.6269,-5.6219,-5.6219,-5.6219,-5.529,-5.4637,-5.4587,-5.4034,-5.3482,-5.2955,-5.2929,-5.2904,-5.2829,-5.2754,-5.2201,-5.1172,-5.067,-5.0142,-4.959,-4.959,-4.959,-4.959,-4.959,-4.9565,-4.949,-4.9414,-4.8786,-4.7807,-4.7732,-4.7154,-4.6301,-4.6301,-4.6301,-4.6301,-4.6301,-4.6301,-4.6301,-4.6301,-4.624,-4.624,-4.624,-4.624,-4.6301,-4.618,-4.5864,-4.5372,-4.4736,-4.4159,-4.3664,-4.3056,-4.2905,-4.2905,-4.2905,-4.293,-4.2818,-4.2594,-4.2313,-4.1873,-4.0997,-4.1166,-4.1274,-4.0696,-4.0165,-4.0079,-4.0868,-4.0643,-4.0379,-4.0306,-3.9904,-3.9394,-3.8855,-3.8522,-3.8368,-3.8368,-3.8133,-3.7974,-3.7974,-3.7974,-3.7974,-3.7974,-3.7974,-3.7974,-3.7974,-3.7974,-3.7974,-3.7974,-3.7974,-3.7974,-3.7974,-3.7974,-3.7974,-5.5365,-5.5717,-5.6093,-5.6194,-5.5792,-5.4988,-5.3432,-5.2628,-5.1774,-5.0092,-4.8912,-4.8812,-5.077,-5.067,-5.1172,-5.3959,-5.5265,-5.5993,-5.6194,-5.6696,-5.6821,-5.6269,-5.6219,-5.6219,-5.6219,-5.5616,-5.5064,-5.4587,-5.4034,-5.3482,-5.2955,-5.2929,-5.2729,-5.2251,-5.18,-5.1247,-5.0569,-5.0469,-5.0142,-4.959,-4.959,-4.959,-4.959,-4.959,-4.9339,-4.8887,-4.841,-4.7832,-4.723,-4.6778,-4.6476,-4.6301,-4.6301,-4.6301,-4.6301,-4.6301,-4.6301,-4.6301,-4.6301,-4.612,-4.5878,-4.5878,-4.6059,-4.618,-4.5635,-4.5505,-4.5313,-4.4527,-4.4069,-4.3607,-4.2775,-4.2569,-4.2569,-4.2569,-4.2425,-4.2312,-4.2457,-4.209,-4.1544,-4.0671,-4.0247,-3.9947,-3.9545,-3.9201,-3.9207,-3.9777,-4.0186,-4.0234,-3.9801,-3.964,-3.9382,-3.8851,-3.8369,-3.808,-3.808,-3.8027,-3.7974,-3.7974,-3.7974,-3.7974,-3.7974,-3.7974,-3.7974,-3.7974,-3.7974,-3.7974,-3.7974,-3.7974,-3.7974,-3.7974,-3.7974,-3.7974,-5.5817,-5.6018,-5.6219,-5.6219,-5.5792,-5.4813,-5.2578,-5.1624,-5.0594,-4.8335,-4.7456,-4.7581,-4.9213,-4.9289,-4.9841,-5.2051,-5.2854,-5.3582,-5.4737,-5.5139,-5.5516,-5.6143,-5.6219,-5.6219,-5.6219,-5.544,-5.4863,-5.4658,-5.3783,-5.3181,-5.2929,-5.2653,-5.2377,-5.2126,-5.1272,-5.0695,-5.0419,-5.0117,-4.9866,-4.959,-4.959,-4.959,-4.959,-4.959,-4.9289,-4.8761,-4.8485,-4.7883,-4.7043,-4.6853,-4.6577,-4.6301,-4.6301,-4.6301,-4.6301,-4.6301,-4.6301,-4.624,-4.612,-4.5939,-4.5757,-4.5392,-4.5514,-4.5696,-4.5392,-4.5341,-4.5186,-4.419,-4.3862,-4.3524,-4.2535,-4.2312,-4.2312,-4.2312,-4.2086,-4.1915,-4.2199,-4.1921,-4.1464,-4.0758,-4.022,-3.9745,-3.9473,-3.8851,-3.8671,-3.9489,-3.9826,-3.9994,-4.0018,-4.0018,-3.9801,-3.9272,-3.8743,-3.8407,-3.8407,-3.8142,-3.8094,-3.8407,-3.8142,-3.8118,-3.8407,-3.8142,-3.7974,-3.7974,-3.7974,-3.7974,-3.7974,-3.7974,-3.7974,-3.7974,-3.7974,-3.7974,-5.6219,-5.6294,-5.6369,-5.6244,-5.5792,-5.4662,-5.19,-5.082,-4.964,-4.6878,-4.6301,-4.6627,-4.7707,-4.7908,-4.846,-5.0142,-5.0519,-5.1322,-5.3406,-5.3808,-5.4461,-5.6018,-5.6219,-5.6168,-5.6043,-5.5239,-5.4637,-5.4411,-5.3482,-5.2879,-5.2754,-5.2226,-5.1875,-5.1749,-5.077,-5.0243,-5.0243,-4.9816,-4.959,-4.959,-4.959,-4.959,-4.959,-4.9464,-4.9113,-4.8586,-4.846,-4.7857,-4.6892,-4.6831,-4.6642,-4.6301,-4.612,-4.618,-4.6301,-4.624,-4.618,-4.612,-4.5878,-4.5696,-4.5514,-4.4963,-4.5025,-4.527,-4.5147,-4.5208,-4.5049,-4.3909,-4.3649,-4.3462,-4.2266,-4.1972,-4.1972,-4.194,-4.1745,-4.1688,-4.2005,-4.1818,-4.1485,-4.1015,-4.0481,-4.0013,-3.952,-3.8719,-3.8407,-3.9152,-3.9369,-3.9585,-3.9994,-4.0162,-4.0114,-3.9801,-3.9296,-3.8984,-3.8984,-3.8575,-3.8527,-3.896,-3.8575,-3.8527,-3.896,-3.8575,-3.8334,-3.8334,-3.8334,-3.8334,-3.8334,-3.8334,-3.8334,-3.8334,-3.8334,-3.8334,-5.6219,-5.657,-5.6846,-5.6344,-5.5792,-5.4662,-5.19,-5.082,-4.964,-4.6878,-4.6301,-4.6627,-4.7707,-4.7908,-4.846,-5.0142,-5.087,-5.18,-5.3457,-5.416,-5.4913,-5.6068,-5.6219,-5.6018,-5.5516,-5.5365,-5.4888,-5.3858,-5.3256,-5.2703,-5.2201,-5.1649,-5.1122,-5.0594,-4.9992,-4.9665,-4.9665,-4.9615,-4.959,-4.959,-4.959,-4.959,-4.9565,-4.9088,-4.8535,-4.7958,-4.7481,-4.6954,-4.6316,-4.6074,-4.6049,-4.624,-4.5635,-4.5757,-4.624,-4.5939,-4.5817,-4.5817,-4.5817,-4.5392,-4.4902,-4.484,-4.5025,-4.5208,-4.4594,-4.484,-4.4988,-4.3611,-4.3472,-4.3404,-4.2013,-4.1663,-4.1606,-4.1344,-4.1459,-4.1695,-4.1972,-4.1798,-4.1525,-4.1239,-4.0951,-4.0328,-3.911,-3.8815,-3.8599,-3.819,-3.8551,-3.8912,-3.896,-3.9393,-3.985,-4.0282,-3.985,-3.9537,-3.9537,-3.9489,-3.9489,-3.9537,-3.9489,-3.9489,-3.9537,-3.9489,-3.9465,-3.9465,-3.9465,-3.9465,-3.9465,-3.9465,-3.9465,-3.9465,-3.9465,-3.9465,-5.5541,-5.6118,-5.6495,-5.6269,-5.6043,-5.5089,-5.1975,-5.1096,-5.0067,-4.6954,-4.6301,-4.6426,-4.6878,-4.6954,-4.7179,-4.7832,-4.8134,-4.9088,-5.1398,-5.1925,-5.298,-5.5415,-5.5415,-5.5265,-5.539,-5.4762,-5.4059,-5.3306,-5.3055,-5.2678,-5.2126,-5.1574,-5.1172,-5.0946,-5.0067,-4.959,-4.959,-4.959,-4.959,-4.959,-4.959,-4.9414,-4.9088,-4.8862,-4.8284,-4.7431,-4.723,-4.6706,-4.5999,-4.5878,-4.5757,-4.5696,-4.5392,-4.5574,-4.5999,-4.5817,-4.5817,-4.5757,-4.5574,-4.5208,-4.4779,-4.4532,-4.4594,-4.4656,-4.4409,-4.447,-4.4438,-4.3312,-4.3057,-4.2874,-4.1668,-4.1344,-4.1344,-4.123,-4.1287,-4.1393,-4.1519,-4.1432,-4.1344,-4.123,-4.0853,-4.0371,-3.985,-3.9248,-3.8743,-3.8527,-3.8671,-3.8815,-3.8815,-3.9272,-3.9681,-3.9898,-3.9729,-3.9729,-4.0042,-3.9801,-3.9753,-4.0066,-3.9777,-3.9753,-4.0066,-3.9777,-3.9609,-3.9609,-3.9609,-3.9609,-3.9609,-3.9609,-3.9609,-3.9609,-3.9609,-3.9609,-5.5315,-5.6168,-5.6671,-5.6495,-5.6093,-5.4988,-5.2176,-5.1147,-4.9941,-4.6928,-4.6301,-4.6301,-4.6301,-4.6301,-4.6301,-4.6301,-4.6728,-4.7732,-4.9665,-5.0368,-5.1548,-5.3909,-5.3984,-5.3984,-5.4386,-5.3833,-5.3331,-5.2955,-5.2929,-5.2678,-5.2126,-5.1574,-5.1197,-5.1021,-5.0092,-4.959,-4.959,-4.959,-4.959,-4.959,-4.9439,-4.9163,-4.8761,-4.8435,-4.7857,-4.7068,-4.6831,-4.6373,-4.5757,-4.5574,-4.5453,-4.527,-4.5208,-4.5392,-4.5635,-4.5635,-4.5574,-4.5453,-4.5208,-4.4963,-4.4594,-4.4409,-4.4285,-4.4285,-4.4285,-4.4165,-4.3914,-4.3,-4.2602,-4.211,-4.1389,-4.1172,-4.1172,-4.1172,-4.1172,-4.1172,-4.1172,-4.1172,-4.1172,-4.1172,-4.0884,-4.0571,-4.0427,-3.9777,-3.9176,-3.8864,-3.8815,-3.8767,-3.8599,-3.8888,-3.92,-3.9369,-3.9513,-3.9826,-4.0355,-4.0186,-4.0234,-4.0595,-4.0282,-4.0234,-4.0619,-4.0258,-4.0066,-4.0066,-4.0066,-4.0066,-4.0066,-4.0066,-4.0066,-4.0066,-4.0066,-3.9994,-5.5917,-5.7022,-5.775,-5.7173,-5.5792,-5.4135,-5.2477,-5.082,-4.8987,-4.6778,-4.6301,-4.6301,-4.6301,-4.6301,-4.6301,-4.6301,-4.7682,-4.8761,-4.8786,-5.0218,-5.1272,-5.1322,-5.18,-5.2126,-5.2126,-5.2628,-5.2929,-5.2929,-5.2929,-5.2678,-5.2126,-5.1574,-5.1021,-5.0444,-4.9891,-4.959,-4.959,-4.959,-4.959,-4.959,-4.9038,-4.8786,-4.8736,-4.7631,-4.7093,-4.7043,-4.6188,-4.5817,-4.5757,-4.5086,-4.5025,-4.527,-4.4963,-4.5025,-4.5331,-4.5331,-4.5086,-4.484,-4.484,-4.4594,-4.4285,-4.4285,-4.4285,-4.4285,-4.4285,-4.3962,-4.3409,-4.2904,-4.2073,-4.1196,-4.1172,-4.1172,-4.1172,-4.1172,-4.1172,-4.1172,-4.1172,-4.1172,-4.1172,-4.1172,-4.1172,-4.1004,-4.0475,-4.0379,-4.0018,-3.8984,-3.8815,-3.8623,-3.807,-3.7998,-3.8214,-3.8767,-3.9296,-3.9826,-4.0355,-4.086,-4.1172,-4.1172,-4.1172,-4.1172,-4.1172,-4.1172,-4.1172,-4.1172,-4.1172,-4.1172,-4.1172,-4.1172,-4.1172,-4.1172,-4.1172,-4.0884,-5.2051,-5.3356,-5.4361,-5.3808,-5.3281,-5.2452,-5.077,-4.969,-4.851,-4.6677,-4.6301,-4.6301,-4.6301,-4.6301,-4.6426,-4.6803,-4.7305,-4.7908,-4.8661,-4.9565,-5.0419,-5.1197,-5.2101,-5.2678,-5.2678,-5.2829,-5.2929,-5.2929,-5.2578,-5.2277,-5.2126,-5.1197,-5.0619,-5.0419,-4.9891,-4.959,-4.959,-4.959,-4.9414,-4.9038,-4.8862,-4.8385,-4.7631,-4.728,-4.6928,-4.6491,-4.6013,-4.5696,-4.5453,-4.4963,-4.4717,-4.4594,-4.447,-4.4656,-4.4963,-4.4963,-4.4902,-4.4779,-4.4779,-4.4594,-4.4285,-4.4285,-4.4285,-4.4213,-4.389,-4.3649,-4.3337,-4.2471,-4.1725,-4.1172,-4.1172,-4.1172,-4.1172,-4.1172,-4.1172,-4.1172,-4.1172,-4.1172,-4.1172,-4.1172,-4.1172,-4.1124,-4.0956,-4.0643,-4.0282,-3.9946,-3.9272,-3.8767,-3.8575,-3.8214,-3.8046,-3.8238,-3.9056,-3.9826,-4.0355,-4.0884,-4.1172,-4.1172,-4.1172,-4.1172,-4.1172,-4.1172,-4.1172,-4.1172,-4.1172,-4.1172,-4.1172,-4.1172,-4.1172,-4.1172,-4.0812,-4.0547,-5.0619,-5.1975,-5.2854,-5.2503,-5.195,-5.1147,-4.9866,-4.8837,-4.7807,-4.6577,-4.6301,-4.6301,-4.6301,-4.6301,-4.6426,-4.6753,-4.7355,-4.7782,-4.7832,-4.8862,-4.9866,-5.0569,-5.1247,-5.1925,-5.2553,-5.2804,-5.2854,-5.2628,-5.2302,-5.1925,-5.1498,-5.0795,-5.0318,-5.0117,-4.9766,-4.959,-4.959,-4.9389,-4.9113,-4.8761,-4.836,-4.7807,-4.7068,-4.6928,-4.6627,-4.624,-4.5817,-4.5514,0.0,-4.4779,-4.447,-4.4285,-4.4409,-4.4532,-4.4656,-4.4779,-4.4717,-4.4594,-4.4594,-4.447,-4.4285,-4.4285,-4.4141,-4.3938,-4.3385,-4.3096,-4.276,-4.1918,-4.1437,-4.1172,-4.1172,-4.1172,-4.1172,-4.1172,-4.1172,-4.1172,-4.1172,-4.1172,-4.1172,-4.1172,-4.1172,-4.1244,-4.1437,-4.1052,-4.0691,-4.0691,-3.997,-3.9345,-3.9152,-3.8815,-3.8527,-3.831,-3.908,-3.9753,-4.0066,-4.0763,-4.1172,-4.1172,-4.1172,-4.1172,-4.1172,-4.1172,-4.1172,-4.1172,-4.1172,-4.1172,-4.1172,-4.1172,-4.1172,-4.1172,-4.0643,-4.0282,0.0,-5.2151,-5.2553,-5.2528,-5.1348,-5.0042,-4.954,-4.8209,0.0,-4.6426,-4.6301,-4.6301,-4.625,-4.6276,-4.6301,-4.6301,-4.7631,-4.8109,-4.6577,-4.8209,-4.959,-4.9715,-4.9741,-5.0393,-5.2,-5.2578,-5.2653,-5.2151,-5.2026,-5.1523,-5.0469,-5.0368,-5.0117,-4.9615,-4.959,-4.959,-4.959,-4.9063,-4.8761,-4.8686,-4.7631,-4.7043,-4.7054,-4.6552,-4.6301,-4.624,-4.5574,-4.5331,-4.527,-4.4594,-4.4285,-4.4347,-4.4656,-4.4594,-4.4347,-4.4656,-4.4594,-4.4285,-4.4285,-4.4285,-4.4285,-4.4285,-4.3877,-4.3361,-4.2904,-4.2458,-4.187,-4.1341,-4.1172,-4.1172,-4.1172,-4.1172,-4.1172,-4.1172,-4.1172,-4.1172,-4.1172,-4.1172,-4.1172,-4.1172,-4.1172,-4.1341,-4.1928,-4.1533,-4.1196,-4.122,-4.0763,-4.021,-3.9729,-3.9633,-3.9417,-3.8936,-3.9345,-3.9657,-3.9657,-4.0571,-4.1148,-4.1172,-4.1172,-4.1172,-4.1172,-4.1172,-4.1172,-4.1172,-4.1172,-4.1172,-4.1172,-4.1172,-4.1172,-4.1172,-4.0643,-4.0138,-4.7983,0.0,-4.8987,-4.8586,-4.8209,-4.782,0.0,-4.7079,-4.6476,-4.6326,-4.6301,-4.6175,-4.5748,-4.6024,-4.6301,-4.6301,-4.6979,-4.738,-4.7004,-4.8109,-4.9439,-5.0745,-5.1247,-5.1825,-5.2653,-5.2477,-5.2251,-5.2126,-5.1297,-5.0695,-5.0444,-5.0017,-4.9715,-4.959,-4.959,-4.959,-4.959,-4.9063,-4.856,-4.8109,-4.7431,-4.6903,-4.6502,-4.6376,-4.6301,-4.624,-4.5574,-4.5331,-4.527,-4.4594,-4.4285,-4.4285,-4.4409,-4.4347,-4.4285,-4.4409,-4.4347,-4.4285,-4.4285,-4.4285,-4.4285,-4.4285,-4.3697,-4.2904,-4.2867,-4.2458,-4.187,-4.1341,-4.1172,-4.1172,-4.1172,-4.1172,-4.1172,-4.1172,-4.1172,-4.1172,-4.1172,-4.1172,-4.1172,-4.1172,-4.1172,-4.1341,-4.1928,-4.1533,-4.1317,-4.1725,-4.1004,-4.0355,-4.0234,-3.985,-3.9561,-3.9441,-3.9898,-4.021,-4.021,-4.0427,-4.0739,-4.1148,-4.1172,-4.1172,-4.1172,-4.1172,-4.1172,-4.1172,-4.1172,-4.1172,-4.1172,-4.1172,-4.1172,-4.1172,-4.0643,-4.0331,-4.6677,-4.733,-4.7832,-4.7556,-4.7481,-4.7431,-4.7179,-4.6702,-4.6301,-4.6301,-4.6301,-4.615,-4.5598,-4.5723,-4.5849,-4.5573,-4.6225,-4.7029,-4.7782,-4.8159,-4.9088,-5.1046,-5.1548,-5.195,-5.2503,-5.2277,-5.1875,-5.1373,-5.077,-5.0318,-5.0067,-4.9766,-4.959,-4.959,-4.9339,-4.9213,-4.9213,-4.8661,-4.8109,-4.7556,-4.7004,-4.6602,-4.6301,-4.6301,-4.6301,-4.624,-4.5757,-4.5453,-4.527,-4.4717,-4.4409,-4.4285,-4.4285,-4.4285,-4.4285,-4.4285,-4.4285,-4.4285,-4.4285,-4.4285,-4.4237,-4.3997,-4.3409,-4.2771,-4.253,-4.2097,-4.1557,-4.1268,-4.1172,-4.1172,-4.1172,-4.1172,-4.1172,-4.1172,-4.1172,-4.1172,-4.1172,-4.1172,-4.1172,-4.1172,-4.1172,-4.1341,-4.1928,-4.1533,-4.1365,-4.1894,-4.1268,-4.0763,-4.0763,-4.0499,-4.0234,-3.9994,-4.0234,-4.0499,-4.0739,-4.0763,-4.0884,-4.1172,-4.1172,-4.1172,-4.1172,-4.1172,-4.1172,-4.1172,-4.1172,-4.1172,-4.1172,-4.1172,-4.1172,-4.1172,-4.0643,-4.0403,-4.6301,-4.7079,-4.7857,-4.7707,-4.7732,-4.7657,-4.7129,-4.6652,-4.6301,-4.6301,-4.6301,-4.6125,-4.5472,-4.5497,-4.5422,-4.4844,-4.5773,-4.7079,-4.856,-4.8485,-4.9012,-5.0921,-5.1297,-5.1548,-5.195,-5.19,-5.1448,-5.0494,-5.0343,-5.0092,-4.9615,-4.959,-4.959,-4.959,-4.9063,-4.8736,-4.8636,-4.8083,-4.7581,-4.7068,-4.6577,-4.6301,-4.6301,-4.6301,-4.6301,-4.6301,-4.5939,-4.5635,-4.527,-4.4963,-4.4594,-4.4285,-4.4285,-4.4285,-4.4285,-4.4285,-4.4285,-4.4285,-4.4285,-4.4285,-4.4213,-4.3794,-4.3241,-4.2747,-4.2289,-4.1677,-4.1172,-4.1172,-4.1172,-4.1172,-4.1172,-4.1172,-4.1172,-4.1172,-4.1172,-4.1172,-4.1172,-4.1172,-4.1172,-4.1172,-4.1172,-4.1341,-4.1928,-4.1533,-4.1365,-4.1894,-4.1533,-4.1172,-4.1172,-4.1172,-4.1004,-4.0571,-4.0595,-4.0812,-4.1268,-4.1389,-4.1437,-4.1437,-4.1437,-4.1437,-4.1437,-4.1341,-4.1341,-4.1413,-4.1341,-4.1341,-4.1437,-4.1437,-4.1437,-4.1413,-4.0956,-4.0763,-4.6301,-4.7079,-4.7682,-4.6778,-4.6903,-4.7043,-4.6552,-4.6376,-4.6301,-4.6301,-4.6301,-4.5999,-4.4945,-4.5547,-4.5999,-4.5447,-4.6652,-4.7933,-4.8661,-4.949,-5.0167,-5.0519,-5.1398,-5.1825,-5.1448,-5.0971,-5.0594,-5.0444,-4.9992,-4.969,-4.959,-4.959,-4.959,-4.959,-4.9063,-4.8535,-4.8033,-4.7506,-4.7143,-4.7068,-4.6577,-4.6301,-4.6301,-4.6301,-4.6301,-4.6301,-4.5939,-4.5635,-4.527,-4.4963,-4.4594,-4.4285,-4.4285,-4.4285,-4.4285,-4.4285,-4.4285,-4.4285,-4.4285,-4.4285,-4.4261,-4.4189,-4.3553,-4.2795,-4.2723,-4.2024,-4.1172,-4.1172,-4.1172,-4.1172,-4.1172,-4.1172,-4.1172,-4.1172,-4.1172,-4.1172,-4.1172,-4.1172,-4.1172,-4.1172,-4.1172,-4.1341,-4.1928,-4.1533,-4.1365,-4.1894,-4.1533,-4.1172,-4.1172,-4.1172,-4.1148,-4.1076,-4.1461,-4.1749,-4.1846,-4.2254,-4.2578,-4.2578,-4.2578,-4.2578,-4.2578,-4.2145,-4.2121,-4.2578,-4.2086,-4.2062,-4.2578,-4.2578,-4.2578,-4.2578,-4.2506,-4.2458,-4.6301,-4.6878,-4.7369,-4.7009,-4.7195,-4.7481,-4.723,-4.6728,-4.6225,-4.5924,-4.5874,-4.5623,-4.4769,-4.5296,-4.5974,-4.6326,-4.7004,-4.7883,-4.9063,-4.9665,-5.0193,-5.082,-5.1348,-5.1448,-5.087,-5.0569,-5.0293,-4.9992,-4.9741,-4.959,-4.959,-4.959,-4.9464,-4.9163,-4.8611,-4.8033,-4.7481,-4.6954,-4.6702,-4.6677,-4.6426,-4.6301,-4.6301,-4.6301,-4.6301,-4.6301,-4.612,-4.5757,-4.527,-4.5147,-4.4779,-4.4285,-4.4285,-4.4285,-4.4285,-4.4285,-4.4285,-4.4285,-4.4285,-4.4285,-4.4237,-4.3925,-4.3385,-4.2771,-4.2482,-4.1798,-4.1172,-4.1172,-4.1172,-4.1172,-4.1172,-4.1172,-4.1172,-4.1172,-4.1172,-4.1172,-4.1172,-4.1172,-4.1172,-4.1172,-4.1172,-4.1268,-4.1509,-4.1341,-4.1268,-4.1509,-4.1341,-4.1172,-4.1172,-4.1172,-4.1172,-4.1172,-4.1413,-4.1677,-4.2,-4.2265,-4.2506,-4.2795,-4.2819,-4.2819,-4.2819,-4.2578,-4.2578,-4.2819,-4.2578,-4.2578,-4.2819,-4.2819,-4.2819,-4.2819,-4.2819,-4.2819,-4.6215,-4.6581,-4.6947,-4.7308,-4.762,-4.7858,-4.8109,-4.7457,-4.6656,-4.6351,-4.615,-4.5849,-4.5146,-4.5497,-4.6175,-4.7154,-4.7531,-4.8159,-4.9414,-4.9715,-5.0067,-5.0795,-5.0996,-5.0845,-5.0268,-5.0218,-5.0042,-4.9615,-4.959,-4.959,-4.959,-4.9464,-4.9213,-4.8786,-4.8083,-4.7531,-4.7068,-4.6602,-4.6301,-4.6301,-4.6301,-4.6301,-4.6301,-4.6301,-4.6301,-4.6301,-4.618,-4.5817,-4.527,-4.5208,-4.484,-4.4285,-4.4285,-4.4285,-4.4285,-4.4285,-4.4285,-4.4285,-4.4285,-4.4285,-4.4213,-4.3842,-4.3361,-4.2832,-4.2386,-4.187,-4.1533,-4.1413,-4.1365,-4.1341,-4.122,-4.1172,-4.1172,-4.1172,-4.1172,-4.1172,-4.1172,-4.1172,-4.1172,-4.1172,-4.1172,-4.1172,-4.1172,-4.1172,-4.1172,-4.1172,-4.1172,-4.1172,-4.1172,-4.1172,-4.1172,-4.1172,-4.1293,-4.1581,-4.211,-4.2254,-4.2376,-4.2483,-4.2928,-4.312,-4.312,-4.3,-4.3,-4.312,-4.3,-4.3,-4.312,-4.312,-4.312,-4.312,-4.312,-4.312,-4.6055,-4.6251,-4.634,-4.7183,-4.7457,-4.7706,-4.866,-4.8526,-4.823,-4.8497,-4.8109,-4.7431,-4.6376,-4.6652,-4.7205,-4.7757,-4.8736,-4.9464,-4.9565,-5.0042,-5.0193,-4.9766,-5.0167,-5.0268,-4.9715,-4.9665,-4.964,-4.959,-4.959,-4.959,-4.959,-4.9113,-4.8812,-4.8761,-4.7732,-4.7179,-4.7068,-4.6602,-4.6301,-4.6301,-4.6301,-4.6301,-4.6301,-4.6301,-4.6301,-4.6301,-4.5939,-4.5635,-4.527,-4.4963,-4.4594,-4.4285,-4.4285,-4.4285,-4.4285,-4.4285,-4.4285,-4.4285,-4.4285,-4.4285,-4.4285,-4.4237,-4.3853,-4.3361,-4.2916,-4.2747,-4.2602,-4.2062,-4.1918,-4.1798,-4.1317,-4.1172,-4.1172,-4.1172,-4.1172,-4.1172,-4.1172,-4.1172,-4.1172,-4.1172,-4.1172,-4.1172,-4.1172,-4.1172,-4.1172,-4.1172,-4.1172,-4.1172,-4.1172,-4.1172,-4.1172,-4.1172,-4.1629,-4.2193,-4.2723,-4.312,-4.2861,-4.1692,-4.3236,-4.4165,-4.4165,-4.3721,-4.3697,-4.4165,-4.3721,-4.3697,-4.4165,-4.4165,-4.4165,-4.4165,-4.4165,-4.4165,-4.539,-4.5324,-4.538,-4.6508,-4.6763,-4.7096,-4.837,-4.8263,-4.7957,-4.8061,-4.7805,-4.7458,-4.6892,-4.7255,-4.7807,-4.836,-4.9088,-4.9715,-5.0067,-4.9992,-4.9967,-5.0092,-4.9992,-4.9816,-4.9615,-4.959,-4.959,-4.959,-4.959,-4.959,-4.959,-4.9063,-4.8611,-4.8234,-4.7531,-4.6979,-4.6627,-4.6426,-4.6301,-4.6301,-4.6301,-4.6301,-4.6301,-4.6301,-4.618,-4.5999,-4.5878,-4.5514,-4.4963,-4.484,-4.4594,-4.4285,-4.4285,-4.4285,-4.4285,-4.4285,-4.4285,-4.4285,-4.4285,-4.4285,-4.4285,-4.4285,-4.3962,-4.3481,-4.3289,-4.3,-4.2771,-4.2578,-4.253,-4.241,-4.1822,-4.1437,-4.1172,-4.1172,-4.1172,-4.1172,-4.1172,-4.1172,-4.1172,-4.1172,-4.1172,-4.1172,-4.1172,-4.1172,-4.1172,-4.1172,-4.1172,-4.1172,-4.1172,-4.1172,-4.1172,-4.1172,-4.1365,-4.1557,-4.1749,-4.2567,-4.2868,-4.236,-4.2527,-4.2763,-4.3051,-4.2295,-4.2617,-4.4261,-4.3481,-4.3481,-4.4285,-4.401,-4.3949,-4.4285,-4.4285,-4.4285,-4.4829,-4.4432,-4.4317,-4.5764,-4.6051,-4.6366,-4.7865,-4.8264,-4.8396,-4.8461,-4.7942,-4.7455,-4.7334,-4.7433,-4.7795,-4.8369,-4.9046,-4.9586,-4.9896,-4.9751,-4.9741,-5.0117,-4.9816,-4.959,-4.959,-4.959,-4.959,-4.959,-4.959,-4.9515,-4.9339,-4.8812,-4.8234,-4.7682,-4.7154,-4.6702,-4.6301,-4.6301,-4.6301,-4.6301,-4.6301,-4.6301,-4.6301,-4.618,-4.5999,-4.5817,-4.5696,-4.5331,-4.4779,-4.4779,-4.4594,-4.4285,-4.4285,-4.4285,-4.4285,-4.4285,-4.4285,-4.4285,-4.4285,-4.4285,-4.4285,-4.4285,-4.4021,-4.3746,-4.3553,-4.3265,-4.2952,-4.2867,-4.2699,-4.2482,-4.2121,-4.1701,-4.1389,-4.122,-4.1172,-4.1172,-4.1172,-4.1172,-4.1172,-4.1172,-4.1172,-4.1172,-4.1172,-4.1172,-4.1172,-4.1172,-4.1172,-4.1172,-4.1172,-4.1172,-4.1172,-4.1172,-4.1172,-4.1172,-4.1172,-4.2158,-4.2568,-4.1899,-4.1145,-4.1154,-4.2017,-4.1253,-4.1453,-4.2794,-4.2093,-4.2371,-4.3639,-4.3322,-4.3531,-4.4285,-4.4285,-4.4285,-4.4323,-4.366,-4.3265,-4.5105,-4.5329,-4.5549,-4.7136,-4.8608,-4.9791,-5.0155,-4.8829,-4.77,-4.77,-4.7258,-4.7062,-4.7602,-4.8441,-4.9072,-4.9072,-4.9396,-4.959,-4.959,-4.959,-4.959,-4.959,-4.959,-4.959,-4.959,-4.959,-4.9339,-4.8812,-4.8209,-4.7657,-4.7093,-4.6602,-4.6301,-4.6301,-4.6301,-4.6301,-4.6301,-4.6301,-4.6301,-4.6301,-4.5939,-4.5817,-4.5757,-4.5453,-4.5086,-4.4779,-4.4779,-4.4594,-4.4285,-4.4285,-4.4285,-4.4285,-4.4285,-4.4285,-4.4285,-4.4285,-4.4285,-4.4285,-4.4285,-4.4285,-4.4189,-4.3673,-4.3505,-4.3409,-4.2904,-4.2434,-4.199,-4.1966,-4.1966,-4.1846,-4.1317,-4.1172,-4.1172,-4.1172,-4.1172,-4.1172,-4.1172,-4.1172,-4.1172,-4.1172,-4.1172,-4.1172,-4.1172,-4.1196,-4.1196,-4.1196,-4.1196,-4.1196,-4.1196,-4.1196,-4.1196,-4.1196,-4.2217,-4.1959,-4.002,-3.9271,-3.9699,-4.1506,-4.1046,-4.0344,-3.9535,-3.9491,-4.0393,-4.2293,-4.2293,-4.2988,-4.4285,-4.4285,-4.4285,-4.3105,-4.2947,-4.3108,-4.4336,-4.5203,-4.6102,-4.769,-4.8715,-4.9479,-5.0186,-4.9352,-4.8443,-4.8314,-4.7798,-4.7504,-4.7651,-4.8272,-4.8772,-4.8772,-4.9007,-4.9267,-4.9267,-4.9461,-4.959,-4.959,-4.959,-4.959,-4.959,-4.9238,-4.8937,-4.8786,-4.7883,-4.728,-4.7093,-4.6602,-4.6301,-4.6301,-4.6301,-4.6301,-4.6301,-4.6301,-4.6301,-4.6301,-4.5939,-4.5696,-4.5453,-4.5086,-4.4779,-4.447,-4.447,-4.4409,-4.4285,-4.4285,-4.4285,-4.4285,-4.4285,-4.4285,-4.4285,-4.4285,-4.4285,-4.4285,-4.4285,-4.4285,-4.4189,-4.3673,-4.3505,-4.3409,-4.2904,-4.2699,-4.2506,-4.2121,-4.1966,-4.1846,-4.1317,-4.1172,-4.1172,-4.1172,-4.1172,-4.1172,-4.1172,-4.1172,-4.1172,-4.1172,-4.1172,-4.1172,-4.1172,-4.1509,-4.187,-4.2313,-4.2362,-4.2362,-4.2362,-4.2362,-4.2362,-4.2362,-4.2651,-4.2568,-4.1959,-4.1387,-4.0615,-3.9592,-3.8155,-3.8097,-3.9491,-3.91,-3.9531,-4.0839,-4.042,-4.1144,-4.2862,-4.2862,-4.3389,-4.3006,-4.3156,-4.3649,-4.4708,-4.5597,-4.6704,-4.8507,-4.9157,-4.9562,-5.0084,-4.9354,-4.8597,-4.8457,-4.78,-4.7361,-4.758,-4.8028,-4.8379,-4.8379,-4.8706,-4.8902,-4.8902,-4.9202,-4.9396,-4.9396,-4.9525,-4.9515,-4.9289,-4.8962,-4.8586,-4.8134,-4.7481,-4.6968,-4.6803,-4.6476,-4.6301,-4.6301,-4.6301,-4.6301,-4.6301,-4.6301,-4.6301,-4.6301,-4.5817,-4.5514,-4.527,-4.4779,-4.4532,-4.447,-4.4347,-4.4285,-4.4285,-4.4285,-4.4285,-4.4285,-4.4285,-4.4285,-4.4285,-4.4285,-4.4285,-4.4285,-4.4285,-4.4141,-4.3901,-4.3601,-4.3216,-4.2832,-4.2543,-4.2362,-4.2003,-4.1117,-4.128,-4.1581,-4.1268,-4.1172,-4.1172,-4.1172,-4.1172,-4.1172,-4.1172,-4.1172,-4.1172,-4.1172,-4.1172,-4.1172,-4.1172,-4.1629,-4.2145,-4.2458,-4.2699,-4.2819,-4.2819,-4.2819,-4.2819,-4.2819,-4.2952,-4.2976,-4.2843,-4.2221,-4.1126,-3.9578,-3.7579,-3.6876,-3.7611,-3.7231,-3.7719,-3.9151,-3.8958,-3.9992,-4.2034,-4.167,-4.2206,-4.3639,-4.3853,-4.4597,-4.5669,-4.6439,-4.7359,-4.9139,-4.9712,-4.9878,-4.9878,-4.8944,-4.8088,-4.8088,-4.7117,-4.6526,-4.7003,-4.7473,-4.7738,-4.7738,-4.8248,-4.8535,-4.8535,-4.8837,-4.9072,-4.9072,-4.9346,-4.9314,-4.8812,-4.8686,-4.8184,-4.7179,-4.7018,-4.6828,-4.6326,-4.6301,-4.6301,-4.6301,-4.6301,-4.6301,-4.6301,-4.6301,-4.6301,-4.624,-4.5635,-4.527,-4.5147,-4.4532,-4.447,-4.4717,-4.4409,-4.4285,-4.4285,-4.4285,-4.4285,-4.4285,-4.4285,-4.4285,-4.4285,-4.4285,-4.4261,-4.4213,-4.4213,-4.389,-4.3433,-4.3385,-4.2711,-4.1966,-4.1918,-4.1499,-4.0745,-3.9533,-4.0024,-4.0884,-4.1,-4.1115,-4.1172,-4.1172,-4.1172,-4.1172,-4.1172,-4.1172,-4.1172,-4.1172,-4.1172,-4.122,-4.1317,-4.1725,-4.2086,-4.2182,-4.2675,-4.2964,-4.2964,-4.2964,-4.2964,-4.2964,-4.3289,-4.3313,-4.2916,-4.2136,-4.1461,-4.0816,-3.8675,-3.6726,-3.5185,-3.5048,-3.5856,-3.7574,-3.779,-3.9042,-4.1246,-4.0425,-4.0775,-4.3107,-4.3914,-4.5053,-4.5766,-4.7257,-4.8284,-4.7188,-4.8469,-4.9878,-4.9878,-4.8163,-4.6587,-4.6587,-4.5028,-4.382,-4.3978,-4.5051,-4.5887,-4.5887,-4.7208,-4.8092,-4.8092,-4.8445,-4.8837,-4.9072,-4.8764,-4.8657,-4.8786,-4.7983,-4.738,-4.7093,-4.6728,-4.6426,-4.6301,-4.6301,-4.6301,-4.6301,-4.6301,-4.6301,-4.6301,-4.6301,-4.6301,-4.624,-4.5635,-4.5025,-4.4532,-4.4347,-4.4347,-4.4409,-4.4347,-4.4285,-4.4285,-4.4285,-4.4285,-4.4285,-4.4285,-4.4285,-4.4285,-4.4285,-4.3997,-4.3697,-4.3697,-4.3337,-4.2856,-4.2423,-4.2158,-4.1894,-4.1461,-4.0526,-3.9592,-3.9275,-3.8684,-3.8387,-3.9416,-4.0455,-4.1172,-4.1172,-4.1172,-4.1172,-4.1172,-4.1172,-4.1172,-4.1172,-4.1172,-4.1461,-4.2362,-4.2578,-4.288,-4.3721,-4.3938,-4.401,-4.401,-4.401,-4.401,-4.401,-4.3697,-4.3457,-4.3361,-4.2831,-4.205,-4.0854,-3.9655,-3.8825,-3.8509,-3.7743,-3.7529,-3.7964,-3.6951,-3.7266,-3.8866,-3.8642,-3.9299,-4.3747,-4.4615,-4.5766,-4.68,-4.7882,-4.8471,-4.774,-4.8389,-4.9109,-4.9109,-4.7534,-4.6013,-4.5783,-4.4249,-4.3032,-4.3032,-4.3656,-4.423,-4.423,-4.5685,-4.6717,-4.6717,-4.7696,-4.8379,-4.8551,-4.8407,-4.8242,-4.8158,-4.7482,-4.7029,-4.6753,-4.6476,-4.6301,-4.6301,-4.6301,-4.6301,-4.6301,-4.6301,-4.6301,-4.6301,-4.6301,-4.612,-4.5817,-4.5453,-4.4963,-4.4285,-4.4285,-4.4285,-4.4285,-4.4285,-4.4285,-4.4285,-4.4285,-4.4285,-4.4285,-4.4285,-4.4117,-4.3938,-4.3938,-4.3601,-4.3144,-4.3144,-4.2808,-4.2327,-4.2062,-4.1798,-4.1533,-4.1268,-4.0199,-3.9039,-3.8447,-3.779,-3.7309,-3.7369,-3.8862,-4.0455,-4.1057,-4.1172,-4.1172,-4.1172,-4.1172,-4.1,-4.0316,-4.0469,-4.0999,-4.2243,-4.2808,-4.3313,-4.3866,-4.4117,-4.4285,-4.4285,-4.4285,-4.4285,-4.4285,-4.4021,-4.3853,-4.3853,-4.3673,-4.3201,-4.248,-4.2055,-4.109,-3.9555,-3.9045,-3.8805,-3.8805,-3.8249,-3.8249,-3.8761,-3.8336,-3.8507,-4.422,-4.515,-4.6271,-4.7666,-4.8147,-4.8319,-4.8427,-4.8396,-4.8199,-4.781,-4.6812,-4.576,-4.5006,-4.3656,-4.2543,-4.2263,-4.2473,-4.2613,-4.2613,-4.3932,-4.4983,-4.5278,-4.665,-4.7672,-4.796,-4.801,-4.7827,-4.7419,-4.7047,-4.6717,-4.6326,-4.6301,-4.6301,-4.6301,-4.6301,-4.6301,-4.6301,-4.6301,-4.6301,-4.6301,-4.6225,-4.5799,-4.5121,-4.5159,-4.4866,-4.4285,-4.4285,-4.4285,-4.4285,-4.4285,-4.4285,-4.4285,-4.4285,-4.4285,-4.4285,-4.4285,-4.3925,-4.3505,-4.3505,-4.312,-4.2675,-4.2675,-4.2313,-4.1846,-4.1846,-4.1533,-4.1115,-4.0942,-3.9908,-3.8566,-3.7309,-3.6824,-3.6399,-3.5623,-3.7071,-3.9058,-4.0632,-4.0932,-4.0966,-4.1293,-4.1143,-4.0515,-3.9236,-3.9408,-4.0135,-4.1353,-4.2265,-4.2857,-4.2952,-4.3293,-4.3701,-4.3912,-4.395,-4.4037,-4.4285,-4.4285,-4.4285,-4.4285,-4.4285,-4.4285,-4.4285,-4.4285,-4.3028,-4.0408,-3.9878,-3.975,-4.0005,-3.9866,-3.9671,-3.9217,-3.845,-3.7975,-4.2662,-4.4267,-4.6078,-4.6752,-4.7617,-4.7834,-4.619,-4.7103,-4.781,-4.6097,-4.5506,-4.5006,-4.3609,-4.2123,-4.0657,-3.9405,-4.0249,-4.1084,-4.1084,-4.2403,-4.3794,-4.5142,-4.5481,-4.6315,-4.7828,-4.7191,-4.6837,-4.7394,-4.6513,-4.6074,-4.6326,-4.6301,-4.6301,-4.6301,-4.6301,-4.6301,-4.6301,-4.6301,-4.6301,-4.6301,-4.5824,-4.5169,-4.4367,-4.4541,-4.4524,-4.4285,-4.4285,-4.4285,-4.4285,-4.4285,-4.4285,-4.4285,-4.4285,-4.4285,-4.4285,-4.4285,-4.3925,-4.3505,-4.3505,-4.288,-4.2145,-4.2145,-4.1725,-4.1293,-4.1293,-4.1244,-4.0942,-3.9767,-3.8566,-3.7248,-3.5971,-3.4757,-3.4153,-3.5129,-3.5915,-3.7119,-3.9642,-3.9775,-3.9966,-4.1598,-4.094,-3.9642,-3.8265,-3.8499,-3.9023,-3.963,-3.9892,-4.0135,-4.0555,-4.0666,-4.1226,-4.242,-4.2546,-4.3051,-4.4223,-4.4285,-4.4285,-4.4285,-4.4285,-4.4285,-4.4285,-4.4285,-4.4113,-4.3645,-4.1328,-4.0686,-4.1924,-3.9518,-3.8333,-3.827,-3.8154,-3.7461,-4.2564,-4.4098,-4.5669,-4.6511,-4.7064,-4.7226,-4.665,-4.7198,-4.7561,-4.6721,-4.6516,-4.582,-4.3448,-4.1771,-4.032,-3.8865,-3.9136,-3.955,-3.955,-4.0871,-4.1982,-4.2683,-4.4298,-4.5617,-4.6382,-4.6446,-4.6485,-4.6826,-4.6192,-4.5878,-4.5999,-4.618,-4.6301,-4.6301,-4.6301,-4.6301,-4.6301,-4.6301,-4.615,-4.5849,-4.497,-4.4419,-4.4202,-4.3777,-4.3779,-4.4159,-4.4288,-4.4285,-4.4285,-4.4285,-4.4285,-4.4285,-4.4285,-4.4285,-4.4237,-4.3925,-4.3721,-4.3433,-4.2856,-4.2351,-4.1918,-4.1629,-4.1365,-4.1172,-4.1172,-4.0687,-3.9966,-3.9357,-3.779,-3.6093,-3.5561,-3.4403,-3.3603,-3.4472,-3.4799,-3.5634,-3.81,-3.9372,-4.0255,-4.1111,-4.0167,-3.9019,-3.8401,-3.8122,-3.8594,-4.0315,-4.0138,-4.0232,-4.1226,-4.071,-4.0452,-4.1055,-4.1119,-4.1697,-4.3051,-4.3177,-4.3514,-4.4223,-4.4285,-4.4285,-4.4285,-4.4285,-4.4285,-4.4285,-4.3114,-4.2799,-4.3451,-4.2206,-4.1161,-4.0452,-4.0452,-3.9299,-4.2062,-4.3361,-4.4625,-4.5477,-4.6126,-4.6607,-4.7016,-4.7305,-4.7497,-4.7497,-4.7497,-4.6741,-4.407,-4.2403,-4.0871,-3.9405,-3.8846,-3.8574,-3.8574,-3.955,-4.0392,-4.0728,-4.2753,-4.4436,-4.521,-4.5573,-4.591,-4.6357,-4.5883,-4.5635,-4.5757,-4.6059,-4.618,-4.6301,-4.6301,-4.6301,-4.6301,-4.6175,-4.5748,-4.5045,-4.4342,-4.3994,-4.3979,-4.3505,-4.3507,-4.3808,-4.4036,-4.4069,-4.4093,-4.4213,-4.4285,-4.4285,-4.4285,-4.4213,-4.4021,-4.3673,-4.3337,-4.3,-4.223,-4.1894,-4.1701,-4.1317,-4.1172,-4.1115,-4.0803,-4.0024,-3.9039,-3.8447,-3.6885,-3.5335,-3.5148,-3.4332,-3.3691,-3.4121,-3.4316,-3.4942,-3.6897,-3.891,-4.0214,-3.9769,-3.8963,-3.823,-3.7848,-3.7431,-3.7809,-3.9838,-3.9563,-3.9474,-4.0581,-3.9801,-3.9277,-3.9605,-3.9692,-4.0279,-4.1633,-4.1761,-4.2206,-4.3177,-4.3576,-4.3639,-4.324,-4.3576,-4.3764,-4.3764,-4.3764,-4.3974,-4.4285,-4.3974,-4.3263,-4.2293,-4.2293,-4.0797,-4.0166,-4.1306,-4.2632,-4.2951,-4.4467,-4.5982,-4.6006,-4.6776,-4.7497,-4.7497,-4.7497,-4.7008,-4.5481,-4.3932,-4.2403,-4.0942,-3.9478,-3.8574,-3.8574,-3.8647,-3.9208,-4.0657,-4.0942,-4.2123,-4.5005,-4.4426,-4.457,-4.6294,-4.5448,-4.5147,-4.5757,-4.5817,-4.5939,-4.6301,-4.6301,-4.6301,-4.6301,-4.5799,-4.497,-4.389,-4.4367,-4.4144,-4.335,-4.4097,-4.4021,-4.3249,-4.3458,-4.3553,-4.3601,-4.4069,-4.4285,-4.4285,-4.4285,-4.3949,-4.3553,-4.3529,-4.2904,-4.2038,-4.2049,-4.1653,-4.122,-4.1196,-4.1172,-4.0942,-3.9709,-3.9275,-3.8684,-3.6276,-3.55,-3.5232,-3.4373,-3.4107,-3.4141,-3.457,-3.5,-3.5593,-3.6544,-3.8189,-3.9,-3.7253,-3.7159,-3.7012,-3.5818,-3.5838,-3.6112,-3.6248,-3.6268,-3.6219,-3.6355,-3.6287,-3.6742,-3.8042,-3.8175,-3.8772,-4.0192,-4.0322,-4.0322,-4.0387,-4.1697,-4.1824,-4.0452,-4.1697,-4.242,-4.242,-4.242,-4.2988,-4.4285,-4.2988,-4.2356,-4.2293,-4.2293,-4.0797,-4.0616,-4.0905,-4.1622,-4.2743,-4.3518,-4.4154,-4.5188,-4.5982,-4.6583,-4.692,-4.7257,-4.7008,-4.5549,-4.4001,-4.2543,-4.1013,-3.955,-3.8574,-3.8574,-3.8574,-3.8793,-3.9353,-4.0249,-4.1101,-4.1925,-4.3018,-4.3844,-4.4255,-4.4607,-4.4902,-4.5147,-4.5574,-4.5878,-4.5999,-4.618,-4.6125,-4.5773,-4.4869,-4.4192,-4.379,-4.3991,-4.3819,-4.33,-4.3777,-4.3727,-4.3225,-4.3409,-4.3505,-4.3553,-4.4069,-4.4285,-4.4261,-4.3901,-4.3697,-4.3312,-4.1811,-4.1228,-4.1111,-4.0457,-4.0317,-4.0505,-4.1038,-4.0629,-3.9826,-3.9357,-3.8089,-3.6646,-3.5956,-3.5204,-3.4565,-3.4485,-3.4473,-3.459,-3.5039,-3.5469,-3.5877,-3.6169,-3.8196,-3.9433,-3.7916,-3.7691,-3.735,-3.5984,-3.6642,-3.7226,-3.7029,-3.7145,-3.7226,-3.7009,-3.638,-3.6219,-3.6674,-3.6742,-3.7327,-3.8705,-3.8838,-3.9212,-4.0127,-4.0646,-4.0732,-4.0192,-4.0668,-4.0926,-4.0926,-4.0926,-4.2079,-4.4285,-4.3826,-4.3576,-4.3576,-4.3576,-4.261,-4.0386,-4.0424,-4.0807,-4.1849,-4.2404,-4.2975,-4.4275,-4.514,-4.5862,-4.6559,-4.6992,-4.6817,-4.5526,-4.4001,-4.2543,-4.1013,-3.955,-3.8574,-3.8574,-3.8574,-3.8574,-3.8574,-3.9478,-4.0126,-4.0386,-4.2136,-4.328,-4.3326,-4.431,-4.4849,-4.4779,-4.5208,-4.5574,-4.5757,-4.5945,-4.5773,-4.5196,-4.4267,-4.379,-4.379,-4.3991,-4.3936,-4.373,-4.4062,-4.3912,-4.3348,-4.3421,-4.3505,-4.3553,-4.4069,-4.4285,-4.4237,-4.3721,-4.3505,-4.3203,-4.0847,-4.0241,-4.0341,-3.9039,-3.9181,-3.9988,-4.0081,-3.9788,-3.9291,-3.8372,-3.6918,-3.5604,-3.541,-3.4848,-3.4375,-3.4824,-3.5039,-3.5215,-3.5527,-3.582,-3.6016,-3.6016,-3.7461,-3.8507,-3.7595,-3.7394,-3.7059,-3.6152,-3.6809,-3.7493,-3.7649,-3.7524,-3.7493,-3.7649,-3.6696,-3.6016,-3.6016,-3.6016,-3.6355,-3.7327,-3.7394,-3.7775,-3.8705,-3.9212,-3.9277,-3.8838,-3.9212,-3.9474,-3.9474,-3.9474,-4.0646,-4.2925,-4.2925,-4.2925,-4.2925,-4.3389,-4.3114,0.0,0.0,0.0,-4.0019,-4.1169,-4.2511,-4.3277,-4.4275,-4.5317,-4.6439,-4.668,-4.6389,-4.5457,-4.407,-4.2613,-4.1084,-3.9622,-3.8574,-3.8574,-3.8574,-3.8574,-3.8574,-3.8574,-3.9136,-4.0586,-4.1716,-4.268,-4.3545,-4.4576,-4.5025,-4.4827,-4.4779,-4.5086,-4.5757,-4.5595,-4.5221,-4.4644,-4.4091,-4.3815,-4.384,-4.4367,-4.4568,-4.4484,-4.5024,-4.4671,-4.3529,-4.3529,-4.3505,-4.3553,-4.4045,-4.4261,-4.4237,-4.3721,-4.3481,-4.3179,-4.0824,-3.9914,-3.9665,-3.7929,-3.8446,-3.9756,-3.8398,-3.8825,-3.9432,-3.679,-3.5996,-3.5701,-3.4468,-3.4394,-3.4824,-3.5293,-3.5723,-3.6016,-3.6016,-3.6016,-3.6016,-3.6016,-3.6016,-3.6016,-3.6016,-3.6016,-3.6016,-3.6016,-3.6016,-3.6539,-3.7842,-3.6924,-3.6519,-3.7822,-3.6856,-3.6016,-3.6016,-3.6016,-3.6016,-3.6016,-3.6016,-3.6016,-3.6016,-3.726,-3.7461,-3.6084,-3.7327,-3.8042,-3.8042,-3.8042,-3.8705,-4.0062,-4.0127,-4.0192,-4.0192,-4.1569,-4.2229,-4.0765,0.0,0.0,0.0,0.0,0.0,-4.1798,-4.2842,-4.3818,-4.5285,-4.6175,-4.6389,-4.5457,-4.4914,-4.4138,-4.2613,-4.0249,-3.8574,-3.8574,-3.8574,-3.8574,-3.8574,-3.8574,-3.8655,-3.868,-4.0899,-4.2272,-4.2193,-4.3974,-4.5068,-4.4987,-4.4874,-4.5086,-4.5757,-4.5356,-4.516,-4.5246,-4.4292,-4.3901,-4.407,-4.4452,-4.4451,-4.4183,-4.4963,-4.4866,-4.4045,-4.3697,-4.3505,-4.3529,-4.3673,-4.3925,-4.4189,-4.3337,-4.2976,-4.264,-3.9598,-3.8498,-3.8336,-3.7274,-3.7861,-3.9007,-3.8532,-3.8719,-3.8759,-3.7044,-3.5851,-3.5026,-3.5054,-3.5117,-3.5293,-3.5742,-3.5937,-3.6016,-3.6016,-3.6016,-3.6016,-3.6016,-3.6016,-3.6016,-3.6016,-3.6016,-3.6016,-3.6016,-3.6876,-3.7226,-3.6256,-3.6662,-3.6775,-3.6216,-3.5835,-3.5684,-3.5996,-3.6016,-3.6016,-3.6016,-3.6016,-3.6016,-3.6016,-3.6355,-3.6423,-3.6016,-3.6336,-3.6606,-3.6606,-3.6606,-3.6809,-3.7193,-3.9212,-4.0192,-4.0192,-4.0581,-4.0797,-4.1264,-4.0338,-3.9563,-3.9982,0.0,0.0,-4.1435,-4.2229,-4.3132,-4.4943,-4.5516,-4.5555,-4.5064,-4.4796,-4.4233,-4.2911,-4.1453,-4.031,-3.9883,-3.967,-3.934,-3.8882,-3.8691,-3.8476,-3.8223,-4.0265,-4.1731,-4.1872,-4.3559,-4.4602,-4.4765,-4.4763,-4.4963,-4.5392,-4.4995,-4.4878,-4.5057,-4.3962,-4.3755,-4.4348,-4.4277,-4.4279,-4.4317,-4.4878,-4.4719,-4.3962,-4.3433,-4.3192,-4.3192,-4.3192,-4.3385,-4.3601,-4.276,-4.2245,-4.162,-3.892,-3.7706,-3.7296,-3.6254,-3.691,-3.8082,-3.7463,-3.7719,-3.7976,-3.6579,-3.5639,-3.5039,-3.5312,-3.5527,-3.5703,-3.5957,-3.6016,-3.6016,-3.6016,-3.6016,-3.6016,-3.6016,-3.6016,-3.6016,-3.6016,-3.6016,-3.6016,-3.6016,-3.6674,-3.7045,-3.6603,-3.6676,-3.6743,-3.6563,-3.5981,-3.5742,-3.5996,-3.6016,-3.6219,-3.6809,-3.6355,-3.6287,-3.6876,-3.6336,-3.6016,-3.6016,-3.6016,-3.6016,-3.6016,-3.6016,-3.6016,-3.6016,-3.7662,-3.8772,-3.9343,-3.9343,-3.9605,-4.1392,-4.0642,-3.9901,-4.0012,-4.0031,0.0,-4.1502,-4.2054,-4.2846,-4.4865,-4.4739,-4.4371,-4.4476,-4.4098,-4.3542,-4.2636,-4.2941,-4.2844,-4.1626,-4.111,-4.0473,-3.9288,-3.8867,-3.8652,-3.8652,-3.993,-4.12,-4.2029,-4.3152,-4.3803,-4.4084,-4.4532,-4.4779,-4.4779,-4.4621,-4.4558,-4.4618,-4.3536,-4.3477,-4.4558,-4.3944,-4.4035,-4.4779,-4.4779,-4.4389,-4.3577,-4.3072,-4.2772,-4.2652,-4.2604,-4.2664,-4.2784,-4.2136,-4.1447,-4.0541,-3.8557,-3.7359,-3.6614,-3.531,-3.6002,-3.7332,-3.5917,-3.6429,-3.7332,-3.5917,-3.5469,-3.5469,-3.5469,-3.5723,-3.6016,-3.6016,-3.6016,-3.6016,-3.6016,-3.6016,-3.6016,-3.6016,-3.6016,-3.6016,-3.6016,-3.6016,-3.6016,-3.6016,-3.6016,-3.6403,-3.7662,-3.6769,-3.6431,-3.7709,-3.6769,-3.5976,-3.6016,-3.6016,-3.6471,-3.7796,-3.6742,-3.6539,-3.7796,-3.6674,-3.6016,-3.6016,-3.6016,-3.6016,-3.6016,-3.6016,-3.6016,-3.6016,-3.6016,-3.6674,-3.7863,-3.7863,-3.8573,-4.256,-4.1716,-4.0719,-3.9978,-3.964,0.0,-4.0323,-4.1016,-4.185,-4.3066,-4.3948,-4.4549,-4.4722,-4.4645,-4.441,-4.4002,-4.4742,-4.4293,-4.1389,-4.1172,-4.082,-3.9401,-3.9121,-3.9082,-3.9082,-4.0112,-4.09,-4.1101,-4.2725,-4.3414,-4.2719,-4.3764,-4.4532,-4.4779,-4.4743,-4.4854,-4.5122,-4.4101,-4.3923,-4.4731,-4.3996,-4.3915,-4.4409,-4.4656,-4.4546,-4.4093,-4.3601,-4.2729,-4.17,-4.1283,-4.1986,-4.3192,-4.1653,-4.0944,-4.0464,-3.7866,-3.6831,-3.6653,-3.5976,-3.6723,-3.7719,-3.6352,-3.6804,-3.7719,-3.6285,-3.5898,-3.5898,-3.5898,-3.5957,-3.6016,-3.6016,-3.6016,-3.6016,-3.6016,-3.6016,-3.6016,-3.6016,-3.6016,-3.6016,-3.6016,-3.6016,-3.6016,-3.6016,-3.6016,-3.6084,-3.6336,-3.5925,-3.5692,-3.6296,-3.5925,-3.5644,-3.5996,-3.6016,-3.6084,-3.6403,-3.6152,-3.6152,-3.6403,-3.6152,-3.6016,-3.6016,-3.6016,-3.6016,-3.6016,-3.6016,-3.6016,-3.6016,-3.6016,-3.6152,-3.6423,-3.6423,-3.6539,-4.3618,-4.2792,-4.1766,-4.0693,-4.0364,0.0,0.0,-4.067,-4.1342,-4.2453,-4.2758,-4.3026,-4.3717,-4.3465,-4.3311,-4.3723,-4.4722,-4.4736,-4.2564,-4.2247,-4.1501,-3.9456,-3.9199,-3.9397,-3.9963,-4.072,-4.1147,-4.1204,-4.2772,-4.3284,-4.2339,-4.3576,-4.4409,-4.4532,-4.4532,-4.4656,-4.4779,-4.4038,-4.3917,-4.4532,-4.3893,-4.3857,-4.4285,-4.447,-4.4326,-4.3914,-4.3625,-4.2997,-4.2066,-4.1368,-4.163,-4.2333,-4.0422,-3.9725,-3.9499,-3.7677,-3.6575,-3.6042,-3.5984,-3.6471,-3.6944,-3.6219,-3.6471,-3.6944,-3.6219,-3.6016,-3.6016,-3.6016,-3.6016,-3.6016,-3.6016,-3.6016,-3.6016,-3.6016,-3.6016,-3.6016,-3.6016,-3.6016,-3.6016,-3.6016,-3.6016,-3.6016,-3.6016,-3.6016,-3.6016,-3.6016,-3.584,-3.5781,-3.5996,-3.584,-3.5781,-3.5996,-3.6016,-3.6287,-3.7011,-3.6403,-3.6287,-3.6991,-3.6403,-3.6016,-3.6016,-3.6016,-3.6016,-3.6016,-3.6016,-3.6016,-3.6016,-3.6016,-3.6016,-3.6016,-3.6016,-3.6133,-4.4125,-4.3416,-4.2501,-4.1219,-4.0895,-4.0822,0.0,0.0,0.0,-4.1916,-4.1651,-4.1484,-4.229,-4.1891,-4.1769,-4.2686,-4.3857,-4.4308,-4.3313,-4.304,-4.214,-4.0011,-3.9386,-3.9598,-4.0534,-4.074,-4.1042,-4.1695,-4.2593,-4.2955,-4.2477,-4.3624,-4.4285,-4.4285,-4.4285,-4.4285,-4.4285,-4.3794,-4.3794,-4.4285,-4.377,-4.3818,-4.4285,-4.4285,-4.4045,-4.3612,-4.3344,-4.2885,-4.2202,-4.1217,-4.1,-4.108,-3.9119,-3.844,-3.8335,-3.7281,-3.6282,-3.5449,-3.5879,-3.6016,-3.6016,-3.6016,-3.6016,-3.6016,-3.6016,-3.6016,-3.6016,-3.6016,-3.6016,-3.6016,-3.6016,-3.6016,-3.6016,-3.6016,-3.6016,-3.6016,-3.6016,-3.6016,-3.6016,-3.6016,-3.6016,-3.6016,-3.6016,-3.6016,-3.6016,-3.6016,-3.6016,-3.6016,-3.6016,-3.6016,-3.6016,-3.6016,-3.6016,-3.6471,-3.7595,-3.6674,-3.6471,-3.7595,-3.6606,-3.6016,-3.6016,-3.6016,-3.6016,-3.6016,-3.6094,-3.6152,-3.6152,-3.623,-3.6172,-3.6016,-3.6113,-3.6328,-4.3464,-4.2889,-4.2306,-4.0364,-3.9878,-3.9852,-3.9824,0.0,-4.0598,-4.0724,0.0,-4.1239,-4.1146,0.0,0.0,-4.1471,-4.2389,-4.2649,-4.146,-4.2074,-4.2459,-4.1845,-4.023,-3.941,-3.9932,-3.9023,-3.9394,-4.213,-4.1593,-4.166,-4.2959,-4.3836,-4.4285,-4.4285,-4.4285,-4.4285,-4.4285,-4.3794,-4.3794,-4.4285,-4.377,-4.3818,-4.4285,-4.4285,-4.4261,-4.4127,-4.2958,-4.1711,-4.0362,-3.9061,-3.9213,-4.019,-3.8312,-3.7624,-3.7494,-3.615,-3.5524,-3.5449,-3.5879,-3.6016,-3.6016,-3.6016,-3.6016,-3.6016,-3.6016,-3.6016,-3.6016,-3.6016,-3.6016,-3.6016,-3.6016,-3.6016,-3.6016,-3.6016,-3.6016,-3.6016,-3.6016,-3.6016,-3.6016,-3.6016,-3.6016,-3.6016,-3.6016,-3.6016,-3.6016,-3.6016,-3.6016,-3.6016,-3.6016,-3.6016,-3.6016,-3.6016,-3.6016,-3.6084,-3.6219,-3.6084,-3.6084,-3.6219,-3.6084,-3.6016,-3.6016,-3.6016,-3.6016,-3.6016,-3.6406,-3.6601,-3.6601,-3.6973,-3.6758,-3.6035,-3.6426,-3.6621,-4.5931,-4.4984,-4.3891,-4.2369,-4.1279,-4.0415,-3.9826,-3.9873,-4.0049,-4.0049,0.0,0.0,0.0,0.0,0.0,0.0,-4.21,-4.2778,-4.258,-4.272,-4.2476,-4.14,-4.0501,-4.0494,-4.1887,-4.0821,-4.0552,-4.185,-4.1217,-4.1111,-4.1703,-4.3395,-4.4285,-4.4285,-4.4285,-4.4285,-4.4285,-4.4045,-4.3674,-4.3114,-4.3736,-4.3674,-4.32,-4.3974,-4.3912,-4.3114,-4.2546,-4.1505,-4.0062,-3.8705,-3.8441,-3.8774,-3.6973,-3.7415,-3.8804,-3.6596,-3.5762,-3.5781,-3.5957,-3.6016,-3.6016,-3.6016,-3.6016,-3.6016,-3.6016,-3.6016,-3.6016,-3.6016,-3.6016,-3.6016,-3.6016,-3.6016,-3.6016,-3.6016,-3.6016,-3.6016,-3.6016,-3.6016,-3.6016,-3.6016,-3.6016,-3.6016,-3.6016,-3.6016,-3.6016,-3.6016,-3.6016,-3.6016,-3.6016,-3.6016,-3.6016,-3.6016,-3.6016,-3.6016,-3.6016,-3.6016,-3.6016,-3.6016,-3.625,-3.6406,-3.6406,-3.6641,-3.6758,-3.6758,-3.6934,-3.7031,-3.7031,-3.7207,-3.7109,-3.6758,-3.6953,-3.7168,-4.6271,-4.5364,-4.4178,-4.3091,-4.192,-4.0798,-3.9928,-3.9697,-3.9747,-3.9898,-3.9923,0.0,0.0,0.0,-4.0582,-4.1185,0.0,-4.2881,-4.3308,-4.3107,-4.2475,-4.1504,-4.1022,-4.1241,-4.259,-4.1484,-4.0991,-4.1786,-4.1131,-4.0957,-4.1551,-4.3455,-4.4429,-4.4285,-4.4285,-4.4099,-4.3764,-4.3764,-4.3051,-4.1761,-4.3114,-4.3263,-4.2356,-4.3326,-4.32,-4.2293,-4.1505,-4.0581,-3.954,-3.7984,-3.7611,-3.7749,-3.5951,-3.6958,-3.9172,-3.6764,-3.5918,-3.6016,-3.6016,-3.6016,-3.6016,-3.6016,-3.6016,-3.6016,-3.6016,-3.6016,-3.6016,-3.6016,-3.6016,-3.6016,-3.6016,-3.6016,-3.6016,-3.6016,-3.6016,-3.6016,-3.6016,-3.6016,-3.6016,-3.6016,-3.6016,-3.6016,-3.6016,-3.6016,-3.6016,-3.6016,-3.6016,-3.6016,-3.6016,-3.6016,-3.6074,-3.6191,-3.6191,-3.625,-3.6367,-3.6367,-3.6367,-3.6367,-3.668,-3.6836,-3.6836,-3.7129,-3.7305,-3.7305,-3.7402,-3.7461,-3.7461,-3.7578,-3.7656,-3.7637,-3.7519,-3.7637,-4.2383,-4.2236,-4.1981,-4.0868,-4.0553,-4.0402,-3.9823,-3.9697,-3.9848,-4.0375,-4.0501,-4.0651,-4.1125,-4.125,-4.1451,0.0,-4.2158,0.0,0.0,-4.2556,-4.2652,-4.3067,-4.2016,-4.1147,-4.089,-3.9266,-3.9361,-4.2133,-4.1066,-4.1283,-4.3496,-4.4529,-4.4813,-4.4309,-4.4285,-4.3701,-4.2356,-4.2356,-4.1633,-4.0257,-4.1697,-4.2356,-4.2293,-4.2356,-4.2356,-4.2166,-3.9408,-3.8175,-3.8021,-3.6236,-3.6323,-3.736,-3.5474,-3.5902,-3.7401,-3.5924,-3.5664,-3.6016,-3.6016,-3.6016,-3.6016,-3.6016,-3.6016,-3.6016,-3.6016,-3.6016,-3.6016,-3.6016,-3.6016,-3.6016,-3.6016,-3.6016,-3.6016,-3.6016,-3.6016,-3.6016,-3.6016,-3.6016,-3.6016,-3.6016,-3.6016,-3.6016,-3.6016,-3.6016,-3.6016,-3.6016,-3.6016,-3.6016,-3.6016,-3.6016,-3.6172,-3.6601,-3.6641,-3.6816,-3.7226,-3.7266,-3.7266,-3.7266,-3.7266,-3.7266,-3.7266,-3.7285,-3.7305,-3.7305,-3.7695,-3.791,-3.791,-3.832,-3.8535,-3.8516,-3.8105,-3.791,-4.4393,-4.3565,-4.2605,-4.2242,-4.1051,-3.9923,-3.9747,-3.9973,-4.03,-4.0475,-4.0802,-4.1075,-4.125,-4.163,-4.1932,0.0,-4.2514,-4.276,0.0,-4.2326,-4.2157,-4.2656,-4.2853,-4.2635,-4.1911,-4.0003,-3.9238,-4.0323,-3.8916,-3.8549,-3.9903,-4.0904,-4.1429,-4.1546,-4.1569,-4.1377,-4.0904,-4.0926,-4.0192,-3.8838,-4.0279,-4.0387,-3.954,-4.0473,-4.0409,-3.9474,-3.8507,-3.7595,-3.6634,-3.5768,-3.5658,-3.5958,-3.4766,-3.5054,-3.6037,-3.5591,-3.5664,-3.6016,-3.6016,-3.6016,-3.6016,-3.6016,-3.6016,-3.6016,-3.6016,-3.6016,-3.6016,-3.6016,-3.6016,-3.6016,-3.6016,-3.6016,-3.6016,-3.6016,-3.6016,-3.6016,-3.6016,-3.6016,-3.6016,-3.6016,-3.6016,-3.6016,-3.6016,-3.6016,-3.6016,-3.6016,-3.6016,-3.6133,-3.6406,-3.6445,-3.6621,-3.7031,-3.709,-3.7148,-3.7285,-3.7305,-3.7305,-3.7305,-3.7559,-3.7715,-3.7715,-3.7988,-3.8144,-3.8144,-3.8281,-3.8359,-3.8359,-3.8496,-3.8574,-3.8574,-3.8418,-3.8359,-4.4256,-4.352,-4.2732,-4.2732,-4.1637,-4.0526,-4.0325,-4.0551,-4.0927,-4.1304,-4.153,-4.1756,-4.2133,-4.2333,-4.2514,0.0,0.0,-4.2911,0.0,-4.2218,-4.2008,-4.2357,-4.2806,-4.2754,-4.1918,-4.0514,-3.9437,-3.8852,-3.8061,-3.7633,-3.7905,-3.9066,-3.9841,-3.993,-4.0105,-3.9932,-3.9474,-3.9408,-3.8772,-3.7394,-3.8772,-3.8948,-3.8109,-3.9014,-3.897,-3.8042,-3.7595,-3.6876,-3.5976,-3.5391,-3.5234,-3.5312,-3.4414,-3.4609,-3.5371,-3.5215,-3.5508,-3.6016,-3.6016,-3.6016,-3.6016,-3.6016,-3.6016,-3.6016,-3.6016,-3.6016,-3.6016,-3.6016,-3.6016,-3.6016,-3.6016,-3.6016,-3.6016,-3.6016,-3.6016,-3.6016,-3.6016,-3.6016,-3.6016,-3.6016,-3.6016,-3.6016,-3.6016,-3.6152,-3.6191,-3.6035,-3.6152,-3.6348,-3.6641,-3.6797,-3.7051,-3.748,-3.7519,-3.7578,-3.7734,-3.7754,-3.7754,-3.7754,-3.8008,-3.8164,-3.8164,-3.8418,-3.8574,-3.8574,-3.8574,-3.8574,-3.8574,-3.8574,-3.8574,-3.8574,-3.8574,-3.8574]},{"header":{"parameterUnit":"m.s-1","parameterCategory":1,"la1":30.6,"la2":29.2853,"lo1":-89.7004,"lo2":-87.6739,"dy":0.0162,"dx":0.0183,"nx":112,"ny":82,"refTime":"2026-04-20T00:00:00:Z","depth":0,"parameterNumber":3,"parameterNumberName":"V-component_of_WINDS"},"data":[0.0,0.0,0.0,0.0,0.0,0.0,0.0,0.0,0.0,0.0,0.0,0.0,0.0,0.0,0.0,0.0,0.0,0.0,0.0,0.0,0.0,0.0,0.0,0.0,0.0,0.0,0.0,0.0,0.0,0.0,0.0,0.0,0.0,0.0,0.0,0.0,0.0,0.0,0.0,0.0,0.0,0.0,0.0,0.0,0.0,0.0,0.0,0.0,0.0,0.0,0.0,0.0,0.0,0.0,0.0,0.0,0.0,0.0,0.0,0.0,0.0,0.0,0.0,0.0,0.0,0.0,0.0,0.0,0.0,0.0,0.0,0.0,0.0,0.0,0.0,0.0,0.0,0.0,0.0,0.0,0.0,0.0,0.0,0.0,0.0,0.0,0.0,0.0,0.0,0.0,2.4316,2.3371,2.3462,2.3679,2.3966,2.3347,2.2714,2.216,0.0,0.0,0.0,0.0,0.0,0.0,0.0,0.0,0.0,0.0,0.0,0.0,0.0,0.0,0.0,0.0,0.0,0.0,0.0,0.0,0.0,0.0,0.0,0.0,0.0,0.0,0.0,0.0,0.0,0.0,0.0,0.0,0.0,0.0,0.0,0.0,0.0,0.0,0.0,0.0,0.0,0.0,0.0,0.0,0.0,0.0,0.0,0.0,0.0,0.0,0.0,0.0,0.0,0.0,0.0,0.0,0.0,0.0,0.0,0.0,0.0,0.0,0.0,0.0,0.0,0.0,0.0,0.0,0.0,0.0,0.0,0.0,0.0,0.0,0.0,0.0,0.0,0.0,0.0,0.0,0.0,0.0,0.0,0.0,0.0,0.0,0.0,0.0,0.0,0.0,0.0,0.0,0.0,0.0,0.0,0.0,0.0,0.0,0.0,0.0,0.0,0.0,0.0,0.0,2.3197,2.3831,2.4118,2.4224,2.402,2.3634,2.2998,2.2146,0.0,0.0,0.0,0.0,0.0,0.0,0.0,0.0,0.0,0.0,0.0,0.0,0.0,0.0,0.0,0.0,0.0,0.0,0.0,0.0,0.0,0.0,0.0,0.0,0.0,0.0,0.0,0.0,0.0,0.0,0.0,0.0,0.0,0.0,0.0,0.0,0.0,0.0,0.0,0.0,0.0,0.0,0.0,0.0,0.0,0.0,0.0,0.0,0.0,0.0,0.0,0.0,0.0,0.0,0.0,0.0,0.0,0.0,0.0,0.0,0.0,0.0,0.0,0.0,0.0,0.0,0.0,0.0,0.0,0.0,0.0,0.0,0.0,0.0,0.0,0.0,0.0,0.0,0.0,0.0,0.0,0.0,0.0,0.0,0.0,0.0,0.0,0.0,0.0,0.0,0.0,0.0,0.0,0.0,0.0,0.0,0.0,0.0,0.0,0.0,0.0,0.0,0.0,2.4495,2.3558,2.5453,2.4935,2.451,2.4578,2.4569,2.4035,2.2711,2.2393,0.0,0.0,0.0,0.0,0.0,0.0,0.0,0.0,0.0,0.0,0.0,0.0,0.0,0.0,0.0,0.0,0.0,0.0,0.0,0.0,0.0,0.0,0.0,0.0,0.0,0.0,0.0,0.0,0.0,0.0,0.0,0.0,0.0,0.0,0.0,0.0,0.0,0.0,0.0,0.0,0.0,0.0,0.0,0.0,0.0,0.0,0.0,0.0,0.0,0.0,0.0,0.0,0.0,0.0,0.0,0.0,0.0,0.0,0.0,0.0,0.0,0.0,0.0,0.0,0.0,0.0,0.0,0.0,0.0,0.0,0.0,0.0,0.0,0.0,0.0,0.0,0.0,0.0,0.0,0.0,0.0,0.0,0.0,0.0,0.0,0.0,0.0,0.0,0.0,0.0,0.0,0.0,0.0,0.0,0.0,0.0,0.0,0.0,0.0,0.0,0.0,0.0,2.6293,2.5439,2.7293,2.6373,2.5667,2.5926,2.5859,2.5156,2.3576,2.3026,0.0,0.0,0.0,0.0,0.0,0.0,0.0,0.0,0.0,0.0,0.0,0.0,0.0,0.0,0.0,0.0,0.0,0.0,0.0,0.0,0.0,0.0,0.0,0.0,0.0,0.0,0.0,0.0,0.0,0.0,0.0,0.0,0.0,0.0,0.0,0.0,0.0,0.0,0.0,0.0,0.0,0.0,0.0,0.0,0.0,0.0,0.0,0.0,0.0,0.0,0.0,0.0,0.0,0.0,0.0,0.0,0.0,0.0,0.0,0.0,0.0,0.0,0.0,0.0,0.0,0.0,0.0,0.0,0.0,0.0,0.0,0.0,0.0,0.0,0.0,0.0,0.0,0.0,0.0,0.0,0.0,0.0,0.0,0.0,0.0,0.0,0.0,0.0,0.0,0.0,0.0,0.0,0.0,0.0,0.0,0.0,0.0,0.0,0.0,0.0,0.0,0.0,2.8101,2.9351,2.8601,2.87,2.8719,2.8348,2.7317,2.6117,2.4595,2.2846,0.0,0.0,0.0,0.0,0.0,0.0,0.0,0.0,0.0,0.0,0.0,0.0,0.0,0.0,0.0,0.0,0.0,0.0,0.0,0.0,0.0,0.0,0.0,0.0,0.0,0.0,0.0,0.0,0.0,0.0,0.0,0.0,0.0,0.0,0.0,0.0,0.0,0.0,0.0,0.0,0.0,0.0,0.0,0.0,0.0,0.0,0.0,0.0,0.0,0.0,0.0,0.0,0.0,0.0,0.0,0.0,0.0,0.0,0.0,0.0,0.0,0.0,0.0,0.0,0.0,0.0,0.0,0.0,0.0,0.0,0.0,0.0,0.0,0.0,0.0,0.0,0.0,0.0,0.0,0.0,0.0,0.0,0.0,0.0,0.0,0.0,0.0,0.0,0.0,0.0,0.0,0.0,0.0,0.0,0.0,0.0,0.0,0.0,0.0,0.0,0.0,0.0,2.7993,2.8314,2.9431,2.8905,2.8413,2.8277,2.8342,2.7529,2.5427,0.0,0.0,0.0,0.0,0.0,0.0,0.0,0.0,0.0,0.0,0.0,0.0,0.0,0.0,0.0,0.0,0.0,0.0,0.0,0.0,0.0,0.0,0.0,0.0,0.0,0.0,0.0,0.0,0.0,0.0,0.0,0.0,0.0,0.0,0.0,0.0,0.0,0.0,0.0,0.0,0.0,0.0,0.0,0.0,0.0,0.0,0.0,0.0,0.0,0.0,0.0,0.0,0.0,0.0,0.0,0.0,0.0,0.0,0.0,0.0,0.0,0.0,0.0,0.0,0.0,0.0,0.0,0.0,0.0,0.0,0.0,0.0,0.0,0.0,0.0,0.0,0.0,0.0,0.0,0.0,0.0,0.0,0.0,0.0,0.0,0.0,0.0,0.0,0.0,0.0,0.0,0.0,0.0,0.0,0.0,0.0,0.0,0.0,0.0,0.0,0.0,0.0,2.8949,2.8553,2.8786,3.0549,2.9992,2.9502,2.9502,2.9727,2.8883,2.6504,0.0,0.0,0.0,0.0,0.0,0.0,0.0,0.0,0.0,0.0,0.0,0.0,0.0,0.0,0.0,0.0,0.0,0.0,0.0,0.0,0.0,0.0,0.0,0.0,0.0,0.0,0.0,0.0,0.0,0.0,0.0,0.0,0.0,0.0,0.0,0.0,0.0,0.0,0.0,0.0,0.0,0.0,0.0,0.0,0.0,0.0,0.0,0.0,0.0,0.0,0.0,0.0,0.0,0.0,0.0,0.0,0.0,0.0,0.0,0.0,0.0,0.0,0.0,0.0,0.0,0.0,0.0,0.0,0.0,0.0,0.0,0.0,0.0,0.0,0.0,0.0,0.0,0.0,0.0,0.0,0.0,0.0,0.0,0.0,0.0,0.0,0.0,0.0,0.0,0.0,0.0,0.0,0.0,0.0,0.0,0.0,0.0,0.0,0.0,0.0,0.0,0.0,2.8301,3.0195,3.1699,3.219,3.2539,3.2793,3.2773,3.1621,3.0045,0.0,0.0,0.0,0.0,0.0,0.0,0.0,0.0,0.0,0.0,0.0,0.0,0.0,0.0,0.0,0.0,0.0,0.0,0.0,0.0,0.0,0.0,0.0,0.0,0.0,0.0,0.0,0.0,0.0,0.0,0.0,0.0,0.0,0.0,0.0,0.0,0.0,0.0,0.0,0.0,0.0,0.0,0.0,0.0,0.0,0.0,0.0,0.0,0.0,0.0,0.0,0.0,0.0,0.0,0.0,0.0,0.0,0.0,0.0,0.0,0.0,0.0,0.0,0.0,0.0,0.0,0.0,0.0,0.0,0.0,0.0,0.0,0.0,0.0,0.0,0.0,0.0,0.0,0.0,0.0,0.0,0.0,0.0,0.0,0.0,0.0,0.0,0.0,0.0,0.0,0.0,0.0,0.0,0.0,0.0,0.0,0.0,0.0,0.0,0.0,0.0,0.0,0.0,2.9345,3.1087,3.2394,3.2512,3.2468,3.2348,3.2215,3.1662,3.0509,2.8606,0.0,0.0,0.0,0.0,0.0,0.0,0.0,0.0,0.0,0.0,0.0,0.0,0.0,0.0,0.0,0.0,0.0,0.0,0.0,0.0,0.0,0.0,0.0,0.0,0.0,0.0,0.0,0.0,0.0,0.0,0.0,0.0,0.0,0.0,0.0,0.0,0.0,0.0,0.0,0.0,0.0,0.0,0.0,0.0,0.0,0.0,0.0,0.0,0.0,0.0,0.0,0.0,0.0,0.0,0.0,0.0,0.0,0.0,0.0,0.0,0.0,0.0,0.0,0.0,0.0,0.0,0.0,0.0,0.0,0.0,0.0,0.0,0.0,0.0,0.0,0.0,0.0,0.0,0.0,0.0,0.0,0.0,0.0,0.0,0.0,0.0,0.0,0.0,0.0,0.0,0.0,0.0,0.0,0.0,0.0,0.0,0.0,0.0,0.0,0.0,0.0,0.0,2.9534,3.1154,3.2435,3.2535,3.2375,3.2336,3.2435,3.2078,3.1206,2.9579,0.0,0.0,0.0,0.0,0.0,0.0,0.0,0.0,0.0,0.0,0.0,0.0,0.0,0.0,0.0,0.0,0.0,0.0,0.0,0.0,0.0,0.0,0.0,0.0,0.0,0.0,0.0,0.0,0.0,0.0,0.0,0.0,0.0,0.0,0.0,0.0,0.0,0.0,0.0,0.0,0.0,0.0,0.0,0.0,0.0,0.0,0.0,0.0,0.0,0.0,0.0,0.0,0.0,0.0,0.0,0.0,0.0,0.0,0.0,0.0,0.0,0.0,0.0,0.0,0.0,0.0,0.0,0.0,0.0,0.0,0.0,0.0,0.0,0.0,0.0,0.0,0.0,0.0,0.0,0.0,0.0,0.0,0.0,0.0,0.0,0.0,0.0,0.0,0.0,0.0,0.0,0.0,0.0,0.0,0.0,0.0,0.0,0.0,0.0,0.0,0.0,0.0,2.9245,3.0949,3.2223,3.2451,3.2492,3.2653,3.3075,3.2673,3.1848,3.0555,0.0,0.0,0.0,0.0,0.0,0.0,0.0,0.0,0.0,0.0,0.0,0.0,0.0,0.0,0.0,0.0,0.0,0.0,0.0,0.0,0.0,0.0,0.0,0.0,0.0,0.0,0.0,0.0,0.0,0.0,0.0,0.0,0.0,0.0,0.0,0.0,0.0,0.0,0.0,0.0,0.0,0.0,0.0,0.0,0.0,0.0,0.0,0.0,0.0,0.0,0.0,0.0,0.0,0.0,0.0,0.0,0.0,0.0,0.0,0.0,3.8807,3.7169,0.0,0.0,0.0,0.0,0.0,0.0,0.0,0.0,0.0,0.0,0.0,0.0,0.0,0.0,0.0,0.0,0.0,0.0,0.0,0.0,0.0,0.0,0.0,0.0,0.0,0.0,0.0,0.0,0.0,0.0,0.0,0.0,0.0,0.0,0.0,0.0,0.0,0.0,0.0,0.0,3.0479,3.279,3.4232,3.3432,3.3074,3.2973,3.2946,3.2609,3.1842,3.0438,3.0295,0.0,0.0,0.0,0.0,0.0,0.0,0.0,0.0,0.0,0.0,0.0,0.0,0.0,0.0,0.0,0.0,0.0,0.0,0.0,0.0,0.0,0.0,0.0,0.0,0.0,0.0,0.0,0.0,0.0,0.0,0.0,0.0,0.0,0.0,0.0,0.0,0.0,0.0,0.0,0.0,0.0,0.0,0.0,0.0,0.0,0.0,0.0,0.0,0.0,0.0,0.0,0.0,0.0,0.0,0.0,0.0,0.0,0.0,0.0,4.1899,4.0411,0.0,0.0,0.0,0.0,0.0,0.0,0.0,0.0,0.0,0.0,0.0,0.0,0.0,0.0,0.0,0.0,0.0,0.0,0.0,0.0,0.0,0.0,0.0,0.0,0.0,0.0,0.0,0.0,0.0,0.0,0.0,0.0,0.0,0.0,0.0,0.0,0.0,0.0,0.0,0.0,3.1957,3.3932,3.521,3.4883,3.4676,3.4568,3.4501,3.4345,3.3828,3.2835,3.2463,0.0,0.0,0.0,0.0,0.0,0.0,0.0,0.0,0.0,0.0,0.0,0.0,0.0,0.0,0.0,0.0,0.0,0.0,0.0,0.0,0.0,0.0,0.0,0.0,0.0,0.0,0.0,0.0,0.0,0.0,0.0,0.0,0.0,0.0,0.0,0.0,0.0,0.0,0.0,0.0,0.0,0.0,0.0,0.0,0.0,0.0,0.0,0.0,0.0,0.0,0.0,0.0,0.0,4.5522,4.5849,4.5522,4.6351,4.6476,4.5999,4.507,4.4141,4.3212,4.2715,0.0,0.0,0.0,0.0,0.0,0.0,0.0,0.0,0.0,0.0,0.0,0.0,0.0,0.0,0.0,0.0,0.0,0.0,0.0,0.0,0.0,0.0,4.0053,3.9675,4.023,3.9738,3.5821,0.0,0.0,0.0,0.0,0.0,0.0,0.0,0.0,0.0,0.0,0.0,3.3296,3.4711,3.5848,3.6194,3.6185,3.6185,3.6185,3.6277,3.6125,3.5504,3.493,3.4009,0.0,0.0,0.0,0.0,0.0,0.0,0.0,0.0,0.0,0.0,0.0,0.0,0.0,0.0,0.0,0.0,0.0,0.0,0.0,0.0,0.0,0.0,0.0,0.0,0.0,0.0,0.0,0.0,0.0,0.0,0.0,0.0,4.4794,4.3815,0.0,0.0,0.0,0.0,0.0,0.0,0.0,0.0,0.0,0.0,0.0,0.0,0.0,4.3815,4.4292,4.5422,4.6225,4.6702,4.7807,4.856,4.8937,4.8586,4.841,4.8335,4.8184,0.0,4.4367,4.3815,0.0,0.0,0.0,0.0,0.0,0.0,0.0,0.0,0.0,0.0,0.0,0.0,0.0,0.0,0.0,0.0,0.0,0.0,0.0,0.0,0.0,0.0,4.1949,4.2383,4.2204,4.1819,4.1201,3.8768,3.6282,3.4776,3.5184,3.4889,0.0,0.0,0.0,0.0,0.0,0.0,3.388,3.5615,3.672,3.6248,3.6185,3.6185,3.6185,3.6654,3.6493,3.5527,3.626,3.5707,3.3476,3.3102,0.0,0.0,0.0,0.0,0.0,0.0,0.0,0.0,0.0,0.0,0.0,0.0,0.0,0.0,0.0,0.0,0.0,0.0,0.0,0.0,0.0,0.0,0.0,0.0,0.0,0.0,0.0,0.0,0.0,4.4769,4.507,4.394,4.4568,4.4518,0.0,0.0,0.0,0.0,0.0,0.0,0.0,0.0,0.0,4.5171,4.57,4.6314,4.6954,4.8432,4.9241,4.9305,5.0281,5.0918,5.1082,5.0523,5.0359,5.0269,4.9939,4.8923,4.7399,4.5876,4.4543,4.3463,0.0,0.0,0.0,0.0,4.2059,4.2449,4.2602,4.271,4.2741,4.2664,0.0,0.0,0.0,0.0,0.0,0.0,0.0,3.9904,4.1439,4.2056,4.2413,4.331,4.3336,4.3054,4.2721,4.1258,3.95,3.7717,3.7439,3.6664,3.392,3.4195,0.0,0.0,0.0,3.5498,3.5769,3.7115,3.8123,3.8166,3.8161,3.8161,3.8161,3.8645,3.8795,3.8335,3.8463,3.8101,3.7035,3.5768,3.4561,0.0,0.0,0.0,0.0,0.0,0.0,0.0,0.0,0.0,0.0,0.0,0.0,0.0,0.0,0.0,0.0,0.0,0.0,0.0,0.0,0.0,0.0,0.0,0.0,0.0,0.0,0.0,0.0,4.5045,4.5648,4.4392,4.5347,4.5397,0.0,0.0,0.0,0.0,0.0,0.0,4.591,4.6002,4.6531,4.7576,4.8313,4.8999,4.9709,5.0997,5.1702,5.1569,5.224,5.2561,5.269,5.2151,5.1818,5.1665,5.1075,5.0511,4.9845,4.7846,4.6314,4.5178,4.4276,4.3934,4.4005,4.3878,4.407,4.4442,4.5161,4.5294,4.5068,4.4759,4.4116,4.3061,4.1055,0.0,0.0,0.0,0.0,4.0618,4.2213,4.2653,4.2857,4.3862,4.4119,4.3991,4.3553,4.283,4.1799,4.0134,3.9321,3.828,3.6138,3.6176,0.0,3.5077,3.5911,3.6874,3.7659,3.8466,3.9196,3.9622,3.9697,3.9697,3.9697,4.0199,4.0526,4.0526,4.0249,4.0049,3.9898,3.8265,3.7155,3.6726,0.0,0.0,0.0,0.0,0.0,0.0,0.0,0.0,0.0,0.0,0.0,0.0,0.0,0.0,0.0,0.0,0.0,0.0,0.0,0.0,0.0,0.0,0.0,0.0,0.0,0.0,0.0,0.0,0.0,4.5598,4.6803,0.0,0.0,0.0,0.0,4.7399,4.7973,4.8691,4.9625,4.9735,5.0232,5.119,5.1306,5.1588,5.2126,5.2203,5.251,5.3074,5.3166,5.3449,5.3894,5.3397,5.2766,5.2254,5.169,5.1101,5.046,4.9332,4.8205,4.7103,4.6572,4.595,4.5411,4.493,4.5084,4.5468,4.5007,4.533,4.6047,4.6539,4.5663,4.4108,4.289,4.1595,0.0,0.0,4.1698,4.2009,4.3414,4.3833,4.399,4.4537,4.4668,4.4668,4.4642,4.3515,4.2345,4.1466,4.0799,3.998,3.8825,0.0,3.7877,3.78,3.7416,3.7654,3.8992,3.9246,3.9399,3.9698,3.9697,3.9697,3.9697,4.0199,4.0526,4.0526,4.0924,4.0974,4.0501,4.0106,3.917,3.7571,3.6126,0.0,0.0,0.0,0.0,0.0,0.0,0.0,0.0,0.0,0.0,0.0,0.0,0.0,0.0,0.0,0.0,0.0,0.0,0.0,0.0,0.0,0.0,0.0,0.0,0.0,0.0,0.0,0.0,4.7316,4.8997,0.0,4.8436,4.8406,4.8682,4.9117,4.9924,5.0601,5.0934,5.1318,5.1881,5.2602,5.2825,5.3451,5.4669,5.5152,5.5816,5.6621,5.6904,5.7077,5.7268,5.6223,5.5652,5.5407,5.4426,5.3882,5.3697,5.3288,5.1443,4.8855,4.8317,4.7872,4.7534,4.7327,4.7263,4.7256,4.7048,4.7648,4.8525,4.8736,4.786,4.6599,4.5805,4.4907,4.4387,4.5066,4.523,4.5422,4.6319,4.6538,4.6387,4.5899,4.5821,4.5609,4.4884,4.3727,4.2788,4.2502,4.1543,4.0333,3.9028,3.9123,3.9043,3.8152,3.8463,3.8979,3.9495,3.9853,4.0083,4.0185,4.0211,4.0211,4.0211,4.0719,4.1025,4.1025,4.1176,4.1176,4.105,4.0593,3.9904,3.8983,3.8082,3.6539,0.0,0.0,0.0,0.0,0.0,0.0,0.0,0.0,0.0,0.0,0.0,0.0,0.0,0.0,0.0,0.0,0.0,0.0,0.0,0.0,0.0,0.0,0.0,0.0,0.0,4.8566,4.9826,4.9035,5.0614,5.137,5.0215,5.0418,5.0764,5.1151,5.1807,5.2387,5.2724,5.2928,5.3461,5.4511,5.4735,5.5522,5.7011,5.7551,5.806,5.8724,5.9002,5.9127,5.9098,5.8221,5.7631,5.7121,5.6367,5.5777,5.5412,5.5412,5.3897,5.1652,5.1069,5.0498,4.9983,4.9983,4.9725,4.9388,4.9388,4.9872,5.0464,5.02,4.9478,4.8573,4.7931,4.7362,4.694,4.7313,4.7425,4.7509,4.7931,4.8016,4.7813,4.7126,4.6919,4.6657,4.5684,4.4722,4.3999,4.3785,4.2279,4.0763,3.9788,3.9962,3.9933,3.9243,3.9582,3.9971,4.0102,4.0412,4.0593,4.0517,4.0517,4.0517,4.0517,4.067,4.0875,4.1259,4.0952,4.0824,4.1003,4.0567,4.0103,3.9537,3.8475,3.6876,3.4813,0.0,0.0,0.0,0.0,0.0,0.0,0.0,0.0,0.0,0.0,0.0,0.0,0.0,0.0,0.0,0.0,0.0,0.0,0.0,0.0,0.0,0.0,0.0,4.9472,5.1189,5.2192,5.1045,5.1859,5.2528,5.2528,5.2388,5.2647,5.3723,5.3867,5.4233,5.5139,5.4846,5.5393,5.7092,5.7157,5.7834,5.9127,5.9189,5.9189,5.9251,5.9251,5.9251,5.9251,5.9223,5.8513,5.7358,5.727,5.6626,5.5528,5.5528,5.5528,5.5444,5.4767,5.3782,5.274,5.274,5.2291,5.1674,5.1729,5.1729,5.1644,5.1079,5.0431,4.9812,4.9272,4.8624,4.8066,4.8066,4.8066,4.8066,4.8066,4.8066,4.8066,4.8066,4.8016,4.7847,4.7129,4.6539,4.5922,4.5304,4.3128,4.1348,4.1348,4.0827,4.0644,4.1219,4.0827,0.0,4.0869,4.0896,4.0795,4.0542,4.0491,4.0491,4.0491,3.9979,4.0107,4.1209,4.0235,3.9852,4.044,4.0177,3.9806,3.9284,3.7254,3.5905,3.5424,0.0,0.0,0.0,0.0,0.0,0.0,0.0,0.0,0.0,0.0,0.0,0.0,0.0,0.0,0.0,0.0,0.0,0.0,0.0,0.0,0.0,5.3942,5.4423,5.2433,5.4041,5.5423,5.5474,5.6926,5.788,5.7971,5.7897,5.7569,5.695,5.7322,5.7323,5.6574,5.7386,5.806,5.8502,5.8564,5.9189,6.0534,6.0534,6.1017,6.1998,6.1998,6.1998,6.1998,6.1527,6.0792,5.9997,5.9497,5.882,5.8055,5.8055,5.8055,5.786,5.5908,5.4372,5.3276,5.3276,5.2602,5.1783,5.2673,5.291,5.2982,5.318,5.2838,5.2161,5.1513,5.0817,5.0316,5.0316,5.0316,5.0316,5.0316,5.0316,5.0095,4.9366,4.917,4.8772,4.7278,4.6539,4.5922,4.5304,4.426,4.3225,4.2501,4.1637,4.1115,4.1298,4.1167,4.1065,4.1198,4.1198,4.1147,4.1123,4.1073,4.1073,4.1073,4.0917,4.0761,4.0657,4.0346,4.0086,3.9852,4.0389,4.0958,4.1434,3.9013,3.8016,0.0,0.0,0.0,0.0,0.0,0.0,0.0,0.0,0.0,0.0,0.0,0.0,0.0,0.0,0.0,0.0,0.0,0.0,0.0,0.0,0.0,0.0,5.7109,5.8094,5.7134,5.757,5.8013,5.8034,5.9239,6.0083,6.0083,6.0308,6.0018,5.8999,5.95,5.9283,5.8052,5.8941,5.9657,5.9957,5.9957,6.0566,6.188,6.1969,6.2321,6.3079,6.3079,6.3079,6.3079,6.269,6.2002,6.1104,6.0685,5.9967,5.9099,5.9099,5.9099,5.8936,0.0,0.0,0.0,0.0,5.3786,5.3256,5.3912,5.4119,5.4193,5.4529,5.3982,5.3114,5.2725,5.1947,5.1229,5.1229,5.1229,5.1229,5.1229,5.1229,5.1011,5.0412,5.0268,4.9948,4.8625,4.8076,4.7528,4.668,4.5895,0.0,4.42,4.3225,4.2577,4.2577,4.2577,4.2577,4.2577,4.2577,4.2577,4.2577,4.2577,4.2577,4.2577,4.2334,0.0,0.0,0.0,4.0661,4.0049,4.054,0.0,0.0,0.0,0.0,0.0,3.8871,0.0,0.0,3.6577,3.6472,0.0,0.0,0.0,0.0,0.0,0.0,0.0,0.0,0.0,0.0,0.0,0.0,0.0,0.0,0.0,0.0,5.9967,6.1463,6.2121,6.1261,6.0318,5.9711,6.024,6.0665,6.0722,6.1267,6.1197,6.0385,6.097,6.0744,5.9369,6.0036,0.0,0.0,0.0,6.191,6.3079,6.3079,6.3079,6.3079,6.3079,6.3079,6.3079,6.3079,6.2361,6.1104,6.1104,6.0356,5.9099,5.9099,5.9099,5.9099,5.8949,5.8141,5.6944,5.5658,5.5179,5.5179,5.5179,0.0,0.0,5.5179,5.4281,5.3174,5.3174,5.2247,5.1229,5.1229,5.1229,5.1229,5.1229,5.1229,5.1229,5.1229,5.1229,5.105,5.0345,5.0196,4.9807,4.8536,4.7568,4.6745,4.6075,4.5052,4.4312,4.4312,4.4312,4.4312,4.4312,4.4312,4.4312,4.4312,4.4312,0.0,4.4312,4.3825,4.3712,4.4172,4.2615,4.1464,4.0887,4.0773,4.0745,4.0901,4.028,4.028,4.0901,4.0462,4.0179,4.0094,3.8405,3.7838,0.0,0.0,0.0,0.0,0.0,0.0,0.0,0.0,0.0,0.0,0.0,0.0,0.0,0.0,0.0,5.9488,6.0954,6.2121,6.278,6.3114,6.3179,6.3032,6.3653,6.4275,6.4807,6.4955,6.4291,6.2542,6.3022,6.2614,6.0805,6.1879,6.2587,6.2701,6.2701,6.2817,6.3079,6.3079,6.3079,6.3079,6.3079,0.0,6.3079,6.3079,6.2361,6.1104,6.1104,6.0356,5.9099,5.9099,5.9099,5.9009,5.7902,5.7334,5.6944,5.5658,5.5179,5.5179,5.5179,5.5179,5.5179,5.5179,5.4281,5.3174,5.3174,5.2247,0.0,5.1229,5.1229,5.1229,5.1229,5.1229,5.1229,5.1229,5.1229,5.105,5.0345,5.0196,4.9807,4.8536,4.8134,4.7792,4.7138,4.5508,4.4312,4.4312,4.4312,4.4312,4.4312,4.4312,4.4312,4.4312,4.4312,4.4312,4.4312,4.42,4.3947,4.36,4.2857,4.2448,4.2507,4.181,4.1838,4.2739,4.1983,4.1942,4.278,4.3205,4.3146,4.2573,4.1022,4.0065,0.0,0.0,0.0,0.0,0.0,0.0,0.0,0.0,0.0,0.0,0.0,5.6466,5.7453,0.0,5.9548,6.0864,6.2181,6.3169,6.3498,6.4096,6.4395,6.4036,6.4904,6.5652,6.5981,6.6311,6.5829,6.4122,6.4636,6.413,6.2204,6.2999,6.3408,6.3079,6.3079,6.3079,6.3079,6.3079,6.3079,6.3079,6.3079,6.3079,6.3079,6.272,6.2061,6.1104,6.0745,6.0027,5.9099,5.9099,5.9099,5.9009,5.7992,5.7393,5.6974,5.6047,5.5478,5.5179,5.5179,5.5179,5.5179,5.5179,5.4521,5.3623,5.3294,5.2486,5.1648,5.1319,5.1229,5.1229,5.1229,5.1229,5.1229,5.1229,5.1229,5.1139,5.0764,5.0674,5.0375,4.9464,4.9015,4.8566,4.7908,4.6668,4.5808,4.5808,4.5808,4.5808,4.5808,4.5808,4.5808,4.5808,4.5808,4.5808,4.5808,4.5808,4.5518,4.4879,4.4603,4.4354,4.4175,4.3696,4.3717,4.4276,4.3879,4.3879,4.4317,4.4646,4.4646,4.4276,4.3512,4.2806,0.0,0.0,0.0,0.0,0.0,0.0,0.0,5.7513,5.7782,5.7393,5.7812,5.862,5.9847,6.0475,6.1253,6.248,6.3528,6.4186,6.4186,6.4784,6.5024,6.4455,6.5353,6.6071,6.6191,6.667,6.643,6.5114,6.5533,6.5024,6.3169,6.3558,6.3588,6.3079,6.3079,6.3079,6.3079,6.3079,6.3079,6.3079,6.3079,6.3079,6.3049,6.2391,6.1732,6.1074,6.0236,5.9608,5.9099,5.9099,5.9099,5.9069,5.853,5.7812,5.7034,5.6406,5.5837,5.5359,5.5239,5.5179,5.5179,5.5179,5.476,5.4072,5.3384,5.2725,5.2067,5.1409,5.1229,5.1229,5.1229,5.1229,5.1229,5.1229,5.1229,5.1229,5.1229,5.1229,5.102,5.0315,4.9823,4.9254,4.8596,4.7938,4.7459,4.7339,4.7309,4.7309,4.7309,4.7309,4.7309,4.7309,4.7309,4.7309,4.7309,4.7309,4.707,4.6561,4.6459,4.6202,4.5514,4.5484,4.5424,4.5304,4.5304,4.5304,4.5304,4.5424,4.5424,4.5304,4.5615,4.5327,5.461,5.4581,5.5508,5.7334,5.7842,5.8381,0.0,6.0625,6.0805,6.1313,6.1942,6.263,6.3318,6.3498,6.3827,6.4575,6.4814,6.4904,6.4904,6.5473,6.5862,6.5802,6.5922,6.6251,6.6819,6.6939,6.643,6.5114,6.5114,6.4545,6.3139,6.3139,6.3139,6.3079,6.3079,6.3079,6.3079,6.3079,6.3079,6.3079,6.3079,6.3079,6.3049,6.2391,6.1732,6.1044,5.9757,5.9189,5.9099,5.9099,5.9099,5.9099,5.9009,5.8201,5.7034,5.6406,5.6188,5.5987,5.5388,5.5179,5.5179,5.5179,5.476,5.4072,5.3384,5.2725,5.2067,5.1409,5.1229,5.1229,5.1229,5.1229,5.1229,5.1229,5.1229,5.1229,5.1229,5.1229,5.102,5.0315,5.0136,4.9912,4.9299,4.8626,4.7967,4.7399,4.7309,4.7309,4.7309,4.7309,4.7309,4.7309,4.7309,4.7309,4.7309,4.7309,4.7279,4.7189,4.7189,4.689,4.6232,4.6202,4.5933,4.5304,4.5304,4.5304,4.5304,4.5903,4.5903,4.5334,4.6713,4.6707,5.6226,5.6376,5.7274,5.886,5.9847,6.0745,6.1972,6.254,6.2869,6.3139,6.3737,6.4306,6.4545,6.4605,6.4695,6.4934,6.5353,6.5592,6.5592,6.6161,6.643,6.6071,6.634,6.67,6.6969,6.6999,6.661,6.5652,6.5233,6.4605,6.3647,6.3258,6.3079,6.3079,6.3079,6.3079,6.3079,6.3079,6.3079,6.3079,6.269,6.251,6.248,6.1403,6.0565,5.9907,5.9338,5.9099,5.9099,5.9099,5.9099,5.9099,5.9099,5.853,5.7603,5.6944,5.6226,5.5568,5.5299,5.5179,5.5179,5.5179,5.4999,5.4581,5.3503,5.2995,5.2546,5.1498,5.1229,5.1229,5.1229,5.1229,5.1229,5.1229,5.1229,5.1229,5.1229,5.1229,5.1139,5.0823,5.0465,5.0106,4.9883,4.8985,4.8177,4.7908,4.7549,4.7309,4.7309,4.7309,4.7309,4.7309,4.7309,4.7309,4.7309,4.7309,4.7309,4.7309,4.7309,4.7189,4.689,4.6976,4.6869,4.6471,4.6738,4.678,4.6611,4.7081,4.7166,4.6894,4.7522,4.7619,5.7274,5.7992,5.9219,6.0356,6.1642,6.2839,6.3677,6.4366,6.4814,6.4814,6.5353,6.5772,6.5592,6.5562,6.5562,6.5562,6.5981,6.6281,6.6281,6.67,6.6759,6.6071,6.643,6.6729,6.6729,6.6879,6.6729,6.6071,6.5413,6.4725,6.4036,6.3408,6.3079,6.3079,6.3079,6.3079,6.3079,6.3079,6.2989,6.281,6.2331,6.2002,6.1792,6.0625,5.9727,5.9099,5.9099,5.9099,5.9099,5.9099,5.9099,5.9099,5.8919,5.8411,5.7752,5.7094,5.6256,5.5448,5.5239,5.5179,5.5179,5.5179,5.5179,5.497,5.3803,5.3324,5.2935,5.1798,5.1349,5.1229,5.1229,5.1229,5.1229,5.1229,5.1229,5.1229,5.1229,5.1229,5.1229,5.1229,5.0794,5.0465,5.0465,4.9583,4.8775,4.8596,4.7997,4.7519,4.7339,4.7309,4.7309,4.7309,4.7309,4.7309,4.7309,4.7309,4.7309,4.7309,4.7309,4.7309,4.7396,4.7495,4.7538,4.7495,4.7837,4.788,4.7709,4.7922,4.8007,4.8007,4.8049,4.8175,5.7274,5.9009,6.1194,6.1882,6.2989,6.4306,6.5622,6.643,6.6909,6.6909,6.7418,6.7687,6.7059,6.6939,6.6939,6.6939,6.6939,6.6969,6.6969,6.6969,6.6759,6.6071,6.6011,6.6041,6.6041,6.661,6.6729,6.6071,6.5413,6.4725,6.4036,6.3408,6.3079,6.3079,6.3079,6.3079,6.3079,6.3079,6.275,6.2121,6.2121,6.1762,6.1134,6.0416,5.9727,5.9099,5.9099,5.9099,5.9099,5.9099,5.9099,5.9039,5.8411,5.7723,5.7064,5.6436,5.6218,5.6098,5.5418,5.5179,5.5179,5.5179,5.5179,5.5059,5.4371,5.3713,5.3025,5.2366,5.1708,5.1229,5.1229,5.1229,5.1229,5.1229,5.1229,5.1229,5.1229,5.1229,5.1229,5.1229,5.1199,5.1199,5.1199,5.0584,4.9972,4.9389,4.8686,4.8027,4.7399,4.7309,4.7309,4.7309,4.7309,4.7309,4.7309,4.7309,4.7309,4.7309,4.7309,4.7396,4.7581,4.7581,4.7709,4.7964,4.8007,4.8007,4.7964,4.8007,4.8007,4.8007,4.8218,4.8301,5.877,6.0386,6.2032,6.3079,6.4366,6.5562,6.646,6.6819,6.6999,6.6999,6.6819,6.661,6.637,6.634,6.634,6.634,6.67,6.6999,6.6999,6.6999,6.658,6.5503,6.5742,6.5832,6.5413,6.5951,6.6251,6.6011,6.5413,6.4725,6.4036,6.3408,6.3079,6.3079,6.3079,6.3079,6.3079,6.266,6.2301,6.2091,6.1194,6.0416,5.9787,5.9548,5.9308,5.9099,5.9099,5.9099,5.9069,5.865,5.8471,5.8381,5.7693,5.7034,5.6466,5.6256,5.5948,5.5478,5.5269,5.5179,5.5179,5.5179,5.5179,5.5059,5.4401,5.3713,5.3054,5.2396,5.1738,5.1229,5.1229,5.1229,5.1229,5.1229,5.1229,5.1229,5.1229,5.1229,5.1229,5.1229,5.1229,5.1229,5.1229,5.0614,5.0048,4.9569,4.8415,4.7549,4.7339,4.7309,4.7309,4.7309,4.7309,4.7309,4.7309,4.7309,4.7309,4.7309,4.7439,4.7538,4.7581,4.788,4.8049,4.8007,4.826,4.8343,4.8218,4.8343,4.8427,4.8427,4.8469,4.848,6.0386,6.1942,6.3408,6.4455,6.5533,6.646,6.6879,6.7178,6.7208,6.6729,6.6311,6.5862,6.5383,6.5114,6.5114,6.5592,6.6221,6.6729,6.6969,6.7208,6.6849,6.5533,6.5742,6.5832,6.5413,6.5533,6.5742,6.5981,6.5413,6.4725,6.4036,6.3408,6.3079,6.3079,6.3079,6.3079,6.3079,6.2421,6.1852,6.1373,6.0266,5.9518,5.9099,5.9099,5.9099,5.9099,5.9099,5.8979,5.871,5.8291,5.7992,5.7693,5.7034,5.6526,5.6188,5.5897,5.5568,5.5179,5.5179,5.5179,5.5179,5.5179,5.5179,5.5119,5.47,5.3922,5.3084,5.2665,5.1917,5.1229,5.1229,5.1229,5.1229,5.1229,5.1229,5.1229,5.1229,5.0973,5.0883,5.1169,5.0973,5.0913,5.1169,5.0707,5.0275,5.0125,4.904,4.8126,4.7799,4.7502,4.7309,4.7309,4.7352,4.7439,4.7439,4.7525,4.7568,4.7568,4.7666,4.7794,4.7837,4.8133,4.826,4.8218,4.8469,4.8521,4.8427,4.8521,4.8604,4.8604,4.8604,4.8604,6.2002,6.3617,6.5233,6.5862,6.649,6.6969,6.6939,6.7418,6.7508,6.6221,6.5892,6.5443,6.4216,6.3498,6.3498,6.4814,6.5652,6.6311,6.6909,6.7567,6.7478,6.6161,6.6011,6.6011,6.6011,6.5413,6.5293,6.5922,6.5353,6.4665,6.3977,6.3408,6.3079,6.3079,6.3079,6.3079,6.3079,6.2391,6.1373,6.0027,5.9398,5.9099,5.9099,5.9099,5.9099,5.9099,5.9069,5.871,5.8058,5.8052,5.7633,5.6974,5.6376,5.6188,5.6047,5.5418,5.5179,5.5179,5.5179,5.5179,5.5179,5.5179,5.5179,5.5179,5.5179,5.4251,5.3174,5.3174,5.2247,5.1229,5.1229,5.1229,5.1229,5.1229,5.1229,5.1229,5.1229,5.0644,5.0375,5.105,5.0631,5.0391,5.105,5.0862,5.0698,5.103,5.0498,4.9711,4.8752,4.7902,4.7382,4.7352,4.7525,4.7624,4.7624,4.7837,4.8007,4.8007,4.8007,4.8091,4.8301,4.8301,4.8427,4.8604,4.8604,4.8604,4.8604,4.8604,4.8604,4.8604,4.8604,4.8604,6.3199,6.4605,6.5802,6.5981,6.649,6.6879,6.637,6.64,6.6281,6.5443,6.4126,6.3288,6.3887,6.3498,6.3498,6.4814,6.64,6.7358,6.7029,6.7567,6.7478,6.6161,6.6011,6.6011,6.6011,6.5413,6.5114,6.5263,6.4635,6.3977,6.3348,6.3169,6.3079,6.3079,6.3079,6.3079,6.3079,6.1942,6.0685,5.9338,5.9189,5.9099,5.9099,5.9099,5.9099,5.9069,5.859,5.8291,5.8052,5.7064,5.6555,5.6346,5.5688,5.5448,5.5418,5.5239,5.5179,5.5179,5.5179,5.5179,5.5179,5.5179,5.5179,5.5179,5.5179,5.4251,5.3174,5.3174,5.2247,5.1229,5.1229,5.1229,5.1229,5.1229,5.1229,5.1229,5.1229,5.0644,5.0255,5.0405,5.0079,4.9975,5.0637,5.0819,5.1152,5.1865,5.1287,5.0302,4.9075,4.8685,4.8382,4.7855,4.788,4.788,4.788,4.7964,4.8007,4.8007,4.8133,4.826,4.8301,4.8438,4.8521,4.8604,4.8604,4.8604,4.8604,4.8604,4.8604,4.8604,4.8604,4.8604,6.4605,6.5443,6.6071,6.637,6.649,6.6311,6.5353,6.4904,6.4366,6.3109,6.1762,6.1104,6.2091,6.1762,6.2061,6.4216,6.5772,6.6759,6.6969,6.7567,6.7597,6.655,6.643,6.643,6.643,6.5592,6.5024,6.5024,6.4395,6.3737,6.3109,6.3079,6.3079,6.3079,6.3079,6.281,6.2211,6.1194,6.0146,5.9099,5.9099,5.9099,5.9099,5.9099,5.9099,5.9069,5.871,5.8231,5.7633,5.6885,5.6256,5.5718,5.5329,5.5179,5.5179,5.5179,5.5179,5.5179,5.5179,5.5179,5.5179,5.5179,5.5179,5.5179,5.5179,5.4461,5.3563,5.3264,5.2456,5.1588,5.1289,5.1229,5.1229,5.1229,5.1229,5.1229,5.1339,5.0737,5.0152,4.9944,5.0005,5.0246,5.0789,5.0816,5.1072,5.232,5.1801,5.1039,5.0289,4.9504,4.8736,4.8067,4.8091,4.8133,4.8133,4.8218,4.826,4.826,4.8385,4.8438,4.8438,4.8521,4.8604,4.8604,4.8604,4.8604,4.8604,4.8604,4.8604,4.8604,4.8604,4.8604,6.5862,6.6071,6.6281,6.6849,6.649,6.5622,6.4186,6.3408,6.2391,6.0356,5.9368,5.9129,6.0057,5.9668,6.0326,6.3588,6.4784,6.5682,6.6819,6.7567,6.7717,6.7059,6.6999,6.6999,6.6999,6.5892,6.5114,6.5054,6.4395,6.3737,6.3109,6.3079,6.3049,6.2959,6.2869,6.2211,6.0984,6.0386,5.9757,5.9099,5.9099,5.9099,5.9099,5.9099,5.9069,5.8979,5.889,5.8141,5.6974,5.6885,5.6196,5.5179,5.5179,5.5179,5.5179,5.5179,5.5179,5.5179,5.5179,5.5229,5.5229,5.5229,5.5229,5.5179,5.528,5.478,5.4072,5.3432,5.2744,5.2037,5.1426,5.1246,5.1246,5.1246,5.1276,5.1369,5.1556,5.0876,5.0124,4.9733,5.005,5.0517,5.0934,5.0608,5.0726,5.2192,5.2021,5.1682,5.159,5.0166,4.8974,4.8304,4.8321,4.8343,4.8343,4.848,4.8604,4.8604,4.8604,4.8604,4.8604,4.8604,4.8604,4.8604,4.8604,4.8604,4.8604,4.8604,4.8604,4.8604,4.8604,4.8604,6.5981,6.64,6.6849,6.6969,6.649,6.5533,6.3677,6.272,6.1702,5.9697,5.8291,5.8171,6.0505,6.0386,6.0984,6.4306,6.5862,6.6729,6.6969,6.7567,6.7717,6.7059,6.6999,6.6999,6.6999,6.6281,6.5622,6.5054,6.4395,6.3737,6.3109,6.3079,6.2839,6.2271,6.1732,6.1074,6.0266,6.0146,5.9757,5.9099,5.9099,5.9099,5.9099,5.9099,5.88,5.8261,5.7693,5.7004,5.6286,5.5748,5.5388,5.5179,5.5179,5.5179,5.5179,5.5179,5.5179,5.5179,5.5179,5.533,5.5531,5.5531,5.5381,5.528,5.5731,5.5079,5.4121,5.3657,5.287,5.2085,5.166,5.1526,5.1526,5.1526,5.1695,5.1787,5.1618,5.106,5.0397,5.0001,4.959,4.933,4.9603,4.9726,5.007,5.0913,5.1436,5.1498,5.0944,5.0623,5.0181,4.9505,4.889,4.8521,4.8521,4.8563,4.8604,4.8604,4.8604,4.8604,4.8604,4.8604,4.8604,4.8604,4.8604,4.8604,4.8604,4.8604,4.8604,4.8604,4.8604,4.8604,6.652,6.6759,6.6999,6.6999,6.649,6.5323,6.266,6.1523,6.0296,5.7603,5.6555,5.6705,5.865,5.874,5.9398,6.2032,6.2989,6.3857,6.5233,6.5712,6.6161,6.6909,6.6999,6.6999,6.6999,6.6071,6.5383,6.4994,6.4096,6.3378,6.3079,6.275,6.2421,6.2121,6.1104,6.0416,6.0086,5.9727,5.9428,5.9099,5.9099,5.9099,5.9099,5.9099,5.874,5.8112,5.7782,5.7064,5.6188,5.5837,5.5508,5.5179,5.5179,5.5179,5.5179,5.5179,5.5179,5.5229,5.533,5.5481,5.5631,5.5929,5.583,5.5681,5.5929,5.5618,5.4937,5.4086,5.3446,5.2916,5.206,5.1787,5.1787,5.1787,5.1972,5.2109,5.188,5.1653,5.1319,5.0784,5.0114,4.9743,4.9959,4.9505,4.9497,5.0543,5.0974,5.119,5.1221,5.1221,5.0944,5.0266,4.9589,4.9158,4.9158,4.882,4.8758,4.9158,4.882,4.8789,4.9158,4.882,4.8604,4.8604,4.8604,4.8604,4.8604,4.8604,4.8604,4.8604,4.8604,4.8604,6.6999,6.7089,6.7178,6.7029,6.649,6.5144,6.1852,6.0565,5.9159,5.5867,5.5179,5.5568,5.6855,5.7094,5.7752,5.9757,6.0206,6.1164,6.3647,6.4126,6.4904,6.6759,6.6999,6.6939,6.6789,6.5832,6.5114,6.4844,6.3737,6.3019,6.2869,6.2241,6.1822,6.1672,6.0505,5.9877,5.9877,5.9368,5.9099,5.9099,5.9099,5.9099,5.9099,5.8949,5.853,5.7902,5.7752,5.7034,5.6008,5.6059,5.5709,5.5179,5.533,5.528,5.5179,5.5229,5.528,5.533,5.5531,5.5681,5.583,5.6274,5.6225,5.6028,5.6127,5.6077,5.5755,5.4466,5.4023,5.3672,5.2428,5.2063,5.2063,5.2139,5.2246,5.2291,5.2337,5.2337,5.2153,5.1678,5.1005,5.0529,5.047,4.9558,4.9158,5.0112,5.0389,5.0667,5.119,5.1405,5.1344,5.0944,5.0297,4.9897,4.9897,4.9374,4.9312,4.9866,4.9374,4.9312,4.9866,4.9374,4.9066,4.9066,4.9066,4.9066,4.9066,4.9066,4.9066,4.9066,4.9066,4.9066,6.6999,6.7418,6.7747,6.7148,6.649,6.5144,6.1852,6.0565,5.9159,5.5867,5.5179,5.5568,5.6855,5.7094,5.7752,5.9757,6.0625,6.1732,6.3707,6.4545,6.5443,6.6819,6.6999,6.6759,6.6161,6.5981,6.5413,6.4186,6.3468,6.281,6.2211,6.1553,6.0924,6.0296,5.9578,5.9189,5.9189,5.9129,5.9099,5.9099,5.9099,5.9099,5.9069,5.8501,5.7842,5.7154,5.6585,5.5957,5.5319,5.5521,5.5491,5.5229,5.5731,5.5631,5.5229,5.5481,5.5581,5.5581,5.5581,5.5929,5.6323,5.6372,5.6225,5.6077,5.6567,5.6372,5.5804,5.4704,5.4165,5.3719,5.2582,5.2261,5.2306,5.2563,5.2473,5.2535,5.3361,5.2902,5.2321,5.2547,5.1829,5.0927,4.9947,4.9682,4.9404,4.8881,4.9343,4.9805,4.9866,5.042,5.1005,5.1559,5.1005,5.0605,5.0605,5.0543,5.0543,5.0605,5.0543,5.0543,5.0605,5.0543,5.0513,5.0513,5.0513,5.0513,5.0513,5.0513,5.0513,5.0513,5.0513,5.0513,6.6191,6.6879,6.7328,6.7059,6.6789,6.5652,6.1942,6.0894,5.9668,5.5957,5.5179,5.5329,5.5867,5.5957,5.6226,5.7004,5.7363,5.8501,6.1253,6.1882,6.3139,6.6041,6.6041,6.5862,6.6011,6.5263,6.4425,6.3528,6.3228,6.278,6.2121,6.1463,6.0984,6.0715,5.9668,5.9099,5.9099,5.9099,5.9099,5.9099,5.9099,5.889,5.8501,5.8231,5.7543,5.6526,5.6286,5.5909,5.5431,5.5531,5.5631,5.5681,5.5929,5.578,5.5431,5.5581,5.5581,5.5631,5.578,5.6077,5.6421,5.6616,5.6567,5.6519,5.6713,5.6664,5.6243,5.4941,5.4496,5.4142,5.2855,5.2563,5.2563,5.2653,5.2608,5.2624,5.3022,5.2793,5.2563,5.2653,5.2055,5.144,5.1005,5.0236,4.9589,4.9312,4.9497,4.9682,4.9682,5.0266,5.079,5.1067,5.0851,5.0851,5.1251,5.0944,5.0882,5.1282,5.0913,5.0882,5.1282,5.0913,5.0697,5.0697,5.0697,5.0697,5.0697,5.0697,5.0697,5.0697,5.0697,5.0697,6.5922,6.6939,6.7537,6.7328,6.6849,6.5533,6.2181,6.0954,5.9518,5.5927,5.5179,5.5179,5.5179,5.5179,5.5179,5.5179,5.5688,5.6885,5.9189,6.0027,6.1433,6.4246,6.4336,6.4336,6.4814,6.4156,6.3558,6.3109,6.3079,6.278,6.2121,6.1463,6.1014,6.0805,5.9697,5.9099,5.9099,5.9099,5.9099,5.9099,5.8919,5.859,5.8112,5.7723,5.7034,5.6218,5.6059,5.5882,5.5631,5.578,5.588,5.6028,5.6077,5.5929,5.5731,5.5731,5.578,5.588,5.6077,5.6274,5.6567,5.6713,5.681,5.681,5.681,5.6656,5.6207,5.5037,5.4406,5.3899,5.2975,5.2698,5.2698,5.2698,5.2698,5.2698,5.2698,5.2698,5.2698,5.2698,5.2329,5.1929,5.1744,5.0913,5.0143,4.9743,4.9682,4.962,4.9404,4.9774,5.0174,5.0389,5.0574,5.0974,5.1652,5.1436,5.1498,5.1959,5.1559,5.1498,5.199,5.1528,5.1282,5.1282,5.1282,5.1282,5.1282,5.1282,5.1282,5.1282,5.1282,5.119,6.664,6.7956,6.8824,6.8136,6.649,6.4515,6.254,6.0565,5.8381,5.5748,5.5179,5.5179,5.5179,5.5179,5.5179,5.5179,5.6825,5.8112,5.8141,5.9847,6.1104,6.1164,6.1732,6.2121,6.2121,6.272,6.3079,6.3079,6.3079,6.278,6.2121,6.1463,6.0805,6.0116,5.9458,5.9099,5.9099,5.9099,5.9099,5.9099,5.8441,5.8141,5.8082,5.6765,5.6248,5.6188,5.5782,5.5581,5.5631,5.6176,5.6225,5.6028,5.6274,5.6225,5.5979,5.5979,5.6176,5.6372,5.6372,5.6567,5.681,5.681,5.681,5.681,5.681,5.6269,5.5561,5.4914,5.373,5.2729,5.2698,5.2698,5.2698,5.2698,5.2698,5.2698,5.2698,5.2698,5.2698,5.2698,5.2698,5.2483,5.1805,5.1682,5.1221,4.9897,4.9682,4.9435,4.8727,4.8635,4.8912,4.962,5.0297,5.0974,5.1652,5.2298,5.2698,5.2698,5.2698,5.2698,5.2698,5.2698,5.2698,5.2698,5.2698,5.2698,5.2698,5.2698,5.2698,5.2698,5.2698,5.2329,6.2032,6.3588,6.4784,6.4126,6.3498,6.251,6.0505,5.9219,5.7812,5.5628,5.5179,5.5179,5.5179,5.5179,5.5329,5.5777,5.6376,5.7094,5.7992,5.9069,6.0086,6.1014,6.2091,6.278,6.278,6.2959,6.3079,6.3079,6.266,6.2301,6.2121,6.1014,6.0326,6.0086,5.9458,5.9099,5.9099,5.9099,5.889,5.8441,5.8231,5.7663,5.6765,5.6346,5.5927,5.5529,5.5571,5.5681,5.588,5.6274,5.647,5.6567,5.6664,5.6519,5.6274,5.6274,5.6323,5.6421,5.6421,5.6567,5.681,5.681,5.681,5.6717,5.6176,5.5869,5.5468,5.436,5.3406,5.2698,5.2698,5.2698,5.2698,5.2698,5.2698,5.2698,5.2698,5.2698,5.2698,5.2698,5.2698,5.2637,5.2421,5.2021,5.1559,5.1128,5.0266,4.962,4.9374,4.8912,4.8696,4.8943,4.9989,5.0974,5.1652,5.2329,5.2698,5.2698,5.2698,5.2698,5.2698,5.2698,5.2698,5.2698,5.2698,5.2698,5.2698,5.2698,5.2698,5.2698,5.2236,5.1898,6.0326,6.1942,6.2989,6.257,6.1912,6.0954,5.9428,5.8201,5.6974,5.5508,5.5179,5.5179,5.5179,5.5179,5.5329,5.5718,5.6436,5.6944,5.7004,5.8231,5.9428,6.0266,6.1074,6.1882,6.263,6.2929,6.2989,6.272,6.2331,6.1882,6.1373,6.0535,5.9967,5.9727,5.9308,5.9099,5.9099,5.886,5.853,5.8112,5.7633,5.6974,5.6218,5.5927,5.5568,5.5229,5.5581,5.583,0.0,5.6421,5.6664,5.681,5.6713,5.6616,5.6519,5.6421,5.647,5.6567,5.6567,5.6664,5.681,5.681,5.6625,5.6238,5.553,5.5161,5.473,5.3652,5.3037,5.2698,5.2698,5.2698,5.2698,5.2698,5.2698,5.2698,5.2698,5.2698,5.2698,5.2698,5.2698,5.279,5.3037,5.2544,5.2082,5.2082,5.1159,5.0359,5.0112,4.9682,4.9312,4.9035,5.002,5.0882,5.1282,5.2175,5.2698,5.2698,5.2698,5.2698,5.2698,5.2698,5.2698,5.2698,5.2698,5.2698,5.2698,5.2698,5.2698,5.2698,5.2021,5.1559,0.0,6.2151,6.263,6.26,6.1194,5.9638,5.9039,5.7453,0.0,5.5329,5.5179,5.5179,5.5119,5.5149,5.5179,5.5179,5.6765,5.7334,5.5508,5.7453,5.9099,5.9249,5.9279,6.0057,6.1972,6.266,6.275,6.2151,6.2002,6.1403,6.0146,6.0027,5.9727,5.9129,5.9099,5.9099,5.9099,5.8471,5.8112,5.8022,5.6765,5.6188,5.6077,5.5478,5.5179,5.5229,5.578,5.5979,5.6028,5.6567,5.681,5.6761,5.6519,5.6567,5.6761,5.6519,5.6567,5.681,5.681,5.681,5.681,5.681,5.6286,5.5499,5.4914,5.4222,5.3591,5.2914,5.2698,5.2698,5.2698,5.2698,5.2698,5.2698,5.2698,5.2698,5.2698,5.2698,5.2698,5.2698,5.2698,5.2914,5.3545,5.316,5.2729,5.276,5.2175,5.1467,5.0851,5.0728,5.0451,4.9835,5.0359,5.0759,5.0759,5.1929,5.2667,5.2698,5.2698,5.2698,5.2698,5.2698,5.2698,5.2698,5.2698,5.2698,5.2698,5.2698,5.2698,5.2698,5.2021,5.1374,5.7184,0.0,5.8381,5.7902,5.7453,5.7116,0.0,5.6107,5.5388,5.5209,5.5179,5.5029,5.4521,5.485,5.5179,5.5179,5.5987,5.6466,5.6017,5.7334,5.8919,6.0475,6.1074,6.1762,6.275,6.254,6.2271,6.2121,6.1134,6.0416,6.0116,5.9608,5.9249,5.9099,5.9099,5.9099,5.9099,5.8471,5.7872,5.7334,5.6526,5.5897,5.5418,5.5269,5.5179,5.5229,5.578,5.5979,5.6028,5.6567,5.681,5.681,5.6713,5.6761,5.681,5.6713,5.6761,5.681,5.681,5.681,5.681,5.681,5.593,5.4914,5.4745,5.4222,5.3591,5.2914,5.2698,5.2698,5.2698,5.2698,5.2698,5.2698,5.2698,5.2698,5.2698,5.2698,5.2698,5.2698,5.2698,5.2914,5.3545,5.316,5.2883,5.3406,5.2483,5.1652,5.1498,5.1005,5.0636,5.0482,5.1067,5.1467,5.1467,5.1744,5.2144,5.2667,5.2698,5.2698,5.2698,5.2698,5.2698,5.2698,5.2698,5.2698,5.2698,5.2698,5.2698,5.2698,5.2021,5.1621,5.5628,5.6406,5.7004,5.6675,5.6585,5.6526,5.6226,5.5658,5.5179,5.5179,5.5179,5.4999,5.4341,5.4491,5.464,5.4311,5.5089,5.6047,5.6944,5.7393,5.8501,6.0835,6.1433,6.1912,6.257,6.2301,6.1822,6.1224,6.0505,5.9967,5.9668,5.9308,5.9099,5.9099,5.88,5.865,5.865,5.7992,5.7334,5.6675,5.6017,5.5538,5.5179,5.5179,5.5179,5.5229,5.5631,5.588,5.6028,5.647,5.6713,5.681,5.681,5.681,5.681,5.681,5.681,5.681,5.681,5.681,5.6748,5.644,5.5561,5.4621,5.4314,5.376,5.3191,5.2821,5.2698,5.2698,5.2698,5.2698,5.2698,5.2698,5.2698,5.2698,5.2698,5.2698,5.2698,5.2698,5.2698,5.2914,5.3545,5.316,5.2944,5.3622,5.2821,5.2175,5.2175,5.1836,5.1498,5.119,5.1498,5.1836,5.2144,5.2175,5.2329,5.2698,5.2698,5.2698,5.2698,5.2698,5.2698,5.2698,5.2698,5.2698,5.2698,5.2698,5.2698,5.2698,5.2021,5.1713,5.5179,5.6107,5.7034,5.6855,5.6885,5.6795,5.6166,5.5598,5.5179,5.5179,5.5179,5.497,5.4192,5.4221,5.4132,5.3443,5.4551,5.6107,5.7872,5.7782,5.8411,6.0685,6.1134,6.1433,6.1912,6.1852,6.1313,6.0176,5.9997,5.9697,5.9129,5.9099,5.9099,5.9099,5.8471,5.8082,5.7962,5.7304,5.6705,5.6218,5.5508,5.5179,5.5179,5.5179,5.5179,5.5179,5.5481,5.5731,5.6028,5.6274,5.6567,5.681,5.681,5.681,5.681,5.681,5.681,5.681,5.681,5.681,5.6717,5.6053,5.5345,5.4591,5.4006,5.3345,5.2698,5.2698,5.2698,5.2698,5.2698,5.2698,5.2698,5.2698,5.2698,5.2698,5.2698,5.2698,5.2698,5.2698,5.2698,5.2914,5.3545,5.316,5.2944,5.3622,5.316,5.2698,5.2698,5.2698,5.2483,5.1929,5.1959,5.2236,5.2821,5.2975,5.3037,5.3037,5.3037,5.3037,5.3037,5.2914,5.2914,5.3006,5.2914,5.2914,5.3037,5.3037,5.3037,5.3006,5.2421,5.2175,5.5179,5.6107,5.6825,5.5748,5.5897,5.6188,5.5478,5.5269,5.5179,5.5179,5.5179,5.482,5.3563,5.4281,5.482,5.4162,5.5598,5.7124,5.7992,5.8979,5.9787,6.0206,6.1253,6.1762,6.1313,6.0745,6.0296,6.0116,5.9578,5.9219,5.9099,5.9099,5.9099,5.9099,5.8471,5.7842,5.7244,5.6615,5.6308,5.6218,5.5508,5.5179,5.5179,5.5179,5.5179,5.5179,5.5481,5.5731,5.6028,5.6274,5.6567,5.681,5.681,5.681,5.681,5.681,5.681,5.681,5.681,5.681,5.6779,5.6686,5.5745,5.4652,5.456,5.3668,5.2698,5.2698,5.2698,5.2698,5.2698,5.2698,5.2698,5.2698,5.2698,5.2698,5.2698,5.2698,5.2698,5.2698,5.2698,5.2914,5.3545,5.316,5.2944,5.3622,5.316,5.2698,5.2698,5.2698,5.2667,5.2575,5.3067,5.3437,5.356,5.4083,5.4375,5.4375,5.4375,5.4375,5.4375,5.3822,5.3791,5.4375,5.3868,5.3837,5.4375,5.4375,5.4375,5.4375,5.4283,5.4222,5.5179,5.5867,5.6577,5.6522,5.662,5.6585,5.6286,5.5688,5.5089,5.473,5.467,5.4371,5.3354,5.3982,5.479,5.5209,5.6017,5.7064,5.8471,5.9189,5.9817,6.0565,6.1194,6.1313,6.0625,6.0266,5.9937,5.9578,5.9279,5.9099,5.9099,5.9099,5.8949,5.859,5.7932,5.7244,5.6585,5.5957,5.5658,5.5628,5.5329,5.5179,5.5179,5.5179,5.5179,5.5179,5.533,5.5631,5.6028,5.6127,5.6421,5.681,5.681,5.681,5.681,5.681,5.681,5.681,5.681,5.681,5.6748,5.6347,5.553,5.4621,5.4252,5.3498,5.2698,5.2698,5.2698,5.2698,5.2698,5.2698,5.2698,5.2698,5.2698,5.2698,5.2698,5.2698,5.2698,5.2698,5.2698,5.2821,5.3129,5.2914,5.2821,5.3129,5.2914,5.2698,5.2698,5.2698,5.2698,5.2698,5.3006,5.3345,5.3637,5.3976,5.4283,5.4652,5.4683,5.4683,5.4683,5.4375,5.4375,5.4683,5.4375,5.4375,5.4683,5.4683,5.4683,5.4683,5.4683,5.4683,5.52,5.576,5.6573,5.7389,5.7385,5.7288,5.7588,5.6809,5.5849,5.5239,5.4999,5.464,5.3803,5.4221,5.5029,5.6196,5.6645,5.7393,5.889,5.9249,5.9668,6.0535,6.0775,6.0595,5.9907,5.9847,5.9638,5.9129,5.9099,5.9099,5.9099,5.8949,5.865,5.8141,5.7304,5.6645,5.6218,5.5538,5.5179,5.5179,5.5179,5.5179,5.5179,5.5179,5.5179,5.5179,5.528,5.5581,5.6028,5.6077,5.6372,5.681,5.681,5.681,5.681,5.681,5.681,5.681,5.681,5.681,5.6717,5.6115,5.5499,5.4822,5.4129,5.3591,5.316,5.3006,5.2944,5.2914,5.276,5.2698,5.2698,5.2698,5.2698,5.2698,5.2698,5.2698,5.2698,5.2698,5.2698,5.2698,5.2698,5.2698,5.2698,5.2698,5.2698,5.2698,5.2698,5.2698,5.2698,5.2698,5.2852,5.3221,5.3899,5.4083,5.4484,5.524,5.5193,5.5191,5.5191,5.5037,5.5037,5.5191,5.5037,5.5037,5.5191,5.5191,5.5191,5.5191,5.5191,5.5191,5.513,5.5983,5.6971,5.7493,5.757,5.7872,5.9161,5.8866,5.8249,5.7925,5.7334,5.6526,5.5269,5.5598,5.6256,5.6915,5.8082,5.8949,5.9069,5.9638,5.9817,5.9308,5.9787,5.9907,5.9249,5.9189,5.9159,5.9099,5.9099,5.9099,5.9099,5.853,5.8171,5.8112,5.6885,5.6226,5.6218,5.5538,5.5179,5.5179,5.5179,5.5179,5.5179,5.5179,5.5179,5.5179,5.5481,5.5731,5.6028,5.6274,5.6567,5.681,5.681,5.681,5.681,5.681,5.681,5.681,5.681,5.681,5.681,5.6748,5.6255,5.5499,5.4806,5.4591,5.4406,5.3837,5.3652,5.3498,5.2883,5.2698,5.2698,5.2698,5.2698,5.2698,5.2698,5.2698,5.2698,5.2698,5.2698,5.2698,5.2698,5.2698,5.2698,5.2698,5.2698,5.2698,5.2698,5.2698,5.2698,5.2698,5.3283,5.3883,5.456,5.5191,5.5984,5.6861,5.673,5.6656,5.6656,5.5961,5.593,5.6656,5.5961,5.593,5.6656,5.6656,5.6656,5.6656,5.6656,5.6656,5.4819,5.5228,5.6039,5.7689,5.8136,5.8419,5.9599,5.9334,5.8827,5.8692,5.7992,5.7062,5.6008,5.6316,5.6974,5.7633,5.8501,5.9249,5.9668,5.9578,5.9548,5.9697,5.9578,5.9368,5.9129,5.9099,5.9099,5.9099,5.9099,5.9099,5.9099,5.8471,5.7932,5.7483,5.6645,5.5987,5.5568,5.5329,5.5179,5.5179,5.5179,5.5179,5.5179,5.5179,5.528,5.5431,5.5531,5.583,5.6274,5.6372,5.6567,5.681,5.681,5.681,5.681,5.681,5.681,5.681,5.681,5.681,5.681,5.681,5.6269,5.5653,5.5407,5.5037,5.4621,5.4375,5.4314,5.416,5.3529,5.3037,5.2698,5.2698,5.2698,5.2698,5.2698,5.2698,5.2698,5.2698,5.2698,5.2698,5.2698,5.2698,5.2698,5.2698,5.2698,5.2698,5.2698,5.2698,5.2698,5.2698,5.2944,5.3191,5.3437,5.4483,5.524,5.5581,5.6435,5.7136,5.7653,5.6511,5.6171,5.6779,5.5653,5.5653,5.681,5.633,5.6378,5.681,5.681,5.681,5.4624,5.4746,5.5341,5.7534,5.8154,5.8552,5.9906,6.0136,6.0031,5.9978,5.894,5.7825,5.7166,5.7286,5.7595,5.8286,5.8841,5.9357,5.9861,5.9423,5.9279,5.9727,5.9368,5.9099,5.9099,5.9099,5.9099,5.9099,5.9099,5.9009,5.88,5.8171,5.7483,5.6825,5.6196,5.5658,5.5179,5.5179,5.5179,5.5179,5.5179,5.5179,5.5179,5.528,5.5431,5.5581,5.5681,5.5979,5.6421,5.6421,5.6567,5.681,5.681,5.681,5.681,5.681,5.681,5.681,5.681,5.681,5.681,5.681,5.6471,5.5992,5.5745,5.5376,5.4976,5.4745,5.4529,5.4252,5.3791,5.3375,5.2975,5.276,5.2698,5.2698,5.2698,5.2698,5.2698,5.2698,5.2698,5.2698,5.2698,5.2698,5.2698,5.2698,5.2698,5.2698,5.2698,5.2698,5.2698,5.2698,5.2698,5.2698,5.2698,5.396,5.473,5.4851,5.6244,5.7299,5.7832,5.6649,5.6406,5.7308,5.6369,5.6356,5.7258,5.6714,5.6603,5.681,5.681,5.681,5.4734,5.4765,5.5128,5.696,5.7629,5.83,6.0332,6.166,6.2317,6.2074,6.0434,5.9036,5.9036,5.8489,5.8246,5.8915,5.9289,5.9529,5.9529,5.9261,5.9099,5.9099,5.9099,5.9099,5.9099,5.9099,5.9099,5.9099,5.9099,5.88,5.8171,5.7453,5.6795,5.6248,5.5538,5.5179,5.5179,5.5179,5.5179,5.5179,5.5179,5.5179,5.5179,5.5481,5.5581,5.5631,5.588,5.6176,5.6421,5.6421,5.6567,5.681,5.681,5.681,5.681,5.681,5.681,5.681,5.681,5.681,5.681,5.681,5.681,5.6686,5.5899,5.5684,5.5561,5.4914,5.4191,5.3745,5.3714,5.3714,5.356,5.2883,5.2698,5.2698,5.2698,5.2698,5.2698,5.2698,5.2698,5.2698,5.2698,5.2698,5.2698,5.2698,5.2729,5.2729,5.2729,5.2729,5.2729,5.2729,5.2729,5.2729,5.2729,5.3914,5.4806,5.5083,5.6477,5.7226,5.6997,5.6365,5.6822,5.8475,5.841,5.8362,5.8211,5.8211,5.77,5.681,5.681,5.681,5.3708,5.4234,5.5052,5.6621,5.7728,5.9008,6.104,6.2073,6.2764,6.2951,6.1767,6.0494,5.9796,5.9158,5.8793,5.8975,5.9478,5.9827,5.9827,5.9583,5.9369,5.9369,5.9207,5.9099,5.9099,5.9099,5.9099,5.9099,5.868,5.8321,5.8141,5.7064,5.6346,5.6248,5.5538,5.5179,5.5179,5.5179,5.5179,5.5179,5.5179,5.5179,5.5179,5.5481,5.5681,5.588,5.6176,5.6421,5.6664,5.6664,5.6713,5.681,5.681,5.681,5.681,5.681,5.681,5.681,5.681,5.681,5.681,5.681,5.681,5.6686,5.5899,5.5684,5.5561,5.4914,5.4529,5.4283,5.3791,5.3714,5.356,5.2883,5.2698,5.2698,5.2698,5.2698,5.2698,5.2698,5.2698,5.2698,5.2698,5.2698,5.2698,5.2698,5.3129,5.3591,5.4037,5.4099,5.4099,5.4099,5.4099,5.4099,5.4099,5.4468,5.473,5.4806,5.4799,5.5519,5.7205,5.7238,5.7558,5.841,5.7968,5.8195,5.9145,5.8675,5.8217,5.7793,5.7793,5.7448,5.4187,5.4866,5.5869,5.7223,5.8362,5.9778,6.2086,6.2918,6.3295,6.3531,6.2465,6.137,6.0783,5.9958,5.9408,5.9683,5.9975,6.0144,6.0144,5.988,5.972,5.972,5.9422,5.9261,5.9261,5.9153,5.9009,5.874,5.8351,5.7902,5.7363,5.6585,5.6098,5.5777,5.5388,5.5179,5.5179,5.5179,5.5179,5.5179,5.5179,5.5179,5.5179,5.5581,5.583,5.6028,5.6421,5.6616,5.6664,5.6761,5.681,5.681,5.681,5.681,5.681,5.681,5.681,5.681,5.681,5.681,5.681,5.681,5.6625,5.6317,5.5807,5.5315,5.4822,5.4453,5.4099,5.3883,5.3827,5.3554,5.3221,5.2821,5.2698,5.2698,5.2698,5.2698,5.2698,5.2698,5.2698,5.2698,5.2698,5.2698,5.2698,5.2698,5.3283,5.3822,5.4222,5.4529,5.4683,5.4683,5.4683,5.4683,5.4683,5.4976,5.5007,5.4714,5.49,5.5579,5.6787,5.6776,5.7467,5.9037,5.8723,5.8922,5.9716,5.9562,5.8873,5.7723,5.8419,5.8226,5.548,5.6255,5.721,5.8454,5.9439,6.0753,6.3179,6.3772,6.3841,6.3841,6.2786,6.1967,6.1967,6.099,6.0361,6.0979,6.0763,6.0555,6.0555,6.025,6.0069,6.0069,5.9773,5.9529,5.9529,5.9201,5.877,5.8171,5.8022,5.7423,5.6226,5.6158,5.5807,5.5209,5.5179,5.5179,5.5179,5.5179,5.5179,5.5179,5.5179,5.5179,5.5229,5.5731,5.6028,5.6127,5.6616,5.6664,5.647,5.6713,5.681,5.681,5.681,5.681,5.681,5.681,5.681,5.681,5.681,5.6779,5.6717,5.6717,5.6176,5.5592,5.553,5.4668,5.3714,5.3652,5.3236,5.298,5.3793,5.3477,5.2922,5.2833,5.2743,5.2698,5.2698,5.2698,5.2698,5.2698,5.2698,5.2698,5.2698,5.2698,5.276,5.2883,5.3406,5.3868,5.3991,5.4498,5.4868,5.4868,5.4868,5.4868,5.4868,5.5407,5.5438,5.4806,5.6044,5.6545,5.6049,5.575,5.696,5.9881,6.0097,6.0119,5.9985,6.0771,5.9834,5.7426,5.8956,5.9189,5.4804,5.6207,5.7795,5.8577,6.0486,6.2359,6.3192,6.3596,6.3841,6.3841,6.3338,6.2958,6.2958,6.2981,6.302,6.31,6.2436,6.1872,6.1872,6.0969,6.0324,6.0324,6.0092,5.9773,5.9529,5.9024,5.8504,5.8141,5.7184,5.6466,5.6248,5.5688,5.5329,5.5179,5.5179,5.5179,5.5179,5.5179,5.5179,5.5179,5.5179,5.5179,5.5229,5.5731,5.6225,5.6616,5.6761,5.6761,5.6713,5.6761,5.681,5.681,5.681,5.681,5.681,5.681,5.681,5.681,5.681,5.644,5.593,5.593,5.5468,5.4853,5.4299,5.396,5.3622,5.3067,5.3295,5.375,5.3934,5.4359,5.4569,5.3879,5.3201,5.2698,5.2698,5.2698,5.2698,5.2698,5.2698,5.2698,5.2698,5.2698,5.3067,5.4099,5.4375,5.4884,5.5961,5.6238,5.633,5.633,5.633,5.633,5.633,5.593,5.5622,5.5499,5.5317,5.5424,5.5973,5.7162,5.8105,5.8736,6.0109,6.0795,6.0755,6.1649,6.1413,6.0135,6.0511,6.0226,5.5245,5.6849,5.8577,5.9901,6.1286,6.2461,6.2924,6.292,6.2856,6.2856,6.308,6.3186,6.287,6.334,6.3797,6.3797,6.3371,6.302,6.302,6.2022,6.1297,6.1297,6.0638,6.0144,5.9955,5.9116,5.8392,5.7903,5.6839,5.6047,5.5718,5.5388,5.5179,5.5179,5.5179,5.5179,5.5179,5.5179,5.5179,5.5179,5.5179,5.533,5.5581,5.588,5.6274,5.681,5.681,5.681,5.681,5.681,5.681,5.681,5.681,5.681,5.681,5.681,5.6594,5.6238,5.6238,5.5807,5.5222,5.5222,5.4791,5.4176,5.3837,5.3498,5.316,5.2821,5.3346,5.4105,5.4527,5.4985,5.5312,5.5271,5.4232,5.3201,5.2788,5.2698,5.2698,5.2698,5.2698,5.2833,5.3258,5.3583,5.3917,5.4191,5.4791,5.5438,5.6146,5.6594,5.681,5.681,5.681,5.681,5.681,5.6471,5.6255,5.6255,5.5899,5.592,5.6372,5.7224,5.7873,5.8367,5.9272,5.9755,5.9755,6.0621,6.0621,5.983,6.0613,6.0736,5.5468,5.7273,5.9224,6.1009,6.1625,6.1985,6.2545,6.2223,6.1831,6.1886,6.2547,6.2983,6.2661,6.3371,6.4124,6.4309,6.417,6.4077,6.4077,6.318,6.2485,6.2319,6.1348,6.0607,6.0429,5.9288,5.8278,5.7652,5.6693,5.5799,5.5209,5.5179,5.5179,5.5179,5.5179,5.5179,5.5179,5.5179,5.5179,5.5179,5.5089,5.519,5.5596,5.5766,5.6152,5.681,5.681,5.681,5.681,5.681,5.681,5.681,5.681,5.681,5.681,5.681,5.6347,5.5684,5.5684,5.5191,5.4498,5.4498,5.4037,5.356,5.356,5.316,5.2743,5.2877,5.3565,5.4443,5.5312,5.5636,5.5915,5.6459,5.5612,5.438,5.3313,5.2984,5.2908,5.2852,5.3018,5.3401,5.4252,5.4994,5.5241,5.4629,5.5456,5.6233,5.6357,5.6933,5.7211,5.7098,5.7019,5.7002,5.681,5.681,5.681,5.681,5.681,5.681,5.681,5.681,5.723,5.8113,5.8431,5.8518,5.8344,5.9383,5.9513,5.897,6.0355,6.1069,5.3513,5.6278,5.8978,5.9839,6.0948,6.1917,6.228,6.2083,6.1886,6.2154,6.2347,6.2661,6.3451,6.4401,6.5382,6.6235,6.568,6.5114,6.5114,6.4216,6.3276,6.2418,6.2171,6.1602,6.0534,5.9194,5.8227,5.7622,5.6425,5.5521,5.5209,5.5179,5.5179,5.5179,5.5179,5.5179,5.5179,5.5179,5.5179,5.5179,5.461,5.419,5.3941,5.4758,5.5725,5.681,5.681,5.681,5.681,5.681,5.681,5.681,5.681,5.681,5.681,5.681,5.6347,5.5684,5.5684,5.4884,5.3822,5.3822,5.3406,5.2852,5.2852,5.279,5.2877,5.362,5.4443,5.5353,5.6192,5.6996,5.7406,5.6768,5.6921,5.6751,5.5066,5.4246,5.3765,5.3604,5.4206,5.5066,5.5937,5.6676,5.7312,5.7796,5.8043,5.8397,5.9009,5.917,5.8876,5.8119,5.8026,5.7653,5.6858,5.681,5.681,5.681,5.681,5.681,5.681,5.681,5.6844,5.7008,5.8613,5.9061,5.8237,5.9989,6.0754,6.0654,6.0912,6.1432,5.3391,5.6063,5.8454,5.9532,6.024,6.0856,6.1348,6.1371,6.1288,6.1441,6.145,6.1922,6.3514,6.4629,6.5636,6.6643,6.644,6.6148,6.6148,6.5248,6.4492,6.4031,6.2972,6.2072,6.1551,5.9582,5.8309,5.8085,5.6537,5.5531,5.5431,5.528,5.5179,5.5179,5.5179,5.5179,5.5179,5.5179,5.4999,5.464,5.3593,5.329,5.3622,5.3819,5.467,5.6015,5.6559,5.681,5.681,5.681,5.681,5.681,5.681,5.681,5.6748,5.6347,5.5961,5.5592,5.4853,5.4206,5.3652,5.3283,5.2944,5.2698,5.2698,5.3024,5.3521,5.3922,5.4985,5.6113,5.6498,5.7256,5.791,5.7943,5.8203,5.8291,5.7836,5.636,5.5153,5.5055,5.5796,5.6509,5.6931,5.8008,5.8587,5.7845,5.8537,5.9088,5.8876,5.9234,5.9411,5.9043,5.8998,5.8592,5.7653,5.7559,5.7353,5.6858,5.681,5.681,5.681,5.681,5.681,5.681,5.7606,5.784,5.7401,5.8226,5.8921,5.9411,5.9411,6.0226,5.2643,5.5003,5.699,5.8208,5.9039,5.9655,6.0178,6.0547,6.0794,6.0794,6.0794,6.1328,6.3084,6.4216,6.5248,6.6235,6.661,6.6812,6.6812,6.6148,6.5592,6.5337,6.3984,6.2875,6.2369,6.0204,5.8762,5.841,5.6788,5.5731,5.5631,5.5381,5.528,5.5179,5.5179,5.5179,5.5179,5.5029,5.4521,5.3683,5.2845,5.278,5.335,5.3486,5.4087,5.5197,5.6111,5.6532,5.6563,5.6717,5.681,5.681,5.681,5.6717,5.6471,5.5899,5.5468,5.5037,5.4052,5.3622,5.3375,5.2883,5.2698,5.2743,5.2935,5.3477,5.4105,5.4527,5.5595,5.6685,5.7077,5.7708,5.8355,5.9099,5.9438,5.9616,5.9624,5.8095,5.677,5.6797,5.7494,5.8172,5.8421,5.9613,6.0068,5.8647,5.9491,6.0065,5.9323,5.9849,6.0194,5.9979,5.9968,5.9575,5.8637,5.8546,5.8226,5.7559,5.7306,5.7258,5.7511,5.7306,5.7163,5.7163,5.7163,5.705,5.681,5.705,5.7543,5.8211,5.8211,5.9222,5.0157,5.2046,5.3836,5.4728,5.6915,5.8854,5.8885,5.987,6.0794,6.0794,6.0794,6.1124,6.2171,6.318,6.4216,6.5204,6.6192,6.6812,6.6812,6.677,6.6397,6.5382,6.5204,6.4401,6.2516,6.1007,5.9687,5.846,5.7136,5.6127,5.5631,5.5581,5.5481,5.5179,5.5179,5.5179,5.5179,5.4581,5.3593,5.2306,5.2875,5.296,5.2705,5.4213,5.4727,5.4493,5.5374,5.5745,5.5807,5.6532,5.681,5.681,5.681,5.6378,5.5745,5.5715,5.4914,5.3806,5.3699,5.3314,5.276,5.2729,5.2698,5.2877,5.3664,5.3934,5.4359,5.5995,5.6536,5.6934,5.85,5.8927,5.9133,5.9877,6.0622,6.0728,5.9199,5.8665,5.8505,5.8617,5.9323,6.0104,6.0959,6.1761,6.2234,6.2156,6.2189,6.2263,6.2183,6.2223,6.1911,6.1028,6.0945,6.0567,5.9587,5.9499,5.9499,5.9455,5.8592,5.8501,5.9411,5.8592,5.8119,5.8119,5.8119,5.77,5.681,5.77,5.8165,5.8211,5.8211,5.9222,4.9491,5.0967,5.2443,5.4097,5.5326,5.6515,5.7839,5.8854,5.9624,6.0055,6.0486,6.1124,6.2121,6.3132,6.4124,6.5159,6.6148,6.6812,6.6812,6.6812,6.6686,6.6311,6.568,6.4827,6.3643,6.1579,5.9933,5.8996,5.7351,5.6323,5.6127,5.578,5.5531,5.5431,5.528,5.497,5.4551,5.3473,5.2665,5.2187,5.2426,5.257,5.2644,5.3819,5.4361,5.4463,5.5312,5.5684,5.5745,5.6532,5.681,5.6779,5.6317,5.593,5.5686,5.536,5.5211,5.5055,5.4178,5.3991,5.3996,5.3001,5.3069,5.3577,5.3922,5.4778,5.5894,5.6987,5.773,5.8387,5.943,5.9708,5.9911,6.0689,6.1434,6.1829,6.1251,6.01,5.9436,6.0093,6.0464,6.095,6.1857,6.1743,6.1346,6.0872,6.1213,6.1346,6.0839,6.1761,6.2263,6.1951,6.1911,6.1513,6.0609,6.0525,6.0237,5.9631,5.9278,5.9266,5.9587,5.9311,5.9133,5.9133,5.9133,5.8318,5.681,5.7115,5.7306,5.7306,5.7306,5.798,4.8667,4.9698,5.0845,5.2612,5.3668,5.4759,5.6669,5.7777,5.8701,5.9593,6.0147,6.0876,6.209,6.3132,6.4124,6.5159,6.6148,6.6812,6.6812,6.6812,6.6812,6.6812,6.6192,6.548,6.463,6.2469,6.0677,5.9633,5.7876,5.6764,5.6421,5.6077,5.578,5.5631,5.512,5.4551,5.3862,5.2755,5.2187,5.2187,5.2426,5.2828,5.3403,5.4291,5.4714,5.4863,5.5452,5.5684,5.5745,5.6532,5.681,5.6748,5.5961,5.5684,5.5672,5.5202,5.526,5.5525,5.473,5.4677,5.4913,5.4166,5.414,5.4453,5.5056,5.6042,5.7116,5.7925,5.8719,5.9539,6.0317,6.0689,6.0994,6.1535,6.2042,6.2381,6.2381,6.1432,6.0736,6.135,6.1473,6.1676,6.2302,6.187,6.1183,6.0398,6.0935,6.1183,6.0398,6.1528,6.2381,6.2381,6.2381,6.2183,6.1513,6.1473,6.1193,6.0609,6.0237,6.0194,6.0525,6.0237,6.0065,6.0065,6.0065,5.9278,5.7746,5.7746,5.7746,5.7746,5.7448,5.7606,0.0,0.0,0.0,4.9974,5.1756,5.3683,5.5267,5.6669,5.8134,5.9439,5.9747,6.0319,6.1995,6.3084,6.4077,6.5114,6.6105,6.6812,6.6812,6.6812,6.6812,6.6812,6.6812,6.644,6.5426,6.378,6.2099,6.0487,5.8754,5.7371,5.6482,5.6421,5.6176,5.5631,5.47,5.3892,5.3204,5.2546,5.2217,5.2247,5.2875,5.3826,5.5056,5.5724,5.5908,5.5715,5.5715,5.5684,5.5745,5.6502,5.6779,5.6748,5.5961,5.5653,5.5641,5.5171,5.5063,5.5098,5.5316,5.5291,5.5225,5.6131,5.5836,5.5409,5.7197,5.7746,5.7975,5.8807,5.9573,6.0317,6.1129,6.1873,6.2381,6.2381,6.2381,6.2381,6.2381,6.2381,6.2381,6.2381,6.2381,6.2381,6.2381,6.2381,6.203,6.1152,6.1756,6.1997,6.1119,6.1797,6.2381,6.2381,6.2381,6.2381,6.2381,6.2381,6.2381,6.2381,6.1554,6.1432,6.2341,6.1513,6.1028,6.1028,6.1028,6.0609,5.9674,5.9631,5.9587,5.9587,5.8683,5.8257,4.5975,0.0,0.0,0.0,0.0,0.0,5.2902,5.4467,5.6084,5.7962,5.9101,6.0319,6.1995,6.2534,6.3036,6.4077,6.568,6.6812,6.6812,6.6812,6.6812,6.6812,6.6812,6.6449,6.5665,6.389,6.2377,6.1391,5.9157,5.7685,5.7451,5.6794,5.6176,5.5631,5.4899,5.4299,5.3922,5.2785,5.2552,5.3224,5.3211,5.3923,5.5298,5.5773,5.6152,5.6502,5.593,5.5684,5.5715,5.5899,5.6347,5.6686,5.5468,5.5007,5.507,5.5771,5.6015,5.6173,5.7396,5.7338,5.6755,5.7126,5.6999,5.6925,5.8148,5.8936,5.9612,6.041,6.0825,6.1129,6.1907,6.2245,6.2381,6.2381,6.2381,6.2381,6.2381,6.2381,6.2381,6.2381,6.2381,6.2381,6.2381,6.183,6.1346,6.1245,6.0866,6.0752,6.1177,6.1447,6.1806,6.2347,6.2381,6.2381,6.2381,6.2381,6.2381,6.2381,6.2183,6.2144,6.2381,6.215,6.1991,6.1991,6.1991,6.187,6.1595,6.0237,5.9587,5.9587,5.9323,5.9222,4.5528,4.6609,4.7675,4.8394,0.0,0.0,5.1743,5.3208,5.4835,5.7138,5.8128,5.9235,6.146,6.1656,6.1869,6.3171,6.4601,6.578,6.6541,6.635,6.6455,6.7176,6.7015,6.6643,6.6203,6.4752,6.3349,6.2223,6.0092,5.839,5.7426,5.6782,5.6274,5.5929,5.5194,5.4684,5.4537,5.3212,5.3079,5.4159,5.3712,5.4316,5.584,5.6042,5.6219,5.6269,5.5592,5.5284,5.5284,5.5284,5.553,5.5807,5.473,5.4684,5.5357,5.6103,5.6832,5.7568,5.8873,5.8925,5.8501,5.8946,5.8782,5.8617,5.9545,6.0203,6.0689,6.1163,6.1535,6.1839,6.2279,6.2381,6.2381,6.2381,6.2381,6.2381,6.2381,6.2381,6.2381,6.2381,6.2381,6.2381,6.2381,6.1951,6.1501,6.122,6.104,6.1,6.1153,6.1543,6.1907,6.2347,6.2381,6.2263,6.187,6.2183,6.2223,6.183,6.215,6.2381,6.2381,6.2381,6.2381,6.2381,6.2381,6.2381,6.2381,6.1309,6.0567,6.0151,6.0151,5.9979,4.557,4.6344,4.7342,4.8216,4.8454,0.0,5.1137,5.2398,5.3865,5.6403,5.6751,5.7435,6.0243,6.0279,6.0345,6.1892,6.2772,6.397,6.5973,6.579,6.6046,6.7708,6.732,6.6948,6.6948,6.5965,6.4671,6.3199,6.1342,5.9332,5.7064,5.6616,5.6421,5.6421,5.5597,5.5147,5.5098,5.3763,5.381,5.5147,5.4387,5.4866,5.6421,5.6421,5.6181,5.5776,5.513,5.4869,5.4962,5.49,5.4854,5.476,5.4175,5.4753,5.6056,5.6495,5.7527,5.888,5.9944,6.0214,6.0181,6.1127,6.0778,6.0181,6.1127,6.1434,6.1434,6.1434,6.1873,6.2381,6.2381,6.2381,6.2381,6.2381,6.2381,6.2381,6.2381,6.2381,6.2381,6.2381,6.2381,6.2381,6.2381,6.2381,6.211,6.1309,6.1803,6.2003,6.1235,6.1803,6.2313,6.2381,6.2381,6.207,6.1227,6.1911,6.203,6.1227,6.1951,6.2381,6.2381,6.2381,6.2381,6.2381,6.2381,6.2381,6.2381,6.2381,6.1951,6.1185,6.1185,6.0694,4.4265,4.5326,4.6329,4.7328,4.7662,0.0,4.9024,5.0425,5.1911,5.354,5.4635,5.5755,5.7113,5.7272,5.7356,5.7865,5.8972,6.1104,6.4967,6.5889,6.6612,6.7732,6.776,6.7692,6.7692,6.6266,6.5138,6.4827,6.202,5.9618,5.7996,5.7163,5.6616,5.6421,5.625,5.6012,5.5846,5.4461,5.4605,5.6109,5.4696,5.4962,5.6713,5.6519,5.6506,5.6563,5.5807,5.5938,5.6612,5.6046,5.5717,5.5532,5.5527,5.5713,5.6208,5.7756,5.8514,5.9086,6.1228,6.1421,6.0953,6.1868,6.1555,6.0953,6.1908,6.2178,6.2178,6.2178,6.2279,6.2381,6.2381,6.2381,6.2381,6.2381,6.2381,6.2381,6.2381,6.2381,6.2381,6.2381,6.2381,6.2381,6.2381,6.2381,6.2341,6.215,6.1756,6.1665,6.2082,6.1756,6.1738,6.2347,6.2381,6.2341,6.211,6.2302,6.2302,6.211,6.2302,6.2381,6.2381,6.2381,6.2381,6.2381,6.2381,6.2381,6.2381,6.2381,6.2302,6.2144,6.2144,6.203,4.3333,4.4312,4.5281,4.6299,4.6638,0.0,0.0,4.9446,5.0713,5.2076,5.2684,5.3371,5.447,5.4521,5.4694,5.5463,5.7113,5.9367,6.2367,6.4132,6.5775,6.7656,6.7895,6.7554,6.6675,6.6124,6.5213,6.36,6.1513,5.9712,5.8274,5.7306,5.6713,5.6616,5.6616,5.6519,5.6421,5.5363,5.5459,5.6616,5.5429,5.5507,5.681,5.6664,5.648,5.6207,5.5838,5.5782,5.595,5.6419,5.6518,5.6434,5.667,5.6733,5.6937,5.8717,5.9685,6.0281,6.1857,6.207,6.179,6.2263,6.207,6.179,6.2263,6.2381,6.2381,6.2381,6.2381,6.2381,6.2381,6.2381,6.2381,6.2381,6.2381,6.2381,6.2381,6.2381,6.2381,6.2381,6.2381,6.2381,6.2381,6.2381,6.2381,6.2381,6.2076,6.1975,6.2347,6.2076,6.1975,6.2347,6.2381,6.2223,6.175,6.211,6.2223,6.1716,6.211,6.2381,6.2381,6.2381,6.2381,6.2381,6.2381,6.2381,6.2381,6.2381,6.2381,6.2381,6.2381,6.2584,4.2985,4.3701,4.4591,4.5779,4.6121,4.6446,0.0,0.0,0.0,5.0849,5.0865,5.1001,5.2108,5.2079,5.2276,5.3544,5.5507,5.7483,5.9207,6.1325,6.3969,6.742,6.7877,6.7392,6.6146,6.6157,6.5048,6.2107,6.0971,5.9805,5.8464,5.7368,5.681,5.681,5.681,5.681,5.681,5.6053,5.6053,5.681,5.6023,5.6084,5.681,5.681,5.6502,5.5947,5.6106,5.6015,5.575,5.7254,5.7745,5.7592,5.786,5.7939,5.8055,5.9661,6.0684,6.14,6.2144,6.2381,6.2381,6.2381,6.2381,6.2381,6.2381,6.2381,6.2381,6.2381,6.2381,6.2381,6.2381,6.2381,6.2381,6.2381,6.2381,6.2381,6.2381,6.2381,6.2381,6.2381,6.2381,6.2381,6.2381,6.2381,6.2381,6.2381,6.2381,6.2381,6.2381,6.2381,6.2381,6.2381,6.2381,6.207,6.135,6.1951,6.207,6.135,6.1991,6.2381,6.2381,6.2381,6.2381,6.2381,6.2516,6.2618,6.2618,6.2753,6.2651,6.2381,6.255,6.2922,4.3654,4.4219,4.4776,4.6638,4.7106,4.7179,4.7355,0.0,4.8491,4.864,0.0,4.9584,4.9914,0.0,0.0,5.1213,5.258,5.4221,5.6158,5.7645,6.0779,6.6804,6.7789,6.8089,6.8644,6.6913,6.492,6.2755,6.1375,6.0192,5.9128,5.7648,5.681,5.681,5.681,5.681,5.681,5.6053,5.6053,5.681,5.6023,5.6084,5.681,5.681,5.6779,5.6735,5.7527,5.8342,5.9141,6.0148,6.0096,5.9305,5.9563,5.963,5.9712,6.0763,6.1221,6.14,6.2144,6.2381,6.2381,6.2381,6.2381,6.2381,6.2381,6.2381,6.2381,6.2381,6.2381,6.2381,6.2381,6.2381,6.2381,6.2381,6.2381,6.2381,6.2381,6.2381,6.2381,6.2381,6.2381,6.2381,6.2381,6.2381,6.2381,6.2381,6.2381,6.2381,6.2381,6.2381,6.2381,6.2381,6.2381,6.2341,6.2263,6.2341,6.2341,6.2263,6.2341,6.2381,6.2381,6.2381,6.2381,6.2381,6.3057,6.3396,6.3396,6.4038,6.3666,6.2415,6.3091,6.3429,4.3302,4.3726,4.4276,4.5734,4.625,4.6594,4.7149,4.7519,4.7728,4.7728,0.0,0.0,0.0,0.0,0.0,0.0,5.1758,5.342,5.4622,5.6435,5.9139,6.3146,6.3727,6.387,6.4041,6.3615,6.3045,6.2191,6.1251,6.0521,6.0115,5.7981,5.681,5.681,5.681,5.681,5.681,5.6502,5.6789,5.7606,5.6741,5.6789,5.759,5.705,5.7098,5.7606,5.8026,5.8728,5.9674,6.0609,6.0778,6.0426,6.0631,6.0314,5.9896,6.1361,6.1941,6.1975,6.2279,6.2381,6.2381,6.2381,6.2381,6.2381,6.2381,6.2381,6.2381,6.2381,6.2381,6.2381,6.2381,6.2381,6.2381,6.2381,6.2381,6.2381,6.2381,6.2381,6.2381,6.2381,6.2381,6.2381,6.2381,6.2381,6.2381,6.2381,6.2381,6.2381,6.2381,6.2381,6.2381,6.2381,6.2381,6.2381,6.2381,6.2381,6.2381,6.2381,6.2787,6.3057,6.3057,6.3463,6.3666,6.3666,6.3971,6.414,6.414,6.4444,6.4275,6.3666,6.4005,6.4377,4.3909,4.4288,4.476,4.5808,4.6251,4.6623,4.7165,4.7309,4.7369,4.7549,4.7578,0.0,0.0,0.0,4.9012,4.9629,0.0,5.2483,5.3243,5.4804,5.701,5.9968,6.0818,6.0999,6.0544,6.1071,6.1638,6.1951,6.0979,6.0437,6.0599,5.8326,5.6994,5.681,5.681,5.6954,5.7163,5.7163,5.7653,5.8546,5.7606,5.7543,5.8165,5.7495,5.759,5.8211,5.8728,5.9323,6.0022,6.0788,6.0927,6.0705,6.0881,6.0458,5.9889,6.1488,6.2212,6.2381,6.2381,6.2381,6.2381,6.2381,6.2381,6.2381,6.2381,6.2381,6.2381,6.2381,6.2381,6.2381,6.2381,6.2381,6.2381,6.2381,6.2381,6.2381,6.2381,6.2381,6.2381,6.2381,6.2381,6.2381,6.2381,6.2381,6.2381,6.2381,6.2381,6.2381,6.2381,6.2381,6.2482,6.2685,6.2685,6.2787,6.299,6.299,6.299,6.299,6.3531,6.3802,6.3802,6.4309,6.4613,6.4613,6.4783,6.4884,6.4884,6.5087,6.5222,6.5189,6.4986,6.5189,4.6253,4.6703,4.6932,4.7956,4.8222,4.8043,4.7459,4.7309,4.7489,4.8117,4.8267,4.8446,4.912,4.9269,4.9509,0.0,5.0242,0.0,0.0,5.1739,5.3621,5.8468,6.0706,6.1581,6.0765,6.09,6.1488,6.2612,6.074,5.9788,6.0282,5.8691,5.7487,5.684,5.681,5.7211,5.8165,5.8165,5.8637,5.9543,5.8592,5.8165,5.8211,5.8165,5.8165,5.8303,6.0108,6.0945,6.0995,6.1211,6.0751,5.9934,6.0073,6.0047,6.0,6.0987,6.1772,6.2381,6.2381,6.2381,6.2381,6.2381,6.2381,6.2381,6.2381,6.2381,6.2381,6.2381,6.2381,6.2381,6.2381,6.2381,6.2381,6.2381,6.2381,6.2381,6.2381,6.2381,6.2381,6.2381,6.2381,6.2381,6.2381,6.2381,6.2381,6.2381,6.2381,6.2381,6.2381,6.2381,6.2651,6.3396,6.3463,6.3768,6.4478,6.4546,6.4546,6.4546,6.4546,6.4546,6.4546,6.458,6.4613,6.4613,6.529,6.5662,6.5662,6.6373,6.6745,6.6711,6.6,6.5662,4.6781,4.7128,4.7422,4.7746,4.7748,4.7578,4.7369,4.7638,4.8027,4.8237,4.8626,4.906,4.9269,4.9613,4.9972,0.0,5.0554,5.096,0.0,5.1118,5.1712,5.3867,5.5596,5.6451,5.5871,5.7396,5.8863,5.9922,5.9357,5.9502,6.0718,5.91,5.8351,5.8651,5.8683,5.8818,5.91,5.9133,5.9587,6.0525,5.9575,5.9455,6.0022,5.9443,5.9487,6.0065,6.0736,6.135,6.1883,6.1486,6.1143,6.074,5.9764,5.9958,6.0875,6.1182,6.1772,6.2381,6.2381,6.2381,6.2381,6.2381,6.2381,6.2381,6.2381,6.2381,6.2381,6.2381,6.2381,6.2381,6.2381,6.2381,6.2381,6.2381,6.2381,6.2381,6.2381,6.2381,6.2381,6.2381,6.2381,6.2381,6.2381,6.2381,6.2381,6.2381,6.2381,6.2584,6.3057,6.3125,6.3429,6.414,6.4241,6.4343,6.458,6.4613,6.4613,6.4613,6.5053,6.5324,6.5324,6.5797,6.6068,6.6068,6.6305,6.644,6.644,6.6677,6.6812,6.6812,6.6542,6.644,4.8086,4.8333,4.8512,4.8512,4.8429,4.8297,4.8057,4.8327,4.8775,4.9224,4.9494,4.9763,5.0212,5.0451,5.0554,0.0,0.0,5.1139,0.0,5.0649,5.0621,5.1042,5.2392,5.3389,5.3652,5.5254,5.698,5.8838,5.8469,5.893,6.0514,5.9445,5.8928,5.9198,5.9457,5.9762,6.0065,6.0108,6.0567,6.1473,6.0567,6.0407,6.0986,6.0365,6.044,6.1028,6.135,6.183,6.2313,6.1298,6.1028,6.1163,5.9607,5.9945,6.1264,6.0994,6.1501,6.2381,6.2381,6.2381,6.2381,6.2381,6.2381,6.2381,6.2381,6.2381,6.2381,6.2381,6.2381,6.2381,6.2381,6.2381,6.2381,6.2381,6.2381,6.2381,6.2381,6.2381,6.2381,6.2381,6.2381,6.2381,6.2381,6.2618,6.2685,6.2415,6.2618,6.2956,6.3463,6.3734,6.4174,6.4918,6.4986,6.5087,6.5358,6.5392,6.5392,6.5392,6.5831,6.6102,6.6102,6.6542,6.6812,6.6812,6.6812,6.6812,6.6812,6.6812,6.6812,6.6812,6.6812,6.6812]}]]